[[{"header":{"parameterUnit":"m.s-1","parameterCategory":1,"la1":30.6,"la2":28.766,"lo1":-90.7593,"lo2":-88.6598,"dy":0.0162,"dx":0.0183,"nx":116,"ny":114,"refTime":"2023-07-22T12:00:00:Z","depth":0,"parameterNumber":2,"parameterNumberName":"U-component_of_WINDS"},"data":[0.0,0.0,0.0,0.0,0.0,0.0,0.0,0.0,0.0,0.0,0.0,0.0,0.0,0.0,0.0,0.0,0.0,0.0,0.0,0.0,0.0,0.0,0.0,0.0,0.0,0.0,0.0,0.0,0.0,0.0,0.0,0.0,0.0,0.0,0.0,0.0,0.0,0.0,0.0,0.0,0.0,0.0,0.0,0.0,0.0,0.0,0.0,0.0,0.0,0.0,0.0,0.0,0.0,0.0,0.0,0.0,0.0,0.0,0.0,0.0,0.0,0.0,0.0,0.0,0.0,0.0,0.0,0.0,0.0,0.0,0.0,0.0,0.0,0.0,0.0,0.0,0.0,0.0,0.0,0.0,0.0,0.0,0.0,0.0,0.0,0.0,0.0,0.0,0.0,0.0,0.0,0.0,0.0,0.0,0.0,0.0,0.0,0.0,0.0,0.0,0.0,0.0,0.0,0.0,0.0,0.0,0.0,0.0,0.0,0.0,0.0,0.0,0.0,0.0,0.0,0.0,0.0,0.0,0.0,0.0,0.0,0.0,0.0,0.0,0.0,0.0,0.0,0.0,0.0,0.0,0.0,0.0,0.0,0.0,0.0,0.0,0.0,0.0,0.0,0.0,0.0,0.0,0.0,0.0,0.0,0.0,0.0,0.0,0.0,0.0,0.0,0.0,0.0,0.0,0.0,0.0,0.0,0.0,0.0,0.0,0.0,0.0,0.0,0.0,0.0,0.0,0.0,0.0,0.0,0.0,0.0,0.0,0.0,0.0,0.0,0.0,0.0,0.0,0.0,0.0,0.0,0.0,0.0,0.0,0.0,0.0,0.0,0.0,0.0,0.0,0.0,0.0,0.0,0.0,0.0,0.0,0.0,0.0,0.0,0.0,0.0,0.0,0.0,0.0,0.0,0.0,0.0,0.0,0.0,0.0,0.0,0.0,0.0,0.0,0.0,0.0,0.0,0.0,0.0,0.0,0.0,0.0,0.0,0.0,0.0,0.0,0.0,0.0,0.0,0.0,0.0,0.0,0.0,0.0,0.0,0.0,0.0,0.0,0.0,0.0,0.0,0.0,0.0,0.0,0.0,0.0,0.0,0.0,0.0,0.0,0.0,0.0,0.0,0.0,0.0,0.0,0.0,0.0,0.0,0.0,0.0,0.0,0.0,0.0,0.0,0.0,0.0,0.0,0.0,0.0,0.0,0.0,0.0,0.0,0.0,0.0,0.0,0.0,0.0,0.0,0.0,0.0,0.0,0.0,0.0,0.0,0.0,0.0,0.0,0.0,0.0,0.0,0.0,0.0,0.0,0.0,0.0,0.0,0.0,0.0,0.0,0.0,0.0,0.0,0.0,0.0,0.0,0.0,0.0,0.0,0.0,0.0,0.0,0.0,0.0,0.0,0.0,0.0,0.0,0.0,0.0,0.0,0.0,0.0,0.0,0.0,0.0,0.0,0.0,0.0,0.0,0.0,0.0,0.0,0.0,0.0,0.0,0.0,0.0,0.0,0.0,0.0,0.0,0.0,0.0,0.0,0.0,0.0,0.0,0.0,0.0,0.0,0.0,0.0,0.0,0.0,0.0,0.0,0.0,0.0,0.0,0.0,0.0,0.0,0.0,0.0,0.0,0.0,0.0,0.0,0.0,0.0,0.0,0.0,0.0,0.0,0.0,0.0,0.0,0.0,0.0,0.0,0.0,0.0,0.0,0.0,0.0,0.0,0.0,0.0,0.0,0.0,0.0,0.0,0.0,0.0,0.0,0.0,0.0,0.0,0.0,0.0,0.0,0.0,0.0,0.0,0.0,0.0,0.0,0.0,0.0,0.0,0.0,0.0,0.0,0.0,0.0,0.0,0.0,0.0,0.0,0.0,0.0,0.0,0.0,0.0,0.0,0.0,0.0,0.0,0.0,0.0,0.0,0.0,0.0,0.0,0.0,0.0,0.0,0.0,0.0,0.0,0.0,0.0,0.0,0.0,0.0,0.0,0.0,0.0,0.0,0.0,0.0,0.0,0.0,0.0,0.0,0.0,0.0,0.0,0.0,0.0,0.0,0.0,0.0,0.0,0.0,0.0,0.0,0.0,0.0,0.0,0.0,0.0,0.0,0.0,0.0,0.0,0.0,0.0,0.0,0.0,0.0,0.0,0.0,0.0,0.0,0.0,0.0,0.0,0.0,0.0,0.0,0.0,0.0,0.0,0.0,0.0,0.0,0.0,0.0,0.0,0.0,0.0,0.0,0.0,0.0,0.0,0.0,0.0,0.0,0.0,0.0,0.0,0.0,0.0,0.0,0.0,0.0,0.0,0.0,0.0,0.0,0.0,0.0,0.0,0.0,0.0,0.0,0.0,0.0,0.0,0.0,0.0,0.0,0.0,0.0,0.0,0.0,0.0,0.0,0.0,0.0,0.0,0.0,0.0,0.0,0.0,0.0,0.0,0.0,0.0,0.0,0.0,0.0,0.0,0.0,0.0,0.0,0.0,0.0,0.0,0.0,0.0,0.0,0.0,0.0,0.0,0.0,0.0,0.0,0.0,0.0,0.0,0.0,0.0,0.0,0.0,0.0,0.0,0.0,0.0,0.0,0.0,0.0,0.0,0.0,0.0,0.0,0.0,0.0,0.0,0.0,0.0,0.0,0.0,0.0,0.0,0.0,0.0,0.0,0.0,0.0,0.0,0.0,0.0,0.0,0.0,0.0,0.0,0.0,0.0,0.0,0.0,0.0,0.0,0.0,0.0,0.0,0.0,0.0,0.0,0.0,0.0,0.0,0.0,0.0,0.0,0.0,0.0,0.0,0.0,0.0,0.0,0.0,0.0,0.0,0.0,0.0,0.0,0.0,0.0,0.0,0.0,0.0,0.0,0.0,0.0,0.0,0.0,0.0,0.0,0.0,0.0,0.0,0.0,0.0,0.0,0.0,0.0,0.0,0.0,0.0,0.0,0.0,0.0,0.0,0.0,0.0,0.0,0.0,0.0,0.0,0.0,0.0,0.0,0.0,0.0,0.0,0.0,0.0,0.0,0.0,0.0,0.0,0.0,0.0,0.0,0.0,0.0,0.0,0.0,0.0,0.0,0.0,0.0,0.0,0.0,0.0,0.0,0.0,0.0,0.0,0.0,0.0,0.0,0.0,0.0,0.0,0.0,0.0,0.0,0.0,0.0,0.0,0.0,0.0,0.0,0.0,0.0,0.0,0.0,0.0,0.0,0.0,0.0,0.0,0.0,0.0,0.0,0.0,0.0,0.0,0.0,0.0,0.0,0.0,0.0,0.0,0.0,0.0,0.0,0.0,0.0,0.0,0.0,0.0,0.0,0.0,0.0,0.0,0.0,0.0,0.0,0.0,0.0,0.0,0.0,0.0,0.0,0.0,0.0,0.0,0.0,0.0,0.0,0.0,0.0,0.0,0.0,0.0,0.0,0.0,0.0,0.0,0.0,0.0,0.0,0.0,0.0,0.0,0.0,0.0,0.0,0.0,0.0,0.0,0.0,0.0,0.0,0.0,0.0,0.0,0.0,0.0,0.0,0.0,0.0,0.0,0.0,0.0,0.0,0.0,0.0,0.0,0.0,0.0,0.0,0.0,0.0,0.0,0.0,0.0,0.0,0.0,0.0,0.0,0.0,0.0,0.0,0.0,0.0,0.0,0.0,0.0,0.0,0.0,0.0,0.0,0.0,0.0,0.0,0.0,0.0,0.0,0.0,0.0,0.0,0.0,0.0,0.0,0.0,0.0,0.0,0.0,0.0,0.0,0.0,0.0,0.0,0.0,0.0,0.0,0.0,0.0,0.0,0.0,0.0,0.0,0.0,0.0,0.0,0.0,0.0,0.0,0.0,0.0,0.0,0.0,0.0,0.0,0.0,0.0,0.0,0.0,0.0,0.0,0.0,0.0,0.0,0.0,0.0,0.0,0.0,0.0,0.0,0.0,0.0,0.0,0.0,0.0,0.0,0.0,0.0,0.0,0.0,0.0,0.0,0.0,0.0,0.0,0.0,0.0,0.0,0.0,0.0,0.0,0.0,0.0,0.0,0.0,0.0,0.0,0.0,0.0,0.0,0.0,0.0,0.0,0.0,0.0,0.0,0.0,0.0,0.0,0.0,0.0,0.0,0.0,0.0,0.0,0.0,0.0,0.0,0.0,0.0,0.0,0.0,0.0,0.0,0.0,0.0,0.0,0.0,0.0,0.0,0.0,0.0,0.0,0.0,0.0,0.0,0.0,0.0,0.0,0.0,0.0,0.0,0.0,0.0,0.0,0.0,0.0,0.0,0.0,0.0,0.0,0.0,0.0,0.0,0.0,0.0,0.0,0.0,0.0,0.0,0.0,0.0,0.0,0.0,0.0,0.0,0.0,0.0,0.0,0.0,0.0,0.0,0.0,0.0,0.0,0.0,0.0,0.0,0.0,0.0,0.0,0.0,0.0,0.0,0.0,0.0,0.0,0.0,0.0,0.0,0.0,0.0,0.0,0.0,0.0,0.0,0.0,0.0,0.0,0.0,0.0,0.0,0.0,0.0,0.0,0.0,0.0,0.0,0.0,0.0,0.0,0.0,0.0,0.0,0.0,0.0,0.0,0.0,0.0,0.0,0.0,0.0,0.0,0.0,0.0,0.0,0.0,0.0,0.0,0.0,0.0,0.0,0.0,0.0,0.0,0.0,0.0,0.0,0.0,0.0,0.0,0.0,0.0,0.0,0.0,0.0,0.0,0.0,0.0,0.0,0.0,0.0,0.0,0.0,0.0,0.0,0.0,0.0,0.0,0.0,0.0,0.0,0.0,0.0,0.0,0.0,0.0,0.0,0.0,0.0,0.0,0.0,0.0,0.0,0.0,0.0,0.0,0.0,0.0,0.0,0.0,0.0,0.0,0.0,0.0,0.0,0.0,0.0,0.0,0.0,0.0,0.0,0.0,0.0,0.0,0.0,0.0,0.0,0.0,0.0,0.0,0.0,0.0,0.0,0.0,0.0,0.0,0.0,0.0,0.0,0.0,0.0,0.0,0.0,0.0,0.0,0.0,0.0,0.0,0.0,0.0,0.0,0.0,0.0,0.0,0.0,0.0,0.0,0.0,0.0,0.0,0.0,0.0,0.0,0.0,0.0,0.0,0.0,0.0,0.0,0.0,0.0,0.0,0.0,0.0,0.0,0.0,0.0,0.0,0.0,0.0,0.0,0.0,0.0,0.0,0.0,0.0,0.0,0.0,0.0,0.0,0.0,0.0,0.0,0.0,0.0,0.0,0.0,0.0,0.0,0.0,0.0,0.0,0.0,0.0,0.0,0.0,0.0,0.0,0.0,0.0,0.0,0.0,0.0,0.0,0.0,0.0,0.0,0.0,0.0,0.0,0.0,0.0,0.0,0.0,0.0,0.0,0.0,0.0,0.0,0.0,0.0,0.0,0.0,0.0,0.0,0.0,0.0,0.0,0.0,0.0,0.0,0.0,0.0,0.0,0.0,0.0,0.0,0.0,0.0,0.0,0.0,0.0,0.0,0.0,0.0,0.0,0.0,0.0,0.0,0.0,0.0,0.0,0.0,0.0,0.0,0.0,0.0,0.0,0.0,0.0,0.0,0.0,0.0,0.0,0.0,0.0,0.0,0.0,0.0,0.0,0.0,0.0,0.0,0.0,0.0,0.0,0.0,0.0,0.0,0.0,0.0,0.0,0.0,0.0,0.0,0.0,0.0,0.0,0.0,0.0,0.0,0.0,0.0,0.0,0.0,0.0,0.0,0.0,0.0,0.0,0.0,0.0,0.0,0.0,0.0,0.0,0.0,0.0,0.0,0.0,0.0,0.0,0.0,0.0,0.0,0.0,0.0,0.0,0.0,0.0,0.0,0.0,0.0,0.0,0.0,0.0,0.0,0.0,0.0,0.0,0.0,0.0,0.0,0.0,0.0,0.0,0.0,0.0,0.0,0.0,0.0,0.0,0.0,0.0,0.0,0.0,0.0,0.0,0.0,0.0,0.0,0.0,0.0,0.0,0.0,0.0,0.0,0.0,0.0,0.0,0.0,0.0,0.0,0.0,0.0,0.0,0.0,0.0,0.0,0.0,0.0,0.0,0.0,0.0,0.0,0.0,0.0,0.0,0.0,0.0,0.0,0.0,0.0,-4.1026,0.0,0.0,0.0,0.0,0.0,0.0,0.0,0.0,0.0,0.0,0.0,0.0,0.0,0.0,0.0,0.0,0.0,0.0,0.0,0.0,0.0,0.0,0.0,0.0,0.0,0.0,0.0,0.0,0.0,0.0,0.0,0.0,0.0,0.0,0.0,0.0,0.0,0.0,0.0,0.0,0.0,0.0,0.0,0.0,0.0,0.0,0.0,0.0,0.0,0.0,0.0,0.0,0.0,0.0,0.0,0.0,0.0,0.0,0.0,0.0,0.0,0.0,0.0,0.0,0.0,0.0,0.0,0.0,0.0,0.0,0.0,0.0,0.0,0.0,0.0,0.0,0.0,0.0,0.0,0.0,0.0,0.0,0.0,0.0,0.0,0.0,0.0,0.0,0.0,0.0,0.0,0.0,0.0,0.0,0.0,0.0,0.0,0.0,0.0,0.0,0.0,0.0,0.0,0.0,0.0,0.0,0.0,0.0,0.0,0.0,0.0,0.0,0.0,0.0,0.0,0.0,-4.0915,0.0,0.0,0.0,0.0,0.0,0.0,0.0,0.0,0.0,0.0,0.0,0.0,0.0,0.0,0.0,0.0,0.0,0.0,0.0,0.0,0.0,0.0,0.0,0.0,0.0,0.0,0.0,0.0,0.0,0.0,0.0,0.0,0.0,0.0,0.0,0.0,0.0,0.0,0.0,0.0,0.0,0.0,0.0,0.0,0.0,0.0,0.0,0.0,0.0,0.0,0.0,0.0,0.0,0.0,0.0,0.0,0.0,0.0,0.0,0.0,0.0,0.0,0.0,0.0,0.0,0.0,0.0,0.0,0.0,0.0,0.0,0.0,0.0,0.0,0.0,0.0,0.0,0.0,0.0,0.0,0.0,0.0,0.0,0.0,0.0,0.0,0.0,0.0,0.0,0.0,0.0,0.0,0.0,0.0,0.0,0.0,0.0,0.0,0.0,0.0,0.0,0.0,0.0,0.0,0.0,0.0,0.0,0.0,-4.1107,-4.1099,-4.1104,-4.1081,-4.1045,-4.0999,-4.0932,-4.0849,-4.0796,0.0,0.0,0.0,0.0,0.0,0.0,0.0,0.0,0.0,0.0,0.0,0.0,0.0,0.0,0.0,0.0,0.0,0.0,0.0,0.0,0.0,0.0,0.0,0.0,0.0,0.0,0.0,0.0,0.0,0.0,0.0,0.0,0.0,0.0,0.0,0.0,0.0,0.0,0.0,-3.5047,-3.5378,-3.5678,-3.6048,0.0,0.0,0.0,0.0,0.0,0.0,0.0,0.0,0.0,0.0,0.0,0.0,0.0,0.0,0.0,0.0,0.0,0.0,0.0,0.0,0.0,0.0,0.0,0.0,0.0,0.0,0.0,0.0,0.0,0.0,0.0,0.0,0.0,0.0,0.0,0.0,0.0,0.0,0.0,0.0,0.0,0.0,0.0,0.0,-4.0523,-4.0588,0.0,0.0,0.0,0.0,0.0,0.0,0.0,0.0,0.0,0.0,0.0,0.0,0.0,-4.1107,-4.1107,-4.1113,-4.1111,-4.1108,-4.1099,-4.1108,-4.1094,-4.1037,-4.102,-4.0996,-4.0927,0.0,-4.08,-4.0662,0.0,0.0,0.0,0.0,0.0,0.0,0.0,0.0,0.0,0.0,0.0,0.0,0.0,0.0,0.0,0.0,0.0,0.0,0.0,0.0,0.0,0.0,0.0,0.0,0.0,0.0,0.0,0.0,0.0,0.0,0.0,0.0,0.0,0.0,0.0,0.0,-3.3658,-3.4125,-3.4555,-3.4864,-3.5163,-3.5472,-3.6448,-3.6894,-3.6869,-3.6412,0.0,0.0,0.0,0.0,0.0,0.0,0.0,0.0,0.0,0.0,0.0,0.0,0.0,0.0,0.0,0.0,0.0,0.0,0.0,0.0,0.0,0.0,0.0,0.0,0.0,0.0,0.0,0.0,0.0,0.0,0.0,0.0,0.0,0.0,0.0,0.0,0.0,0.0,0.0,-4.0489,-4.0504,-4.0539,-4.0579,-4.0621,0.0,0.0,0.0,0.0,0.0,0.0,0.0,0.0,0.0,-4.1094,-4.1103,-4.1108,-4.109,-4.1094,-4.109,-4.1107,-4.1097,-4.1097,-4.1072,-4.0563,-4.0285,-4.0185,-3.9656,-3.9389,-3.9308,-3.9714,-3.9792,-3.9612,0.0,0.0,0.0,0.0,-3.7385,-3.6568,0.0,0.0,0.0,0.0,0.0,0.0,0.0,0.0,0.0,0.0,0.0,0.0,0.0,0.0,0.0,0.0,0.0,0.0,0.0,0.0,0.0,0.0,0.0,0.0,0.0,0.0,0.0,0.0,-3.2883,-3.3368,-3.3919,-3.4333,-3.4736,-3.5124,-3.5433,-3.5666,-3.579,-3.5755,-3.565,0.0,0.0,0.0,0.0,0.0,0.0,0.0,0.0,0.0,0.0,0.0,0.0,0.0,0.0,0.0,0.0,0.0,0.0,0.0,0.0,0.0,0.0,0.0,0.0,0.0,0.0,0.0,0.0,0.0,0.0,0.0,0.0,0.0,0.0,0.0,0.0,0.0,0.0,-4.0489,-4.0489,-4.0489,-4.0549,-4.0607,0.0,0.0,0.0,0.0,0.0,0.0,-4.1007,-4.1056,-4.1109,-4.1097,-4.1103,-4.111,-4.1093,-4.0898,-4.0776,-4.0752,-4.0545,-4.0426,-4.0407,-3.974,-3.9388,-3.9228,-3.8568,-3.8202,-3.8125,-3.8695,-3.8866,-3.8699,-3.7945,-3.7414,-3.7087,-3.7043,-3.6432,-3.5654,0.0,0.0,0.0,0.0,0.0,0.0,0.0,0.0,0.0,0.0,0.0,0.0,0.0,0.0,0.0,0.0,0.0,0.0,0.0,0.0,0.0,0.0,0.0,0.0,0.0,0.0,0.0,-3.1391,-3.1793,-3.2378,-3.3153,-3.3578,-3.4074,-3.4642,-3.5051,-3.5445,-3.5794,-3.5798,-3.5749,-3.566,0.0,0.0,0.0,0.0,0.0,0.0,0.0,0.0,0.0,0.0,0.0,0.0,0.0,0.0,0.0,0.0,0.0,0.0,0.0,0.0,0.0,0.0,0.0,0.0,0.0,0.0,0.0,0.0,0.0,0.0,0.0,0.0,0.0,0.0,0.0,0.0,0.0,0.0,0.0,-4.0489,-4.0573,0.0,0.0,0.0,0.0,-4.0807,-4.0926,-4.1003,-4.1006,-4.105,-4.1105,-4.1108,-4.1103,-4.1091,-4.1094,-4.0349,-3.9932,-3.9861,-3.9025,-3.8629,-3.8622,-3.8532,-3.8438,-3.8355,-3.8255,-3.8143,-3.8001,-3.7973,-3.792,-3.784,-3.7604,-3.6995,-3.6234,-3.6052,-3.5461,-3.4783,0.0,0.0,0.0,0.0,0.0,0.0,0.0,0.0,0.0,0.0,0.0,0.0,0.0,0.0,0.0,0.0,0.0,0.0,0.0,0.0,0.0,0.0,0.0,0.0,0.0,0.0,-2.9157,-2.9756,-3.0425,-3.1117,-3.19,-3.2531,-3.3174,-3.3852,-3.4373,-3.4883,-3.5301,-3.565,-3.5793,-3.5756,-3.565,-3.5523,0.0,0.0,0.0,0.0,0.0,0.0,0.0,0.0,0.0,0.0,0.0,0.0,0.0,0.0,0.0,0.0,0.0,0.0,0.0,0.0,0.0,0.0,0.0,0.0,0.0,0.0,0.0,0.0,0.0,0.0,0.0,0.0,0.0,0.0,0.0,0.0,0.0,-4.0489,-4.0573,0.0,-4.0607,-4.0688,-4.0537,-4.0059,-4.0111,-3.9918,-3.9351,-3.9399,-3.9451,-3.9496,-3.9483,-3.949,-3.9492,-3.9215,-3.9032,-3.8963,-3.8643,-3.8477,-3.8429,-3.7821,-3.7529,-3.7424,-3.6798,-3.6472,-3.6386,-3.6266,-3.6498,-3.6835,-3.6159,-3.5647,-3.5302,-3.5162,-3.4889,-3.4561,0.0,0.0,0.0,0.0,0.0,0.0,0.0,0.0,0.0,0.0,0.0,0.0,0.0,0.0,0.0,0.0,0.0,0.0,0.0,0.0,0.0,0.0,0.0,0.0,0.0,-2.6777,-2.7385,-2.8008,-2.876,-2.9589,-3.0423,-3.1165,-3.1966,-3.2781,-3.3453,-3.407,-3.4598,-3.5156,-3.5542,-3.5759,-3.5747,-3.5838,-3.6093,0.0,0.0,0.0,0.0,0.0,0.0,0.0,0.0,0.0,0.0,0.0,0.0,0.0,0.0,0.0,0.0,0.0,0.0,0.0,0.0,0.0,0.0,0.0,0.0,0.0,0.0,0.0,0.0,0.0,0.0,0.0,0.0,0.0,0.0,0.0,-4.0499,-4.0511,-4.0292,-4.0164,-4.0202,-3.9966,-3.9642,-3.9187,-3.9228,-3.9007,-3.8422,-3.8458,-3.8514,-3.8559,-3.8584,-3.8592,-3.8591,-3.8316,-3.8133,-3.8056,-3.7756,-3.759,-3.7507,-3.6923,-3.66,-3.6491,-3.5852,-3.5534,-3.546,-3.5324,-3.5553,-3.5888,-3.5191,-3.4888,-3.4788,-3.4687,-3.4602,-3.4495,0.0,0.0,0.0,0.0,0.0,0.0,0.0,0.0,0.0,0.0,0.0,0.0,0.0,0.0,0.0,0.0,0.0,0.0,0.0,0.0,0.0,0.0,0.0,0.0,-2.4249,-2.4885,-2.5534,-2.6189,-2.6886,-2.7704,-2.8728,-2.9513,-3.0436,-3.1443,-3.2261,-3.2993,-3.3677,-3.4281,-3.4967,-3.5647,-3.5759,-3.6259,-3.7053,0.0,0.0,0.0,0.0,0.0,0.0,0.0,0.0,0.0,0.0,0.0,0.0,0.0,0.0,0.0,0.0,0.0,0.0,0.0,0.0,0.0,0.0,0.0,0.0,0.0,0.0,0.0,0.0,0.0,0.0,0.0,0.0,0.0,-4.0381,-4.0449,-4.0482,-4.0463,-3.9765,-3.9307,-3.9359,-3.8608,-3.8129,-3.8237,-3.8315,-3.8346,-3.8323,-3.8394,-3.8417,-3.8414,-3.8485,-3.8515,-3.8529,-3.767,-3.7231,-3.716,-3.6304,-3.5858,-3.5791,-3.5801,-3.5718,-3.5596,-3.5534,-3.5463,-3.5398,-3.5258,-3.516,-3.5075,-3.487,-3.4791,-3.4788,-3.4645,-3.4539,-3.4495,0.0,0.0,0.0,0.0,0.0,0.0,0.0,0.0,0.0,0.0,0.0,0.0,0.0,0.0,0.0,0.0,0.0,0.0,0.0,0.0,0.0,0.0,0.0,0.0,-2.1537,-2.2311,-2.3018,-2.3709,-2.4637,-2.5556,-2.6373,-2.7368,-2.8388,-2.9383,-3.0308,-3.1199,-3.2012,-3.2756,-3.3431,-3.4124,-3.5162,-3.5769,-3.6229,0.0,0.0,0.0,0.0,0.0,0.0,0.0,0.0,0.0,0.0,0.0,0.0,0.0,0.0,0.0,0.0,0.0,0.0,0.0,0.0,0.0,0.0,0.0,0.0,0.0,0.0,0.0,0.0,0.0,0.0,0.0,0.0,-4.0157,-4.0252,-4.0307,-4.0166,-3.9621,-3.9349,-3.9027,-3.851,-3.8247,-3.7892,-3.7385,-3.7423,-3.7203,-3.6618,-3.664,-3.6696,-3.6687,-3.6706,-3.6717,-3.6716,-3.648,-3.6352,-3.6337,-3.6041,-3.5866,-3.5803,-3.5745,-3.5679,-3.5593,-3.5521,-3.5435,-3.5308,-3.5174,-3.5072,-3.4945,-3.4851,-3.4791,-3.4768,-3.4583,-3.445,-3.434,0.0,0.0,0.0,0.0,0.0,0.0,0.0,0.0,0.0,0.0,0.0,0.0,0.0,0.0,0.0,0.0,0.0,0.0,0.0,0.0,0.0,0.0,0.0,-1.8645,-1.9173,-1.9857,-2.0549,-2.1241,-2.2116,-2.2976,-2.3733,-2.4819,-2.584,-2.6807,-2.786,-2.8794,-2.9674,-3.058,-3.1352,-3.2121,-3.3285,-3.4551,-3.591,-3.703,-3.7943,-3.878,-3.9803,-4.0449,-4.0781,-4.0858,0.0,0.0,0.0,0.0,0.0,0.0,0.0,0.0,0.0,0.0,0.0,0.0,0.0,0.0,0.0,0.0,0.0,0.0,0.0,0.0,0.0,0.0,0.0,0.0,-3.9669,-3.9504,-3.9565,-3.968,-3.9447,-3.8673,-3.8319,-3.7978,-3.7564,-3.7237,-3.6895,-3.6492,-3.6512,-3.6351,-3.5917,-3.5933,-3.5966,-3.6001,-3.6003,-3.5995,-3.5996,-3.5993,-3.6001,-3.599,-3.5924,-3.5859,-3.5795,-3.5736,-3.5658,0.0,-3.5496,-3.5407,-3.5277,-3.516,-3.481,0.0,0.0,0.0,0.0,0.0,-3.418,-3.379,0.0,0.0,0.0,0.0,0.0,0.0,0.0,0.0,0.0,0.0,0.0,0.0,0.0,0.0,0.0,0.0,0.0,0.0,0.0,0.0,0.0,-1.535,-1.5808,-1.6347,-1.688,-1.7368,-1.7976,-1.8701,-1.9392,-2.0134,-2.0871,-2.1934,-2.2888,-2.3747,-2.4927,-2.5877,-2.6777,-2.7767,-2.8683,-2.954,-3.0338,-3.2602,-3.5509,-3.5925,-3.7139,-3.8644,-3.8839,-3.9466,-4.0213,-4.0283,0.0,0.0,0.0,0.0,0.0,0.0,0.0,0.0,0.0,0.0,0.0,0.0,0.0,0.0,0.0,0.0,0.0,0.0,0.0,0.0,0.0,0.0,0.0,0.0,-3.9037,-3.8556,-3.8525,-3.8594,-3.8383,-3.7655,-3.7028,-3.6642,-3.657,-3.5978,-3.5608,-3.5678,-3.5757,-3.5829,-3.5898,0.0,0.0,0.0,0.0,-3.5993,-3.5996,-3.5994,-3.6003,-3.6001,-3.5929,-3.5853,-3.5791,-3.5727,-3.5609,-3.5456,-3.5316,-3.5182,-3.5009,-3.4859,-3.4317,-3.362,-3.4242,-3.4465,-3.4363,-3.4192,-3.3612,-3.2929,0.0,0.0,0.0,0.0,0.0,0.0,0.0,0.0,0.0,0.0,0.0,0.0,0.0,0.0,0.0,0.0,0.0,0.0,0.0,0.0,-1.3142,-1.3208,-1.3548,-1.3894,-1.4181,-1.4743,-1.523,-1.5634,-1.6519,-1.7184,-1.761,-1.8623,-1.9479,-2.025,-2.1256,-2.2216,-2.3057,-2.3973,-2.4885,-2.5734,-2.6582,-2.9321,-3.2965,-3.4208,-3.5071,-3.5757,-3.6748,-3.7364,-3.7712,-3.7847,-3.7954,-3.8176,-3.8945,0.0,0.0,0.0,0.0,0.0,0.0,0.0,0.0,0.0,0.0,0.0,0.0,0.0,0.0,0.0,0.0,0.0,0.0,0.0,0.0,-3.9551,-3.8855,-3.815,-3.7555,-3.6944,-3.6615,-3.6722,-3.6621,-3.6323,-3.5782,-3.5605,-3.5553,-3.5607,-3.5728,-3.581,-3.5818,-3.5872,0.0,-3.6005,-3.6007,-3.6005,-3.5995,-3.5996,-3.6007,-3.6001,0.0,0.0,-3.5791,-3.5727,-3.528,-3.455,-3.4469,-3.3958,-3.32,-3.3124,-3.2878,-3.2581,-3.2617,-3.2591,-3.2505,-3.2422,-3.2199,-3.1978,0.0,0.0,0.0,0.0,0.0,0.0,0.0,0.0,0.0,0.0,0.0,0.0,0.0,0.0,0.0,0.0,0.0,0.0,0.0,-1.1323,-1.1316,-1.1081,-1.1366,-1.1575,-1.1636,-1.2145,-1.2576,-1.2926,-1.3569,-1.4119,-1.4442,-1.5236,-1.5876,-1.6378,-1.714,-1.7855,-1.8605,-1.9353,-2.0202,-2.1033,-2.202,-2.3983,-2.6678,-3.0108,-3.2011,-3.3024,-3.4022,-3.489,-3.5655,-3.5957,-3.6213,-3.6535,-3.7118,-3.7348,-3.7498,0.0,0.0,0.0,0.0,0.0,0.0,0.0,0.0,0.0,0.0,0.0,0.0,0.0,0.0,-3.9298,0.0,0.0,-3.9167,-3.8756,-3.8009,-3.7237,-3.6508,-3.5728,-3.5313,-3.5665,-3.5755,-3.5668,-3.5377,-3.5441,-3.5515,-3.5562,-3.5629,-3.5718,-3.5795,-3.5827,-3.5883,-3.5948,-3.5978,-3.5999,-3.5991,-3.5996,-3.5991,-3.5994,-3.5494,-3.5229,-3.5189,-3.4686,-3.4178,-3.3693,-3.3583,-3.3215,-3.2669,-3.2074,-3.1767,-3.1582,-3.1015,-3.1289,-3.1974,-3.189,-3.1541,-3.1098,0.0,0.0,0.0,0.0,0.0,0.0,0.0,0.0,0.0,0.0,0.0,0.0,0.0,0.0,0.0,0.0,0.0,0.0,0.0,-0.9836,-0.9604,-0.9291,-0.9367,-0.9357,-0.9341,-0.9712,-1.0002,-1.0215,-1.0587,-1.0947,-1.1298,-1.1694,-1.2104,-1.2374,-1.2828,-1.3346,-1.3785,-1.4433,-1.5121,-1.5909,-1.6973,-1.8058,-1.9493,-2.4044,-2.744,-2.9779,-3.0576,-3.1747,-3.2962,-3.351,-3.397,-3.4407,-3.4897,-3.5162,-3.5407,-3.5705,-3.5919,0.0,0.0,0.0,0.0,0.0,0.0,0.0,0.0,0.0,-3.7774,-3.8442,-3.8535,-3.8507,-3.8507,-3.8507,-3.8285,-3.7637,-3.6885,-3.6177,-3.5597,-3.4838,-3.4454,-3.4772,-3.4926,-3.507,-3.5174,-3.5354,-3.5468,-3.5489,-3.5562,-3.5639,-3.5773,-3.5784,-3.5827,-3.5903,-3.5947,-3.5913,-3.5749,-3.5741,-3.5662,-3.5498,-3.4726,-3.435,-3.4322,-3.3546,-3.3073,-3.2828,-3.2499,-3.2305,-3.2123,-3.1214,-3.0808,-3.0659,-2.9813,-3.0294,-3.1467,-3.134,-3.0865,-3.022,0.0,0.0,0.0,0.0,0.0,0.0,0.0,0.0,0.0,0.0,0.0,0.0,0.0,0.0,0.0,0.0,0.0,0.0,-0.8932,-0.8542,-0.8232,-0.8008,-0.7698,-0.7468,-0.7464,-0.7528,-0.7516,-0.7516,-0.774,-0.7888,-0.796,-0.8005,-0.8134,-0.8355,-0.8538,-0.8728,-0.9,-0.9647,-1.0137,-1.0532,-1.1501,-1.2551,-1.3793,-1.5562,-1.9915,-2.5199,-2.6144,-2.7252,-2.8365,-2.9151,-2.9741,-3.0406,-3.1803,-3.2438,-3.2869,-3.4004,0.0,-3.4746,-3.497,-3.5271,-3.5579,-3.5757,-3.5806,-3.5891,0.0,0.0,-3.6182,-3.6333,-3.6351,-3.6351,-3.6351,-3.6351,-3.6344,-3.6311,-3.5632,-3.5119,-3.5225,-3.4548,-3.4148,-3.4431,-3.4672,-3.4926,-3.5088,-3.5242,-3.5373,-3.5488,-3.5553,-3.5635,-3.5718,-3.5765,-3.583,-3.5905,-3.5908,-3.5572,-3.4845,-3.4855,-3.4453,-3.3685,-3.3581,-3.3497,-3.344,-3.3285,-3.2744,-3.1892,-3.0913,-3.0457,-3.0369,-3.0082,-2.9922,-2.9831,-2.9588,-2.9526,-2.9611,-2.9604,-2.944,-2.9259,0.0,0.0,0.0,0.0,0.0,0.0,0.0,0.0,0.0,0.0,0.0,0.0,0.0,0.0,0.0,0.0,0.0,0.0,-0.8016,-0.7476,-0.6938,-0.6398,-0.6086,-0.5774,-0.5384,-0.5458,-0.5378,-0.514,-0.5209,-0.5203,-0.5046,-0.4804,-0.4719,-0.4637,-0.4466,-0.4375,-0.4292,-0.4586,-0.4952,-0.5397,-0.6207,-0.7315,-0.8494,-0.9868,-1.2764,-1.6661,-2.0545,-2.2868,0.0,0.0,-2.6276,-2.7261,-2.8404,-2.9127,-2.9745,-3.074,-3.1266,0.0,-3.229,-3.2751,-3.3055,0.0,-3.3454,-3.373,-3.4311,-3.4587,-3.4878,-3.5361,-3.5515,-3.5548,-3.5648,-3.5648,-3.5535,0.0,-3.4794,-3.4502,-3.4126,-3.3927,-3.3842,-3.4074,-3.4274,-3.4524,-3.4889,-3.5073,-3.5229,-3.5324,-3.5422,-3.5509,-3.5574,-3.5679,-3.5765,-3.5834,-3.5392,-3.4973,-3.4644,-3.4178,-3.3766,-3.3398,-3.2897,-3.2635,-3.2577,-3.202,-3.1499,-3.1011,-3.0484,-3.0199,-3.0098,-2.9926,-2.979,-2.9682,-2.9551,-2.9392,-2.9246,-2.9243,-2.9152,-2.904,0.0,0.0,0.0,0.0,0.0,0.0,0.0,0.0,0.0,0.0,0.0,0.0,0.0,0.0,0.0,0.0,0.0,0.0,0.0,-0.671,-0.5941,-0.5165,-0.4774,0.0,-0.3756,-0.3759,-0.3522,-0.3051,-0.2888,-0.265,-0.2338,-0.1869,-0.1479,-0.1166,-0.0776,-0.0388,-0.0077,-0.0155,-0.0309,-0.0694,-0.1463,-0.2534,-0.3755,-0.5123,-0.6855,-0.9348,-1.529,-1.852,0.0,0.0,-2.2738,-2.3939,-2.5021,-2.5873,-2.6686,-2.7485,-2.8249,-2.9029,-2.9878,0.0,0.0,-3.1031,-3.1333,-3.1765,-3.2557,-3.2949,-3.3301,-3.3988,-3.4164,-3.4234,-3.4424,-3.4424,-3.428,-3.3809,-3.3766,-3.3665,-3.3226,-3.3291,-3.3484,-3.3707,-3.3868,-3.4124,-3.4517,-3.483,-3.502,-3.5143,-3.5239,-3.536,-3.5432,-3.557,-3.557,-3.5379,-3.4847,-3.4322,-3.3887,-3.3298,-3.2892,-3.2673,-3.2049,-3.1743,-3.1718,-3.1017,-3.0634,-3.049,-3.0367,-3.0221,-3.0094,-2.9959,-2.9827,-2.9683,-2.9531,-2.9351,-2.92,-2.9156,-2.9067,-2.897,0.0,0.0,0.0,0.0,0.0,0.0,0.0,0.0,0.0,0.0,0.0,0.0,0.0,0.0,0.0,0.0,0.0,0.0,0.0,-0.6244,-0.5392,-0.4776,-0.3917,-0.3292,-0.2824,-0.2273,-0.1803,-0.141,-0.0705,-0.0235,0.0234,0.1093,0.164,0.2105,0.2496,0.296,0.3498,0.3341,0.3262,0.3184,0.2564,0.1553,0.031,-0.0932,-0.2556,-0.4923,-1.0737,0.0,0.0,0.0,-1.8889,-2.0135,-2.168,-2.2841,0.0,-2.4736,-2.6021,-2.7325,0.0,0.0,-2.9112,-2.9702,-3.0051,-3.0394,-3.0874,-3.1089,-3.1261,-3.1565,-3.1603,-3.1694,-3.1946,-3.2,-3.209,-3.2318,-3.2353,-3.2472,-3.2763,-3.2827,-3.297,-3.3291,-3.3484,-3.3698,0.0,-3.4386,-3.479,-3.5001,-3.5072,-3.5171,-3.5296,-3.543,-3.5148,-3.4369,-3.4371,-3.3666,-3.2084,-3.204,-3.1648,-3.088,-3.0857,-3.0837,-3.0838,-3.0734,-3.0637,-3.0491,-3.0364,-3.0228,-3.0094,-2.9959,-2.9827,-2.9664,-2.9472,-2.931,-2.9178,-2.9044,-2.8952,-2.8887,0.0,0.0,0.0,0.0,0.0,0.0,0.0,0.0,0.0,0.0,0.0,0.0,0.0,0.0,0.0,0.0,0.0,0.0,0.0,-0.622,-0.5085,-0.4304,-0.3448,-0.2589,-0.1806,-0.1335,-0.0628,0.0157,0.0862,0.1409,0.1955,0.2813,0.3517,0.4059,0.4758,0.5378,0.5838,0.606,0.606,0.5909,0.5366,0.4511,0.3422,0.2102,0.0466,-0.155,0.0,0.0,0.0,0.0,-1.5169,-1.685,-1.8309,0.0,-2.0938,-2.2693,-2.4059,-2.508,-2.5891,0.0,-2.722,-2.7911,-2.8435,-2.8886,-2.9399,-2.9708,-2.9966,-3.0236,-3.046,-3.064,-3.0858,-3.105,-3.1223,-3.1452,-3.1603,-3.177,-3.2021,-3.2248,-3.2504,-3.2798,-3.297,0.0,0.0,0.0,0.0,-3.4668,-3.4812,-3.4963,-3.5089,-3.4718,-3.4408,-3.418,-3.3145,-3.2377,-3.1875,-3.1384,-3.1012,-3.0806,-3.0795,-3.0798,-3.0799,-3.0721,-3.0646,-3.0554,-3.0481,-3.0367,-3.0226,-3.0053,-2.9857,-2.9682,-2.9492,-2.9289,-2.9056,-2.8415,-2.8077,-2.7991,0.0,0.0,0.0,0.0,0.0,0.0,0.0,0.0,0.0,0.0,0.0,0.0,0.0,0.0,0.0,0.0,0.0,0.0,0.0,0.0,-0.5207,-0.4226,-0.3292,-0.2354,-0.1335,-0.0628,0.0236,0.1192,0.1985,0.2789,0.3532,0.4492,0.5286,0.6,0.6792,0.7391,0.788,0.8185,0.8146,0.7931,0.7468,0.6619,0.5535,0.4368,0.273,0.0,0.0,0.0,0.0,0.0,0.0,-1.3502,-1.5113,-1.6865,-1.8649,-2.059,-2.1774,-2.2635,-2.3638,-2.4453,-2.5149,-2.5991,-2.6637,-2.7229,-2.7826,-2.8261,-2.8638,-2.9009,-2.9313,-2.9536,-2.9827,-3.0074,-3.0344,-3.0608,-3.0811,-3.105,-3.1338,-3.162,-3.1877,-3.2197,-3.2401,-3.2666,0.0,0.0,0.0,-3.4293,-3.4502,-3.4691,-3.485,-3.422,-3.3764,-3.3547,-3.2295,-3.1526,-3.1294,-3.0845,-3.0685,-3.0804,-3.0806,-3.0801,-3.0792,-3.0758,-3.0706,-3.0625,-3.0558,-3.0447,-3.0292,-3.0109,-2.9905,-2.9644,-2.9175,-2.8862,-2.8574,-2.7596,-2.7128,-2.7061,0.0,0.0,0.0,0.0,0.0,0.0,0.0,0.0,0.0,0.0,0.0,0.0,0.0,0.0,0.0,0.0,0.0,0.0,0.0,0.0,0.0,-0.4553,-0.345,-0.2356,-0.1335,-0.0236,0.0716,0.1706,0.2763,0.3781,0.4701,0.5862,0.6854,0.7753,0.85,0.9133,0.9749,0.9744,0.9617,0.9337,0.8875,0.8021,0.6861,0.577,0.0,0.0,0.0,0.0,0.0,0.0,0.0,0.0,0.0,-1.4561,-1.689,-1.8312,-1.9249,-2.0158,-2.1475,-2.225,-2.2971,-2.4006,-2.4829,-2.5507,-2.614,-2.6695,-2.7223,-2.7773,-2.8064,-2.8336,0.0,0.0,-2.9284,-2.9729,-2.9935,-3.0208,-3.0666,-3.0845,-3.1083,0.0,0.0,0.0,0.0,0.0,0.0,-3.3876,0.0,-3.434,-3.4561,-3.3899,-3.3204,-3.2492,-3.1779,-3.1078,-3.0394,-3.0452,-3.0587,-3.0794,-3.0781,-3.079,-3.0801,-3.0808,-3.0771,-3.0703,-3.0634,-3.0482,-3.0304,-3.0161,-2.9915,-2.9549,-2.8596,-2.8047,-2.7708,-2.6626,-2.62,-2.6149,0.0,0.0,0.0,0.0,0.0,0.0,0.0,0.0,0.0,0.0,0.0,0.0,0.0,0.0,0.0,0.0,0.0,0.0,0.0,0.0,0.0,0.0,0.0,0.0,0.0,0.0,0.0,0.0,0.0,0.4091,0.4946,0.6114,0.7109,0.0,0.8832,0.9461,0.9908,1.0225,1.0169,0.9798,0.0,0.8535,0.7476,0.0,0.0,0.0,0.0,0.0,0.0,0.0,0.0,0.0,0.0,-1.3034,-1.453,-1.5713,-1.689,-1.8063,-1.9052,-2.0029,-2.0997,-2.1993,-2.2782,-2.3495,-2.4363,-2.4954,-2.548,-2.6076,-2.6462,-2.6857,0.0,0.0,0.0,-2.8654,-2.9012,0.0,-2.9837,-3.0097,0.0,-3.0828,0.0,-3.1414,-3.1841,-3.2109,0.0,0.0,-3.3476,-3.3947,-3.4148,-3.3,-3.2292,-3.2203,-3.0968,-3.024,-3.0095,-3.0325,-3.05,-3.0658,-3.0706,-3.0758,-3.079,-3.08,-3.0799,-3.0778,-3.0698,-3.0585,-3.0419,-3.0254,-2.9679,-2.8893,-2.8409,-2.7675,-2.6801,-2.5783,-2.5316,-2.5126,0.0,0.0,0.0,0.0,0.0,0.0,0.0,0.0,0.0,0.0,0.0,0.0,0.0,0.0,0.0,0.0,0.0,0.0,0.0,0.0,0.0,0.0,0.0,0.0,0.0,0.0,0.0,0.0,0.0,0.0,0.0,0.6034,0.7144,0.8163,0.8928,0.9554,0.997,0.0,0.0,0.0,0.0,0.0,0.0,0.0,0.0,0.0,0.0,0.0,0.0,0.0,0.0,-0.8893,-1.026,-1.1366,-1.2464,-1.3693,0.0,-1.5948,-1.6927,-1.7948,-1.8951,-1.9933,-2.0819,-2.1634,-2.2493,-2.3251,-2.3923,-2.4557,-2.5009,0.0,-2.604,0.0,0.0,0.0,0.0,0.0,-2.8873,-2.9241,-2.9585,0.0,-3.0377,0.0,-3.1128,-3.1397,-3.1714,0.0,-3.2858,-3.332,-3.3131,-3.2158,-3.1514,-3.1355,-3.0302,-2.9803,-2.9992,-3.0209,-3.0372,-3.0509,-3.0618,-3.0695,-3.0758,-3.0793,-3.08,-3.0799,0.0,-3.0418,-2.9959,-2.9798,-2.9104,-2.8116,-2.7447,-2.6767,-2.6036,-2.5004,-2.4523,-2.4334,0.0,0.0,0.0,0.0,0.0,0.0,0.0,0.0,0.0,0.0,0.0,0.0,0.0,0.0,0.0,0.0,0.0,0.0,0.0,0.0,0.0,0.0,0.0,0.0,0.0,0.0,0.0,0.0,0.0,0.0,0.0,0.0,0.0,0.0,0.0,0.0,0.0,0.0,0.0,0.0,0.0,0.0,0.0,0.0,0.0,0.0,0.0,0.0,0.0,0.0,-0.6083,-0.7617,-0.8765,-0.982,-1.0864,-1.1977,-1.2997,-1.4011,-1.5067,-1.6053,-1.7023,-1.7988,-1.8916,-1.9836,-2.0621,-2.1581,-2.2457,-2.305,0.0,-2.4124,-2.4824,-2.5259,-2.5741,-2.6347,0.0,-2.7282,-2.7815,-2.8255,-2.867,-2.918,-2.9601,-2.9995,-3.0402,-3.0707,-3.1044,-3.1432,-3.2177,-3.2398,-3.1923,-3.1411,-3.0833,-3.0208,-2.9704,-2.9608,-2.9931,-3.008,-3.0209,-3.0351,-3.0492,-3.0603,-3.0695,-3.0755,-3.0793,-3.0799,0.0,0.0,-2.9288,-2.9052,-2.8334,-2.7271,-2.6299,-2.5735,-2.5338,-2.4372,-2.3935,-2.3825,0.0,0.0,0.0,0.0,0.0,0.0,0.0,0.0,0.0,0.0,0.0,0.0,0.0,0.0,0.0,0.0,0.0,0.0,0.0,0.0,0.0,0.0,0.0,0.0,0.0,0.0,0.0,0.0,0.0,0.0,0.0,0.0,0.0,0.0,0.0,0.0,0.0,0.0,0.0,0.0,0.0,0.0,0.0,0.0,0.0,0.0,0.0,0.0,0.0,0.0,-0.5938,-0.6942,-0.7944,-0.9008,-0.9916,-1.0657,-1.17,-1.2732,-1.3448,-1.4307,-1.5305,-1.6428,-1.7257,-1.8133,-1.9125,-1.9998,0.0,0.0,-2.2015,-2.264,-2.3314,-2.3949,-2.4526,-2.5134,0.0,0.0,0.0,0.0,-2.775,0.0,0.0,0.0,0.0,0.0,0.0,0.0,0.0,-3.0785,-3.137,-3.0981,-3.0207,-2.9093,-2.9156,-2.9295,-2.9589,-2.977,-2.9965,-3.0144,-3.0283,-3.0443,-3.0622,-3.0686,-3.0742,-3.0753,-3.0035,0.0,-2.9316,-2.8528,-2.7586,-2.6623,-2.6219,-2.549,-2.4644,-2.4229,-2.4037,-2.3935,0.0,0.0,0.0,0.0,0.0,0.0,0.0,0.0,0.0,0.0,0.0,0.0,0.0,0.0,0.0,0.0,0.0,0.0,0.0,0.0,0.0,0.0,0.0,0.0,0.0,0.0,0.0,0.0,0.0,0.0,0.0,0.0,0.0,0.0,0.0,0.0,0.0,0.0,0.0,0.0,0.0,0.0,0.0,0.0,0.0,0.0,0.0,0.0,0.0,0.0,-0.6405,-0.7026,-0.7714,-0.8403,-0.9089,-0.9846,-1.0738,-1.17,-1.2365,-1.331,-1.425,-1.5188,-1.6026,-1.6932,-1.7804,0.0,0.0,0.0,-2.0835,-2.153,-2.2224,0.0,0.0,0.0,0.0,0.0,0.0,0.0,0.0,0.0,0.0,0.0,0.0,0.0,0.0,0.0,0.0,-2.9707,-3.0144,-2.9528,-2.8989,-2.8515,-2.8761,-2.9012,-2.923,-2.9474,-2.9717,-2.995,-3.0075,-3.0253,-3.0462,-3.056,-3.0405,-3.0045,-2.9661,0.0,-2.8064,-2.7579,-2.6808,-2.5919,-2.5707,-2.5251,-2.4689,-2.4487,-2.4353,-2.4247,0.0,0.0,0.0,0.0,0.0,0.0,0.0,0.0,0.0,0.0,0.0,0.0,0.0,0.0,0.0,0.0,0.0,0.0,0.0,0.0,0.0,0.0,0.0,0.0,0.0,0.0,0.0,0.0,0.0,0.0,0.0,0.0,0.0,0.0,0.0,0.0,0.0,0.0,0.0,0.0,0.0,0.0,0.0,0.0,0.0,0.0,0.0,0.0,0.0,0.0,-0.7176,-0.7561,-0.8016,-0.8322,-0.8703,-0.9392,-1.0143,-1.0887,-1.1558,-1.2439,-1.339,-1.4129,-1.4982,-1.5824,-1.6664,-1.7483,0.0,0.0,-1.9868,-2.0478,-2.1227,0.0,-2.2543,0.0,0.0,0.0,0.0,0.0,0.0,0.0,0.0,0.0,0.0,0.0,0.0,0.0,0.0,0.0,-2.883,-2.8094,-2.7794,-2.802,-2.8334,-2.8633,-2.8879,-2.9123,-2.9414,-2.9663,-2.9817,-3.0022,-3.0203,-3.0177,-2.9859,-2.9337,-2.9047,0.0,0.0,-2.6649,-2.6092,-2.542,-2.5281,-2.5137,-2.4972,-2.4841,-2.4714,-2.4624,0.0,0.0,0.0,0.0,0.0,0.0,0.0,0.0,0.0,0.0,0.0,0.0,0.0,0.0,0.0,0.0,0.0,0.0,0.0,0.0,0.0,0.0,0.0,0.0,0.0,0.0,0.0,0.0,0.0,0.0,0.0,0.0,0.0,0.0,0.0,0.0,0.0,0.0,0.0,0.0,0.0,0.0,0.0,0.0,0.0,0.0,0.0,0.0,0.0,0.0,0.0,-0.8627,-0.9013,-0.9084,-0.9003,-0.9468,0.0,0.0,-1.0812,-1.1484,-1.2298,-1.3119,-1.3912,-1.4768,-1.5824,0.0,0.0,-1.8352,-1.8864,-1.9435,-2.0322,-2.1083,0.0,0.0,0.0,0.0,0.0,0.0,0.0,0.0,0.0,0.0,0.0,0.0,0.0,0.0,0.0,0.0,-2.7909,-2.7316,-2.7144,-2.747,-2.7794,-2.812,-2.8448,-2.8725,-2.9007,-2.9251,-2.9456,-2.9677,-2.9905,-2.9321,-2.9105,-2.9137,-2.7679,0.0,0.0,-2.6035,-2.5627,-2.5481,-2.5415,-2.5331,-2.5252,-2.5114,-2.5011,-2.4954,0.0,0.0,0.0,0.0,0.0,0.0,0.0,0.0,0.0,0.0,0.0,0.0,0.0,0.0,0.0,0.0,0.0,0.0,0.0,0.0,0.0,0.0,0.0,0.0,0.0,0.0,0.0,0.0,0.0,0.0,0.0,0.0,0.0,0.0,0.0,0.0,0.0,0.0,0.0,0.0,0.0,0.0,0.0,0.0,0.0,0.0,0.0,0.0,0.0,0.0,0.0,0.0,-1.0067,-1.0137,0.0,0.0,-1.0218,-1.0594,-1.1037,-1.1632,-1.2305,-1.3046,-1.3618,-1.4167,-1.5013,0.0,-1.5973,-1.6908,-1.7795,-1.8583,-1.9426,-2.0317,-2.1071,0.0,0.0,0.0,0.0,0.0,0.0,0.0,0.0,0.0,0.0,0.0,0.0,0.0,0.0,0.0,-2.6162,-2.643,-2.6724,-2.6971,-2.7303,-2.7607,-2.7851,-2.8156,-2.8471,-2.8772,-2.9023,-2.9038,-2.8818,-2.8714,-2.8235,-2.7412,-2.6869,0.0,0.0,-2.5662,-2.5519,-2.5488,-2.5427,-2.5323,-2.5219,-2.5084,-2.4895,-2.4667,0.0,0.0,0.0,0.0,0.0,0.0,0.0,0.0,0.0,0.0,0.0,0.0,0.0,0.0,0.0,0.0,0.0,0.0,0.0,0.0,0.0,0.0,0.0,0.0,0.0,0.0,0.0,0.0,0.0,0.0,0.0,0.0,0.0,0.0,0.0,0.0,0.0,0.0,0.0,0.0,0.0,0.0,0.0,0.0,0.0,0.0,0.0,0.0,0.0,0.0,0.0,0.0,0.0,0.0,0.0,0.0,-1.0588,-1.0887,-1.1335,-1.1855,-1.2425,-1.2933,-1.3375,-1.3877,0.0,0.0,-1.5231,-1.6109,-1.6963,-1.7808,-1.867,-1.9628,-2.0467,0.0,0.0,0.0,0.0,0.0,0.0,0.0,0.0,0.0,0.0,0.0,0.0,0.0,0.0,0.0,0.0,-2.5519,-2.6085,-2.6487,-2.6791,-2.7083,-2.7313,-2.7648,-2.784,-2.7957,-2.8209,-2.8072,-2.7579,-2.7605,-2.7094,-2.6151,0.0,0.0,0.0,-2.5356,-2.5379,-2.5366,-2.5254,-2.5089,-2.4876,-2.4612,-2.4234,-2.3783,0.0,0.0,0.0,0.0,0.0,0.0,0.0,0.0,0.0,0.0,0.0,0.0,0.0,0.0,0.0,0.0,0.0,0.0,0.0,0.0,0.0,0.0,0.0,0.0,0.0,0.0,0.0,0.0,0.0,0.0,0.0,0.0,0.0,0.0,0.0,0.0,0.0,0.0,0.0,0.0,0.0,0.0,0.0,0.0,0.0,0.0,0.0,0.0,0.0,0.0,0.0,0.0,0.0,0.0,0.0,0.0,-1.126,-1.1409,-1.1632,-1.2003,-1.2378,-1.2657,-1.3079,-1.3685,0.0,-1.444,-1.4908,-1.6189,-1.6562,-1.7012,-1.8152,-1.8966,-1.9635,-2.0493,0.0,0.0,0.0,0.0,0.0,0.0,0.0,0.0,0.0,0.0,0.0,0.0,0.0,0.0,0.0,-2.4574,-2.5169,-2.5974,-2.6279,-2.6556,-2.6888,-2.7161,-2.7121,-2.6717,-2.6917,-2.6777,-2.6315,-2.5775,-2.5633,0.0,0.0,0.0,0.0,-2.5075,-2.51,-2.5082,-2.4877,-2.4557,-2.4145,-2.3607,-2.2956,-2.2217,0.0,0.0,0.0,0.0,0.0,0.0,0.0,0.0,0.0,0.0,0.0,0.0,0.0,0.0,0.0,0.0,0.0,0.0,0.0,0.0,0.0,0.0,0.0,0.0,0.0,0.0,0.0,0.0,0.0,0.0,0.0,0.0,0.0,0.0,0.0,0.0,0.0,0.0,0.0,0.0,0.0,0.0,0.0,0.0,0.0,0.0,0.0,0.0,0.0,0.0,0.0,0.0,0.0,0.0,0.0,0.0,0.0,0.0,-1.2526,-1.2666,-1.2849,-1.3171,-1.3218,-1.3304,-1.3841,-1.4098,-1.4353,-1.5139,-1.5897,-1.6668,-1.7625,-1.8617,-1.9497,-2.016,-2.0828,0.0,0.0,0.0,0.0,0.0,0.0,0.0,0.0,0.0,0.0,0.0,0.0,0.0,0.0,-2.3937,-2.4533,-2.5362,-2.5701,-2.5994,-2.6262,-2.6573,-2.6482,-2.6087,-2.6324,-2.5932,-2.4992,-2.4974,0.0,0.0,0.0,0.0,0.0,-2.4497,-2.4426,-2.4304,-2.3925,-2.3363,-2.2632,-2.1662,-2.0492,-1.9224,0.0,0.0,0.0,0.0,0.0,0.0,0.0,0.0,0.0,0.0,0.0,0.0,0.0,0.0,0.0,0.0,0.0,0.0,0.0,0.0,0.0,0.0,0.0,0.0,0.0,0.0,0.0,0.0,0.0,0.0,0.0,0.0,0.0,0.0,0.0,0.0,0.0,0.0,0.0,0.0,0.0,0.0,-1.8864,0.0,0.0,0.0,0.0,0.0,0.0,0.0,0.0,0.0,0.0,0.0,0.0,0.0,-1.4214,0.0,0.0,-1.313,-1.3134,-1.3413,-1.3394,0.0,0.0,-1.4048,-1.43,-1.4775,-1.5526,-1.6377,-1.7235,-1.8186,-1.9091,-1.9868,-2.0518,0.0,0.0,0.0,0.0,0.0,0.0,0.0,0.0,0.0,0.0,0.0,0.0,0.0,0.0,-2.3334,-2.3767,-2.442,-2.4997,-2.54,-2.568,-2.5678,-2.5479,-2.5055,-2.5002,-2.4511,-2.3624,-2.3834,0.0,0.0,0.0,0.0,0.0,-2.3798,-2.3587,-2.3292,-2.2647,-2.1756,-2.0689,-1.9198,-1.7555,-1.5789,0.0,0.0,0.0,0.0,0.0,0.0,0.0,0.0,0.0,0.0,0.0,0.0,0.0,0.0,0.0,0.0,0.0,0.0,0.0,0.0,0.0,0.0,0.0,0.0,0.0,0.0,0.0,-2.734,-2.643,-2.5677,-2.5037,0.0,0.0,0.0,0.0,0.0,0.0,0.0,0.0,0.0,0.0,0.0,0.0,0.0,0.0,0.0,0.0,0.0,0.0,0.0,0.0,0.0,0.0,0.0,0.0,0.0,0.0,0.0,0.0,-1.3596,0.0,0.0,0.0,0.0,-1.415,-1.4359,0.0,-1.5088,-1.5508,-1.6058,-1.7123,-1.7771,-1.8561,-1.9717,-2.014,0.0,0.0,0.0,0.0,0.0,0.0,0.0,0.0,0.0,0.0,0.0,0.0,0.0,0.0,-2.2723,-2.2979,-2.3319,-2.4214,-2.4775,-2.5052,-2.4617,-2.4181,-2.3736,-2.3222,-2.2701,-2.2258,-2.2512,0.0,0.0,0.0,0.0,0.0,-2.2981,-2.2606,-2.2063,-2.1105,-1.9825,-1.8303,-1.6323,-1.4195,-1.1981,0.0,0.0,0.0,0.0,0.0,0.0,0.0,0.0,0.0,0.0,0.0,0.0,0.0,0.0,0.0,0.0,0.0,0.0,0.0,0.0,0.0,0.0,0.0,0.0,0.0,0.0,0.0,-2.9638,-2.8864,-2.8292,-2.7801,-2.7035,0.0,0.0,0.0,0.0,0.0,0.0,0.0,0.0,0.0,0.0,0.0,0.0,0.0,0.0,-2.027,-1.953,0.0,0.0,0.0,0.0,0.0,0.0,0.0,0.0,-1.5789,-1.5251,-1.4852,0.0,-1.3869,-1.4047,-1.4056,-1.4056,0.0,-1.4656,-1.4961,-1.5303,0.0,-1.6185,-1.7246,-1.7781,-1.8395,-1.9521,-1.9922,0.0,0.0,0.0,0.0,0.0,0.0,0.0,0.0,0.0,0.0,0.0,0.0,0.0,0.0,-2.2123,-2.2402,-2.2783,-2.3157,-2.3709,-2.4467,-2.3936,-2.348,-2.3106,-2.2619,-2.2132,-2.1688,-2.1895,0.0,0.0,0.0,0.0,-2.2283,-2.1933,-2.1368,-2.0575,-1.9321,-1.772,-1.584,-1.3472,-1.092,-0.827,0.0,0.0,0.0,0.0,0.0,0.0,0.0,0.0,0.0,0.0,0.0,0.0,0.0,0.0,0.0,0.0,0.0,0.0,0.0,0.0,0.0,0.0,0.0,0.0,0.0,0.0,0.0,0.0,0.0,-3.0364,0.0,0.0,0.0,0.0,0.0,0.0,0.0,0.0,0.0,0.0,-2.6912,0.0,0.0,0.0,0.0,0.0,-2.1875,-2.1141,0.0,-2.0398,-1.9955,-1.9497,0.0,0.0,0.0,0.0,-1.6457,-1.5792,-1.5409,-1.4799,-1.425,-1.4443,-1.4403,-1.4419,-1.4715,0.0,0.0,0.0,0.0,-1.6536,-1.7349,-1.7958,-1.8585,-1.9367,-1.9802,0.0,0.0,0.0,0.0,0.0,0.0,0.0,0.0,0.0,0.0,0.0,0.0,0.0,0.0,-2.152,-2.1746,-2.2137,-2.231,-2.27,-2.333,-2.2854,-2.2348,-2.1952,-2.1478,-2.1194,-2.1055,-2.1245,-2.1432,0.0,0.0,0.0,-2.124,-2.0815,-2.0076,-1.9038,-1.7526,-1.5708,-1.3563,-1.0979,-0.828,-0.5549,0.0,0.0,0.0,0.0,0.0,0.0,0.0,0.0,0.0,0.0,0.0,0.0,0.0,0.0,0.0,0.0,0.0,0.0,0.0,0.0,0.0,0.0,0.0,0.0,0.0,0.0,0.0,0.0,0.0,0.0,0.0,0.0,-3.1071,0.0,0.0,0.0,0.0,0.0,0.0,0.0,-2.8862,0.0,0.0,0.0,0.0,0.0,0.0,0.0,0.0,-2.1753,-2.1187,-2.0602,-2.0213,0.0,0.0,0.0,0.0,0.0,-1.5888,-1.5245,-1.4765,-1.4824,-1.4834,-1.4951,-1.5205,0.0,0.0,0.0,0.0,0.0,0.0,0.0,0.0,0.0,0.0,0.0,0.0,0.0,0.0,0.0,0.0,0.0,0.0,0.0,0.0,0.0,0.0,0.0,0.0,-2.0898,-2.1082,-2.1458,-2.152,-2.1583,-2.1772,-2.1554,-2.1173,-2.0708,-2.0248,-2.0139,-2.0345,-2.0545,-2.0679,0.0,0.0,0.0,-2.0165,-1.9647,-1.8749,-1.7531,-1.5838,-1.3828,-1.1558,-0.8892,-0.6241,-0.3515,0.0,0.0,0.0,0.0,0.0,0.0,0.0,0.0,0.0,0.0,0.0,0.0,0.0,0.0,0.0,0.0,0.0,0.0,0.0,0.0,0.0,0.0,0.0,0.0,0.0,0.0,0.0,0.0,0.0,0.0,-3.3255,-3.2992,-3.2617,0.0,0.0,0.0,-3.1462,-3.1362,-3.1072,-3.06,-3.06,0.0,0.0,0.0,0.0,0.0,0.0,0.0,0.0,-2.2665,-2.2051,-2.1483,-2.0568,0.0,0.0,0.0,0.0,0.0,-1.6192,-1.5941,-1.5758,-1.541,-1.543,-1.5556,-1.5614,0.0,0.0,0.0,0.0,0.0,0.0,0.0,0.0,0.0,0.0,0.0,0.0,0.0,0.0,0.0,0.0,0.0,0.0,0.0,0.0,0.0,0.0,0.0,0.0,-2.0334,-2.0523,-2.0908,-2.0513,-2.0134,-1.9737,-2.0343,-2.052,-2.0187,-1.9641,-1.9464,-1.966,-1.9818,-1.9925,0.0,0.0,-1.9507,-1.917,-1.8464,-1.7437,-1.612,-1.4417,-1.2368,-1.0113,-0.7524,-0.4923,-0.2153,0.0,0.0,0.0,0.0,0.0,0.0,0.0,0.0,0.0,0.0,0.0,0.0,0.0,0.0,0.0,0.0,0.0,0.0,0.0,0.0,0.0,0.0,0.0,0.0,0.0,0.0,0.0,0.0,0.0,-3.4797,-3.4431,-3.4053,-3.3716,-3.3459,0.0,0.0,-3.2779,-3.2741,-3.2415,-3.1916,0.0,0.0,0.0,0.0,0.0,0.0,0.0,0.0,0.0,0.0,-2.3267,-2.2627,-2.156,0.0,0.0,0.0,0.0,0.0,-1.6807,-1.6581,-1.6343,-1.6104,-1.5951,-1.5798,-1.5798,0.0,0.0,0.0,0.0,0.0,0.0,0.0,0.0,0.0,0.0,0.0,0.0,0.0,0.0,0.0,0.0,0.0,0.0,0.0,0.0,0.0,0.0,0.0,0.0,0.0,-1.9724,-1.9709,-1.9636,-1.9188,-1.8319,-1.8782,-1.8945,-1.8843,-1.8744,-1.8755,-1.8846,-1.8997,-1.9035,-1.8968,0.0,-1.8472,-1.8039,-1.7328,-1.6311,-1.5027,-1.3361,-1.1402,-0.9137,-0.5627,-0.298,-0.0721,0.0,0.0,0.0,0.0,0.0,0.0,0.0,0.0,0.0,0.0,0.0,0.0,0.0,0.0,0.0,0.0,0.0,0.0,0.0,0.0,0.0,0.0,0.0,0.0,0.0,0.0,-3.6786,-3.6416,-3.6105,-3.5786,-3.5464,-3.4958,-3.4673,0.0,0.0,0.0,-3.3953,-3.3887,-3.3598,-3.3098,0.0,0.0,0.0,0.0,0.0,0.0,0.0,0.0,0.0,0.0,0.0,0.0,0.0,0.0,0.0,-1.9392,-1.8426,-1.7634,-1.7434,-1.7043,-1.6751,-1.6627,0.0,-1.6029,-1.6029,0.0,0.0,0.0,0.0,0.0,0.0,0.0,0.0,0.0,0.0,0.0,0.0,0.0,0.0,0.0,0.0,0.0,0.0,0.0,0.0,0.0,0.0,0.0,0.0,0.0,-1.8873,-1.8559,-1.8536,-1.8084,-1.7247,-1.7232,-1.7334,-1.7625,-1.7854,-1.8028,-1.8028,-1.8147,-1.8108,-1.7974,-1.7774,-1.7394,-1.6912,-1.6219,-1.5241,-1.4018,-1.2454,-1.0436,-0.7905,-0.4245,-0.1779,-0.0056,0.0,0.0,0.0,0.0,0.0,0.0,0.0,0.0,0.0,0.0,0.0,0.0,0.0,0.0,0.0,0.0,0.0,0.0,0.0,0.0,0.0,0.0,0.0,0.0,0.0,-3.7826,-3.756,-3.7301,-3.6978,-3.662,-3.6199,-3.5854,-3.5633,-3.5481,0.0,0.0,-3.488,-3.4769,-3.4577,-3.4219,-3.3291,0.0,0.0,0.0,0.0,0.0,0.0,0.0,0.0,0.0,0.0,0.0,0.0,0.0,-2.0921,-1.9443,-1.8637,-1.8116,-1.7634,-1.7379,-1.7155,-1.6694,-1.6477,0.0,-1.6374,-1.6374,0.0,0.0,0.0,0.0,0.0,0.0,0.0,0.0,0.0,0.0,0.0,0.0,0.0,0.0,0.0,0.0,0.0,0.0,0.0,0.0,0.0,0.0,0.0,0.0,0.0,-1.7899,-1.7002,-1.6444,-1.6373,-1.5978,-1.6175,-1.7076,-1.7076,-1.7173,-1.7282,-1.7282,-1.7227,-1.7076,-1.6811,-1.6446,-1.5947,-1.5129,-1.4215,-1.3168,-1.1648,-0.9113,-0.6004,-0.421,-0.2449,-0.0838,0.0,0.0,0.0,0.0,0.0,0.0,0.0,0.0,0.0,0.0,0.0,0.0,0.0,0.0,0.0,0.0,0.0,0.0,0.0,0.0,0.0,0.0,0.0,-3.9383,-3.8971,-3.853,-3.815,-3.7862,-3.7469,-3.7055,-3.6678,-3.6539,0.0,0.0,0.0,0.0,-3.5793,-3.5661,-3.515,-3.4363,-3.3437,-3.2438,0.0,0.0,0.0,0.0,0.0,0.0,0.0,0.0,-2.5664,-2.4612,0.0,0.0,-2.1059,-1.9723,-1.8934,-1.8387,-1.7909,-1.7534,-1.7211,-1.6807,-1.6637,0.0,0.0,0.0,0.0,0.0,0.0,0.0,0.0,0.0,0.0,0.0,0.0,0.0,0.0,0.0,0.0,0.0,0.0,0.0,0.0,0.0,0.0,0.0,0.0,0.0,0.0,0.0,0.0,-1.6241,-1.5964,-1.5646,-1.5314,-1.512,-1.5164,-1.5466,-1.5996,-1.6269,-1.6312,-1.6312,-1.6225,-1.5996,-1.5764,-1.5365,-1.4869,-1.419,-1.3331,-1.2248,-1.0297,-0.8159,-0.6077,-0.4601,-0.3171,-0.1786,0.0,0.0,0.0,0.0,0.0,0.0,0.0,0.0,0.0,0.0,0.0,0.0,0.0,0.0,0.0,0.0,0.0,0.0,0.0,0.0,0.0,0.0,0.0,-3.9851,-3.967,-3.9208,-3.8789,-3.8378,-3.7929,-3.7578,-3.7283,0.0,0.0,0.0,0.0,0.0,0.0,-3.6392,-3.5752,-3.4721,-3.3744,-3.2765,0.0,0.0,0.0,0.0,0.0,0.0,0.0,0.0,0.0,0.0,0.0,0.0,0.0,0.0,-1.9396,-1.8774,-1.8236,-1.781,-1.7379,0.0,0.0,0.0,0.0,0.0,0.0,0.0,0.0,0.0,0.0,0.0,0.0,0.0,0.0,0.0,0.0,0.0,0.0,0.0,0.0,0.0,0.0,0.0,0.0,0.0,0.0,0.0,0.0,0.0,0.0,0.0,-1.4882,-1.4642,-1.4294,-1.4247,-1.4201,-1.4118,-1.4641,-1.505,-1.5344,-1.5344,-1.5209,-1.4926,-1.4732,-1.4318,-1.3779,-1.316,-1.2218,-1.1057,-0.9176,-0.7652,-0.6308,-0.505,-0.3782,-0.2621,0.0,0.0,0.0,0.0,0.0,0.0,0.0,0.0,0.0,0.0,0.0,0.0,0.0,0.0,0.0,0.0,0.0,0.0,0.0,0.0,0.0,0.0,0.0,-4.0139,-3.9996,-3.987,-3.9551,-3.9017,-3.8473,-3.815,-3.8101,-3.7827,0.0,0.0,0.0,0.0,0.0,0.0,-3.6344,-3.5414,-3.4402,-3.3368,-3.2292,0.0,0.0,0.0,0.0,0.0,0.0,0.0,-2.7031,0.0,0.0,0.0,0.0,0.0,-1.9914,-1.9263,-1.8774,-1.8278,-1.7733,0.0,0.0,0.0,0.0,0.0,0.0,0.0,0.0,0.0,0.0,0.0,0.0,0.0,0.0,0.0,0.0,0.0,0.0,0.0,0.0,0.0,0.0,0.0,0.0,0.0,0.0,0.0,0.0,0.0,0.0,0.0,-1.3703,-1.3372,-1.3372,-1.3266,-1.317,-1.317,-1.3064,-1.3447,-1.4305,-1.4305,-1.4165,-1.3978,-1.3721,-1.3283,-1.2716,-1.2039,-1.0889,-0.951,-0.8501,-0.7492,-0.648,-0.5336,-0.4288,-0.3234,0.0,0.0,0.0,0.0,0.0,0.0,0.0,0.0,0.0,0.0,0.0,0.0,0.0,0.0,0.0,0.0,0.0,0.0,0.0,0.0,0.0,0.0,0.0,0.0,0.0,0.0,-3.967,-3.9129,-3.8884,-3.8676,0.0,0.0,0.0,-3.807,0.0,0.0,0.0,-3.6916,-3.6096,-3.5117,-3.4108,-3.3139,-3.2206,0.0,0.0,0.0,0.0,0.0,0.0,0.0,0.0,0.0,0.0,0.0,0.0,-2.1059,-2.0207,-1.9408,-1.8893,-1.8344,0.0,0.0,0.0,0.0,0.0,0.0,0.0,0.0,0.0,0.0,0.0,0.0,0.0,0.0,0.0,0.0,0.0,0.0,0.0,0.0,0.0,0.0,0.0,0.0,0.0,0.0,0.0,0.0,0.0,0.0,0.0,0.0,-1.2881,-1.2706,-1.254,-1.254,-1.2452,-1.2255,-1.2098,-1.2472,-1.3389,-1.3294,-1.3102,-1.2851,-1.2599,-1.2159,-1.1616,-1.0525,-0.9555,-0.862,-0.7818,-0.6966,-0.605,-0.523,-0.4291,-0.3241,0.0,0.0,0.0,0.0,0.0,0.0,0.0,0.0,0.0,0.0,0.0,0.0,0.0,0.0,0.0,0.0,0.0,0.0,0.0,0.0,0.0,0.0,0.0,0.0,0.0,-4.0252,-3.9958,0.0,0.0,0.0,0.0,0.0,0.0,-3.8546,0.0,-3.8056,0.0,0.0,-3.6029,-3.4789,-3.4138,-3.3294,-3.2403,0.0,0.0,0.0,0.0,0.0,0.0,0.0,0.0,0.0,0.0,0.0,0.0,-2.1589,-2.0746,-1.9862,-1.9251,-1.8614,0.0,0.0,0.0,0.0,0.0,0.0,0.0,0.0,0.0,0.0,0.0,0.0,0.0,0.0,0.0,0.0,0.0,0.0,0.0,0.0,0.0,0.0,0.0,0.0,0.0,0.0,0.0,0.0,0.0,0.0,0.0,0.0,-1.2076,-1.1977,-1.1859,-1.166,-1.151,-1.1368,-1.115,-1.1325,-1.1814,-1.208,-1.203,-1.1733,-1.1316,-1.0805,-1.0254,-0.9347,-0.862,-0.7925,-0.7235,-0.6485,-0.5727,-0.4846,-0.4018,-0.3132,0.0,0.0,0.0,0.0,0.0,0.0,0.0,0.0,0.0,0.0,0.0,0.0,0.0,0.0,0.0,0.0,0.0,0.0,0.0,0.0,0.0,0.0,0.0,0.0,0.0,0.0,0.0,0.0,0.0,0.0,0.0,0.0,-3.9073,-3.8921,0.0,-3.8242,0.0,-3.7155,-3.6103,-3.4442,-3.4276,-3.3683,-3.2844,-3.2639,0.0,0.0,0.0,0.0,0.0,0.0,0.0,0.0,-2.6642,0.0,-2.2889,-2.2263,-2.1396,-2.051,-1.9811,0.0,0.0,0.0,0.0,0.0,0.0,0.0,0.0,0.0,0.0,0.0,0.0,0.0,0.0,0.0,0.0,0.0,0.0,0.0,0.0,0.0,0.0,0.0,0.0,0.0,0.0,0.0,0.0,0.0,0.0,0.0,0.0,-1.1569,-1.1318,-1.1167,-1.1167,-1.0702,-1.0498,0.0,-1.0167,-1.0012,-0.9858,-1.0685,-1.0897,-1.0592,-0.9917,-0.934,-0.8817,-0.8415,-0.7877,-0.7278,-0.6539,-0.5946,-0.5344,-0.4298,-0.3522,-0.2852,0.0,0.0,0.0,0.0,0.0,0.0,0.0,0.0,0.0,0.0,0.0,0.0,0.0,0.0,0.0,0.0,0.0,0.0,0.0,0.0,0.0,0.0,0.0,0.0,0.0,0.0,0.0,0.0,0.0,0.0,0.0,0.0,0.0,-3.9219,0.0,-3.8572,-3.7626,-3.6952,-3.5974,-3.4889,-3.4126,-3.3637,-3.3327,-3.3172,-3.2908,0.0,0.0,0.0,0.0,0.0,0.0,0.0,-2.7253,-2.549,-2.3537,-2.2785,-2.1846,-2.0881,0.0,-1.9344,0.0,0.0,0.0,0.0,0.0,0.0,0.0,0.0,0.0,0.0,0.0,0.0,0.0,0.0,0.0,0.0,0.0,0.0,0.0,0.0,0.0,0.0,0.0,0.0,0.0,0.0,0.0,0.0,0.0,0.0,0.0,-1.0506,-1.0336,-1.0174,-0.9976,-0.9873,-0.9666,0.0,-0.919,-0.8981,-0.8784,-0.9658,-0.9762,-0.919,-0.8712,-0.8184,-0.7605,-0.7176,-0.6637,-0.6095,-0.5445,-0.4846,-0.4242,-0.3574,-0.2852,-0.2127,0.0,0.0,0.0,0.0,0.0,0.0,0.0,0.0,0.0,0.0,0.0,0.0,0.0,0.0,0.0,0.0,0.0,0.0,0.0,0.0,0.0,0.0,0.0,0.0,0.0,0.0,0.0,0.0,0.0,0.0,0.0,0.0,0.0,-3.9464,0.0,-3.834,-3.734,-3.6452,-3.5558,-3.4685,-3.4113,-3.3842,-3.378,-3.3597,-3.3379,-3.3172,-3.2957,0.0,0.0,0.0,0.0,0.0,0.0,0.0,-2.4266,-2.3522,-2.2575,-2.1657,0.0,0.0,0.0,0.0,0.0,0.0,0.0,0.0,0.0,0.0,0.0,0.0,0.0,0.0,0.0,0.0,0.0,0.0,0.0,0.0,0.0,0.0,0.0,0.0,0.0,0.0,0.0,0.0,0.0,0.0,0.0,-0.9984,-0.988,-0.9732,-0.951,-0.9347,-0.919,-0.8928,-0.8659,-0.8448,-0.8249,-0.7984,-0.7717,-0.8396,-0.8448,-0.8031,-0.7599,-0.7122,-0.6642,-0.615,-0.5714,-0.5222,-0.4622,-0.4018,-0.3466,-0.2738,-0.2068,-0.1342,0.0,0.0,0.0,0.0,0.0,0.0,0.0,0.0,0.0,0.0,0.0,0.0,0.0,0.0,0.0,0.0,0.0,0.0,0.0,0.0,0.0,0.0,0.0,0.0,0.0,0.0,0.0,0.0,0.0,0.0,0.0,0.0,0.0,-3.9724,0.0,0.0,-3.7005,-3.6091,-3.5179,-3.4381,-3.4245,-3.4197,-3.4148,-3.3972,-3.3815,-3.3671,-3.339,-3.3124,-3.2706,-3.1538,0.0,0.0,0.0,0.0,-2.5012,-2.4282,-2.342,-2.2483,0.0,0.0,0.0,0.0,0.0,0.0,0.0,0.0,0.0,0.0,0.0,0.0,0.0,0.0,0.0,0.0,0.0,0.0,0.0,0.0,0.0,0.0,0.0,0.0,0.0,0.0,0.0,0.0,0.0,0.0,-0.9256,-0.9204,-0.9099,-0.8995,-0.8725,-0.856,-0.856,-0.8031,-0.7717,-0.7711,-0.7348,-0.702,-0.6637,-0.6902,-0.7015,-0.6966,-0.6529,-0.61,-0.5727,-0.5226,-0.4783,-0.434,-0.3738,-0.3239,-0.2683,-0.1846,-0.1174,-0.0559,0.0,0.0,0.0,0.0,0.0,0.0,0.0,0.0,0.0,0.0,0.0,0.0,0.0,0.0,0.0,0.0,0.0,0.0,-4.1103,0.0,0.0,-4.1109,-4.1091,0.0,0.0,0.0,0.0,0.0,0.0,0.0,0.0,0.0,0.0,-4.0019,0.0,0.0,0.0,-3.6415,-3.5522,-3.4727,-3.4645,-3.4539,-3.445,-3.434,-3.4245,-3.4099,-3.3876,-3.3707,-3.3385,-3.2182,-3.1008,0.0,0.0,0.0,-2.5697,-2.4989,-2.4112,-2.3142,0.0,0.0,0.0,0.0,0.0,0.0,0.0,0.0,0.0,0.0,0.0,0.0,0.0,0.0,0.0,0.0,0.0,0.0,0.0,0.0,0.0,0.0,0.0,0.0,0.0,0.0,0.0,0.0,0.0,0.0,-0.8527,-0.8427,-0.8262,-0.809,-0.7931,-0.7717,-0.7498,-0.7295,-0.7079,-0.6864,-0.6317,-0.5828,-0.5496,-0.523,-0.534,-0.5782,-0.5441,-0.5058,-0.4684,-0.4184,-0.3738,-0.3241,-0.2629,-0.2069,-0.1453,-0.084,-0.0224,0.0336,0.0,0.0,0.0,0.0,0.0,0.0,0.0,0.0,0.0,0.0,0.0,0.0,0.0,0.0,0.0,-4.111,-4.109,-4.1091,-4.1092,-4.1091,-4.1108,-4.1101,-4.1094,-4.1108,0.0,0.0,0.0,0.0,0.0,0.0,0.0,-4.0668,-4.0235,0.0,0.0,0.0,0.0,0.0,-3.5325,-3.4965,-3.4888,-3.4811,-3.4711,0.0,-3.4564,-3.4473,-3.434,-3.4148,-3.3744,-3.2198,-3.1257,-3.0399,-2.8629,0.0,0.0,0.0,-2.5041,0.0,-2.2426,0.0,0.0,0.0,0.0,0.0,0.0,0.0,0.0,0.0,0.0,0.0,0.0,0.0,0.0,0.0,0.0,0.0,0.0,0.0,0.0,0.0,0.0,0.0,0.0,0.0,0.0,0.0,0.0,-0.7889,-0.7777,-0.7723,-0.7568,-0.7348,-0.7187,-0.7025,-0.681,-0.6534,-0.6159,-0.5778,-0.5445,-0.5062,-0.4673,-0.4349,-0.4463,-0.4956,-0.4453,-0.4067,-0.3685,-0.3128,-0.2683,-0.2293,-0.168,-0.1176,-0.0728,-0.0056,0.056,0.1175,0.0,0.0,0.0,0.0,0.0,0.0,0.0,0.0,0.0,0.0,0.0,0.0,0.0,0.0,0.0,0.0,-4.1094,-4.1094,-4.1093,-4.1093,-4.1094,-4.1094,-4.1093,-4.111,-4.1105,0.0,0.0,0.0,0.0,0.0,-4.0924,-4.0645,-3.9944,0.0,-3.8228,0.0,0.0,0.0,0.0,0.0,0.0,0.0,0.0,0.0,0.0,0.0,-3.471,-3.4564,-3.4101,-3.2284,-3.1476,-3.091,-2.8837,-2.7855,0.0,0.0,0.0,0.0,0.0,0.0,0.0,0.0,0.0,0.0,0.0,0.0,0.0,0.0,0.0,0.0,0.0,0.0,0.0,0.0,0.0,0.0,0.0,0.0,0.0,0.0,0.0,0.0,0.0,0.0,0.0,0.0,0.0,-0.7133,-0.702,-0.6966,-0.6864,-0.6603,-0.649,-0.6327,-0.6055,-0.5723,-0.5285,-0.4794,-0.4736,-0.4401,-0.3901,-0.363,-0.3685,-0.3907,-0.3516,-0.3128,-0.2796,-0.2183,-0.1736,-0.1455,-0.0841,-0.0393,0.0,0.0728,0.1344,0.1959,0.0,0.0,0.0,0.0,0.0,0.0,0.0,0.0,0.0,0.0,0.0,0.0,0.0,-4.1108,-4.1108,-4.1108,-4.1108,-4.1107,-4.1101,-4.1105,-4.1108,-4.1108,-4.1091,0.0,-4.1094,0.0,0.0,0.0,0.0,0.0,-4.0987,-4.0147,-3.9246,-3.8324,-3.815,-3.7564,-3.6628,0.0,0.0,0.0,0.0,0.0,0.0,0.0,0.0,0.0,0.0,-3.4889,-3.4585,-3.2691,-3.1946,-3.1414,-2.9402,-2.8478,-2.8021,0.0,0.0,0.0,0.0,0.0,0.0,0.0,0.0,0.0,0.0,0.0,0.0,0.0,0.0,0.0,0.0,0.0,0.0,0.0,0.0,0.0,0.0,0.0,0.0,0.0,0.0,0.0,0.0,0.0,0.0,0.0,0.0,-0.6263,-0.6263,-0.6159,-0.5996,-0.5882,-0.5727,-0.5513,-0.5179,-0.4908,-0.4522,-0.4076,-0.4076,-0.3741,-0.313,-0.2856,-0.2577,-0.235,-0.2464,-0.2352,-0.2015,-0.1401,-0.1009,-0.0673,-0.0112,0.0449,0.0897,0.1512,0.2127,0.2745,0.0,0.0,0.0,0.0,0.0,0.0,0.0,0.0,0.0,0.0,0.0,0.0,0.0,-4.1097,-4.1094,-4.1108,-4.1104,-4.1097,-4.1094,-4.1097,-4.1101,-4.1108,-4.1091,-4.1097,-4.1103,0.0,0.0,0.0,0.0,-4.1088,-4.1046,-4.0164,-3.926,-3.8341,-3.7675,-3.6872,-3.5963,-3.5656,0.0,0.0,0.0,0.0,0.0,0.0,0.0,0.0,0.0,0.0,0.0,-3.3025,-3.2332,-3.1845,-2.9922,-2.9092,-2.8657,-2.7748,0.0,0.0,0.0,0.0,0.0,0.0,0.0,0.0,0.0,0.0,0.0,0.0,0.0,0.0,0.0,0.0,0.0,0.0,0.0,0.0,0.0,0.0,0.0,0.0,0.0,0.0,0.0,0.0,0.0,0.0,0.0,0.0,-0.5605,-0.5504,-0.5344,-0.5226,-0.5069,-0.4798,-0.4408,-0.4298,-0.3965,-0.3408,-0.3408,-0.313,-0.2517,-0.2238,-0.1959,-0.1625,-0.1288,-0.1232,-0.1233,-0.0617,-0.0224,0.0056,0.0673,0.1121,0.1568,0.2128,0.2798,0.3519,0.0,0.0,0.0,0.0,0.0,0.0,0.0,0.0,0.0,0.0,0.0,0.0,0.0,0.0,-4.1094,-4.1105,-4.1091,-4.1081,-4.1075,-4.1075,-4.1061,-4.1072,-4.1072,-4.1061,-4.107,0.0,0.0,0.0,0.0,0.0,0.0,-3.9917,-3.9028,-3.839,-3.7168,-3.6278,0.0,0.0,0.0,-3.5562,0.0,0.0,-3.547,0.0,0.0,0.0,0.0,0.0,0.0,0.0,-3.267,-3.2237,0.0,0.0,0.0,0.0,0.0,0.0,0.0,0.0,0.0,0.0,0.0,0.0,0.0,0.0,0.0,0.0,0.0,0.0,0.0,0.0,0.0,0.0,0.0,0.0,0.0,0.0,0.0,0.0,0.0,0.0,0.0,0.0,0.0,0.0,0.0,0.0,-0.5007,-0.4904,-0.4739,-0.4515,-0.4353,-0.4079,-0.3688,-0.363,-0.3352,-0.2796,-0.2796,-0.2462,-0.1905,-0.168,-0.1345,-0.0954,-0.0449,-0.0336,-0.0561,0.0,0.0393,0.0785,0.129,0.1792,0.2237,0.2854,0.3574,0.4343,0.0,0.0,0.0,0.0,0.0,0.0,0.0,0.0,0.0,0.0,0.0,0.0,0.0,0.0,0.0,-4.1095,-4.1039,-4.1,-4.1006,-4.1,-4.1,-4.1006,-4.1,-4.1007,-4.1007,0.0,0.0,0.0,0.0,0.0,0.0,0.0,-3.85,-3.8428,-3.6688,-3.5878,-3.5803,0.0,-3.5699,-3.5688,0.0,-3.5618,-3.5618,0.0,0.0,0.0,-3.5688,-3.5658,0.0,-3.3594,0.0,0.0,0.0,0.0,0.0,0.0,0.0,0.0,0.0,0.0,0.0,0.0,0.0,0.0,0.0,0.0,0.0,0.0,0.0,0.0,0.0,0.0,0.0,0.0,0.0,0.0,0.0,0.0,0.0,0.0,0.0,0.0,0.0,0.0,0.0,0.0,0.0,-0.4463,-0.4463,-0.4301,-0.4079,-0.3796,-0.3522,-0.3299,-0.3074,-0.2961,-0.2629,-0.2183,-0.2183,-0.1849,-0.129,-0.1122,-0.0842,-0.0336,0.0056,0.0168,0.0056,0.0561,0.0954,0.1346,0.1847,0.2404,0.3016,0.363,0.4398,0.5214,0.0,0.0,0.0,0.0,0.0,0.0,0.0,0.0,0.0,0.0,0.0,0.0,0.0,0.0,-4.1025,-4.1018,-4.0964,-4.0929,-4.0929,-4.0932,-4.0924,-4.0935,-4.0924,-4.0924,-4.0924,0.0,0.0,0.0,0.0,0.0,0.0,0.0,0.0,0.0,-3.6728,-3.5942,-3.5864,-3.5794,0.0,0.0,-3.5754,-3.5736,0.0,0.0,0.0,0.0,0.0,-3.5768,-3.5477,0.0,-3.3134,-3.279,0.0,0.0,0.0,0.0,0.0,0.0,-2.7933,0.0,0.0,0.0,0.0,0.0,0.0,0.0,0.0,0.0,0.0,0.0,0.0,0.0,0.0,0.0,0.0,0.0,0.0,0.0,0.0,0.0,0.0,0.0,0.0,0.0,0.0,0.0,-0.4076,-0.4018,-0.4018,-0.3747,-0.3466,-0.3183,-0.3074,-0.2907,-0.2687,-0.2462,-0.224,-0.1908,-0.1682,-0.1346,-0.101,-0.0617,-0.028,0.0056,0.0505,0.0898,0.1178,0.1291,0.157,0.2017,0.2573,0.313,0.3627,0.445,0.5269,0.614,0.0,0.0,0.0,0.0,0.0,0.0,0.0,0.0,0.0,0.0,0.0,0.0,0.0,0.0,0.0,-4.0954,-4.0897,-4.0859,-4.0869,-4.0868,-4.0848,-4.0818,-4.0818,-4.0818,0.0,0.0,0.0,0.0,0.0,0.0,0.0,0.0,0.0,0.0,0.0,0.0,0.0,0.0,0.0,0.0,-3.5833,0.0,0.0,-3.5845,-3.584,0.0,0.0,0.0,-3.5129,-3.3746,-3.2781,0.0,0.0,0.0,0.0,0.0,0.0,0.0,0.0,0.0,0.0,0.0,0.0,0.0,-2.3933,-2.2717,0.0,0.0,0.0,0.0,0.0,0.0,0.0,0.0,0.0,0.0,0.0,0.0,0.0,0.0,0.0,0.0,0.0,0.0,0.0,-0.3858,-0.3688,-0.3574,-0.3519,-0.3246,-0.3023,-0.2798,-0.2685,-0.2462,-0.2188,-0.2074,-0.185,-0.1403,-0.1234,-0.0898,-0.0505,-0.0168,0.0168,0.0505,0.101,0.1458,0.185,0.213,0.2352,0.2629,0.3186,0.3793,0.4508,0.5324,0.6298,0.732,0.0,0.0,0.0,0.0,0.0,0.0,0.0,0.0,0.0,0.0,0.0,0.0,0.0,0.0,0.0,0.0,-4.0826,-4.0784,-4.0788,-4.0776,0.0,-4.0681,-4.0681,-4.0668,0.0,0.0,0.0,0.0,0.0,0.0,0.0,0.0,0.0,0.0,0.0,0.0,0.0,0.0,0.0,-3.5904,-3.5919,-3.5914,0.0,0.0,-3.5904,0.0,-3.5912,-3.5392,-3.4544,-3.3576,-3.2126,0.0,0.0,0.0,0.0,0.0,-3.0194,0.0,0.0,0.0,0.0,0.0,0.0,0.0,-2.5634,-2.4484,-2.332,0.0,0.0,0.0,0.0,0.0,0.0,0.0,0.0,0.0,0.0,0.0,0.0,0.0,0.0,0.0,0.0,-0.4242,-0.3913,-0.3638,-0.3416,-0.3246,-0.3019,-0.28,-0.2635,-0.2635,-0.2298,-0.2018,-0.1797,-0.1741,-0.1403,-0.0898,-0.0842,-0.0505,0.0,0.0168,0.0505,0.0954,0.1458,0.1906,0.235,0.2907,0.3186,0.3241,0.3741,0.4563,0.5496,0.6303,0.7422,0.8639,-4.0038,0.0,0.0,0.0,0.0,0.0,0.0,0.0,0.0,0.0,0.0,0.0,0.0,0.0,0.0,0.0,0.0,-4.0726,-4.0713,-4.066,-4.0631,-4.0617,-4.0583,-4.0549,-4.0549,0.0,0.0,0.0,0.0,0.0,0.0,0.0,0.0,0.0,0.0,0.0,0.0,0.0,0.0,-3.5987,-3.5985,0.0,-3.597,-3.597,-3.5988,-3.5984,-3.5986,-3.5425,-3.4453,0.0,-3.164,-3.0781,0.0,0.0,0.0,0.0,0.0,0.0,0.0,0.0,0.0,0.0,0.0,0.0,-2.7128,-2.6168,-2.5228,0.0,0.0,0.0,0.0,0.0,0.0,0.0,0.0,0.0,0.0,0.0,0.0,0.0,0.0,0.0,0.0,-0.4356,-0.4027,-0.3638,-0.3251,-0.2858,-0.2633,-0.2577,-0.241,-0.2127,-0.1962,-0.1797,-0.1629,-0.129,-0.101,-0.0898,-0.0393,-0.0112,0.0,0.0505,0.0954,0.1234,0.1737,0.2238,0.2794,0.3408,0.3741,0.391,0.4677,0.5496,0.6303,0.7475,0.8685,0.9872,-3.987,0.0,0.0,0.0,0.0,0.0,0.0,0.0,0.0,0.0,0.0,0.0,0.0,0.0,0.0,0.0,0.0,0.0,0.0,0.0,-4.0495,-4.0444,-4.0375,-4.0358,-4.0358,-4.0389,0.0,0.0,0.0,0.0,0.0,0.0,0.0,0.0,0.0,0.0,0.0,0.0,-3.5968,-3.5996,-3.601,0.0,-3.6003,-3.6003,-3.5992,-3.5996,-3.5996,-3.5134,-3.3732,-3.1987,-3.1106,0.0,0.0,-3.073,-3.0681,0.0,-3.0632,-3.0563,0.0,0.0,0.0,-2.9774,0.0,0.0,0.0,-2.7707,-2.6941,-2.6245,0.0,0.0,0.0,0.0,0.0,0.0,0.0,0.0,0.0,0.0,0.0,0.0,0.0,0.0,0.0,-0.4743,-0.4193,-0.3527,-0.3137,-0.2805,-0.2635,-0.2465,-0.2296,-0.2127,-0.1852,-0.1628,-0.1459,-0.1066,-0.0842,-0.0673,-0.0224,0.0112,0.0393,0.0898,0.129,0.1681,0.2238,0.2794,0.3405,0.407,0.4673,0.5218,0.5655,0.6465,0.7475,0.8685,1.001,1.1355,-3.9712,0.0,0.0,0.0,0.0,0.0,0.0,0.0,0.0,0.0,0.0,0.0,0.0,0.0,0.0,0.0,0.0,0.0,0.0,0.0,0.0,0.0,-4.0177,-4.0139,-4.0139,-4.0196,-4.0215,0.0,0.0,0.0,0.0,0.0,0.0,0.0,0.0,0.0,0.0,0.0,0.0,-3.5984,0.0,-3.5996,-3.5996,-3.5996,-3.5995,-3.5947,-3.5591,-3.444,-3.2815,-3.1222,0.0,-3.0664,-3.0664,-3.0656,0.0,0.0,0.0,0.0,0.0,0.0,0.0,0.0,0.0,-2.9766,0.0,0.0,0.0,-2.7881,0.0,0.0,0.0,0.0,0.0,0.0,0.0,0.0,0.0,0.0,0.0,0.0,0.0,0.0,0.0,-0.5124,-0.4356,-0.3524,-0.3137,-0.2858,-0.2691,-0.2408,-0.2183,-0.2183,-0.1738,-0.1459,-0.1291,-0.0954,-0.0673,-0.0336,-0.0056,0.0336,0.0729,0.1178,0.1625,0.2127,0.274,0.335,0.4015,0.4783,0.571,0.6681,0.6681,0.7528,0.879,1.0018,1.1446,1.2972,-3.9477,-3.9647,0.0,0.0,0.0,0.0,0.0,0.0,0.0,0.0,0.0,0.0,0.0,0.0,0.0,0.0,0.0,0.0,-4.0214,0.0,0.0,0.0,0.0,0.0,-3.9933,-3.9954,-3.9975,0.0,0.0,0.0,0.0,0.0,0.0,0.0,-3.5637,0.0,0.0,0.0,-3.5858,0.0,-3.5899,-3.5952,0.0,-3.5993,-3.5962,-3.5717,-3.4155,-3.2972,-3.1994,0.0,-3.0576,-3.0524,0.0,-3.0524,-3.0513,0.0,0.0,0.0,0.0,0.0,0.0,0.0,-3.0384,0.0,0.0,0.0,-2.9543,-2.9153,0.0,0.0,0.0,0.0,0.0,0.0,0.0,0.0,0.0,0.0,0.0,0.0,0.0,0.0,0.0,0.0,-0.4298,-0.3796,-0.3352,-0.2965,-0.2691,-0.2408,-0.2127,-0.2015,-0.157,-0.1347,-0.1291,-0.0729,-0.0393,-0.0224,0.0168,0.0561,0.0898,0.1347,0.1906,0.2465,0.3079,0.3796,0.4673,0.5542,0.6514,0.7587,0.7806,0.8692,0.9974,1.1513,1.3057,1.4676,-3.9152,-3.9401,0.0,0.0,0.0,0.0,0.0,0.0,0.0,0.0,0.0,0.0,0.0,0.0,0.0,0.0,0.0,-4.0019,0.0,0.0,0.0,0.0,0.0,0.0,-3.967,-3.967,-3.9444,-3.8999,-3.8215,0.0,0.0,0.0,0.0,0.0,-3.543,0.0,-3.5599,0.0,0.0,0.0,0.0,0.0,0.0,-3.5935,-3.5611,-3.4904,-3.3128,-3.2221,-3.1734,0.0,-3.0413,0.0,0.0,0.0,0.0,0.0,0.0,0.0,0.0,0.0,0.0,0.0,0.0,0.0,-3.0331,0.0,-3.0092,0.0,0.0,0.0,0.0,0.0,0.0,0.0,0.0,0.0,0.0,0.0,0.0,0.0,0.0,0.0,0.0,0.0,0.0,0.0,0.0,-0.3411,-0.3135,-0.2689,-0.241,-0.2296,-0.1852,-0.1515,-0.1291,-0.0842,-0.0449,-0.0168,0.0336,0.0785,0.1178,0.1682,0.2354,0.3079,0.3744,0.4567,0.5542,0.6465,0.7688,0.8992,0.9929,1.0689,1.1405,1.3094,1.4765,1.6535,-3.8118,0.0,0.0,0.0,0.0,0.0,0.0,0.0,0.0,0.0,0.0,0.0,-4.0119,-4.0038,0.0,0.0,-3.9867,-3.9758,0.0,0.0,-3.9575,0.0,0.0,0.0,0.0,0.0,-3.874,-3.8159,0.0,0.0,0.0,0.0,0.0,0.0,0.0,-3.5292,-3.5418,0.0,0.0,-3.5708,-3.5745,-3.5607,-3.541,-3.5477,-3.4951,-3.3988,-3.2421,-3.1652,-3.1272,-3.0568,-3.026,0.0,-3.0095,0.0,0.0,0.0,0.0,0.0,-3.0004,0.0,0.0,0.0,0.0,0.0,0.0,0.0,0.0,0.0,0.0,0.0,0.0,0.0,0.0,0.0,0.0,0.0,0.0,0.0,0.0,0.0,0.0,0.0,0.0,0.0,0.0,-0.5164,-0.4508,-0.3959,-0.358,-0.3079,-0.2689,-0.2521,-0.202,-0.1572,-0.1234,-0.0785,-0.0393,-0.0056,0.0561,0.1065,0.1514,0.2127,0.2852,0.3688,0.4457,0.5382,0.6465,0.7528,0.8881,1.0418,1.1941,1.2912,1.3584,1.4931,1.6591,1.8344,-3.606,-3.7708,0.0,0.0,0.0,0.0,0.0,0.0,0.0,0.0,0.0,0.0,0.0,0.0,0.0,0.0,0.0,-3.9477,-3.9401,0.0,-3.9272,0.0,0.0,-3.9073,0.0,0.0,0.0,0.0,0.0,0.0,0.0,0.0,0.0,0.0,0.0,-3.5069,-3.5207,-3.5336,-3.5451,-3.5528,-3.5589,-3.5151,-3.4448,0.0,-3.3905,-3.3016,-3.2046,0.0,0.0,-3.0241,-3.0118,0.0,0.0,0.0,0.0,0.0,0.0,0.0,0.0,0.0,0.0,-2.9689,0.0,0.0,0.0,0.0,-3.0034,0.0,0.0,0.0,0.0,0.0,0.0,0.0,0.0,0.0,0.0,0.0,0.0,0.0,0.0,0.0,0.0,0.0,0.0,-0.6204,-0.5492,-0.4728,-0.4021,-0.3411,-0.291,-0.2521,-0.1908,-0.1459,-0.1122,-0.0505,0.0,0.0393,0.0842,0.1401,0.2015,0.2627,0.3347,0.4233,0.5105,0.6244,0.754,0.8619,0.9987,1.1635,1.3522,1.5247,1.6808,1.7183,1.8411,2.0129,0.0,0.0,0.0,0.0,0.0,0.0,0.0,-3.9599,0.0,0.0,0.0,0.0,0.0,-3.9526,-3.9452,0.0,0.0,-3.921,-3.9073,-3.9045,0.0,0.0,0.0,-3.8449,0.0,0.0,0.0,0.0,0.0,0.0,0.0,0.0,0.0,0.0,0.0,-3.4733,0.0,0.0,0.0,0.0,0.0,-3.4449,-3.4135,0.0,0.0,-3.2034,-3.1052,-3.0439,0.0,-2.9984,-2.9805,-2.9664,-2.9494,-2.9377,-2.9214,-2.9193,-2.9129,0.0,0.0,0.0,-2.8986,-2.9077,0.0,0.0,0.0,0.0,0.0,0.0,0.0,0.0,0.0,0.0,0.0,0.0,0.0,0.0,0.0,0.0,0.0,0.0,0.0,0.0,0.0,0.0,0.0,-0.7923,-0.6817,-0.586,0.0,-0.4233,-0.3516,-0.291,-0.2296,-0.1682,-0.0954,-0.0449,0.0112,0.0729,0.1401,0.2015,0.2627,0.3403,0.4229,0.5105,0.6239,0.741,0.8672,1.0089,1.1697,1.3393,1.531,1.7167,1.8841,1.9046,2.0102,2.1678,-3.3908,0.0,0.0,0.0,0.0,0.0,0.0,0.0,0.0,0.0,-3.935,0.0,-3.935,0.0,-3.9156,0.0,-3.8998,-3.8844,-3.8743,-3.8683,0.0,-3.8451,-3.8077,0.0,0.0,0.0,0.0,0.0,0.0,-3.4022,0.0,0.0,0.0,0.0,0.0,0.0,-3.4526,0.0,-3.4908,0.0,0.0,-3.3616,0.0,0.0,-3.2052,-3.1476,0.0,-3.0026,-2.9867,-2.9754,-2.9532,-2.9314,-2.9166,-2.9012,-2.8832,-2.8737,-2.8621,-2.8522,-2.8471,-2.8402,0.0,-2.8428,-2.8399,0.0,-2.8494,0.0,0.0,0.0,0.0,0.0,0.0,0.0,0.0,0.0,0.0,0.0,0.0,-2.3931,0.0,0.0,0.0,0.0,0.0,0.0,-1.1474,-1.007,-0.8709,-0.7482,0.0,0.0,-0.4281,-0.3297,-0.246,-0.1624,-0.0673,-0.0056,0.0672,0.1455,0.2237,0.2903,0.3569,0.4501,0.5425,0.6338,0.7558,0.8854,1.0226,1.1835,1.3537,1.5278,1.7207,1.9015,2.0559,2.0702,2.1708,2.3105,0.0,0.0,0.0,0.0,-3.8077,0.0,0.0,0.0,-3.9073,0.0,-3.9073,-3.9073,-3.9073,-3.895,-3.8881,-3.8881,-3.8634,0.0,-3.8382,-3.8322,0.0,0.0,-3.719,-3.6638,-3.636,0.0,0.0,0.0,0.0,0.0,0.0,0.0,0.0,0.0,-3.3868,0.0,-3.4197,-3.445,-3.4567,-3.4461,-3.3809,-3.2645,-3.1255,-3.117,-3.1184,-3.1184,-3.0307,-2.9839,-2.9663,-2.9513,-2.9293,-2.9038,-2.8845,-2.8676,-2.85,-2.8255,-2.8073,-2.7926,-2.78,-2.7701,-2.7654,-2.7725,0.0,0.0,0.0,0.0,-2.7666,0.0,0.0,0.0,0.0,0.0,0.0,0.0,0.0,0.0,0.0,0.0,0.0,0.0,0.0,0.0,0.0,-1.572,-1.4161,-1.2539,-1.1086,0.0,0.0,0.0,-0.5148,-0.368,-0.2458,-0.1231,-0.0168,0.0727,0.1675,0.2621,0.34,0.4119,0.4886,0.5914,0.6924,0.7923,0.9158,1.0563,1.2184,1.3779,1.5483,1.7235,1.9155,2.0768,2.2048,2.2226,2.3188,2.4344,-3.2608,-3.3443,-3.453,0.0,-3.688,-3.7876,0.0,0.0,0.0,0.0,-3.8773,-3.8773,-3.8737,-3.8603,-3.851,-3.851,-3.8285,0.0,0.0,0.0,0.0,-3.6791,-3.6453,-3.5687,-3.4446,-3.3934,0.0,-3.2788,0.0,0.0,-3.2752,0.0,0.0,0.0,0.0,0.0,-3.3842,-3.3998,-3.3844,-3.3362,-3.2008,-3.1223,0.0,0.0,-2.9908,-2.9832,-2.9739,-2.9551,-2.9375,-2.9185,-2.8962,-2.8682,-2.8492,-2.8237,-2.7971,-2.78,-2.7595,-2.7382,-2.7192,-2.7083,-2.7036,-2.7004,-2.6872,-2.6773,0.0,0.0,0.0,0.0,0.0,0.0,0.0,0.0,0.0,0.0,0.0,0.0,0.0,0.0,0.0,0.0,0.0,0.0,-2.0004,-1.8489,-1.6981,-1.5386,-1.3725,0.0,0.0,0.0,0.0,-0.4423,-0.2611,-0.0892,0.0725,0.2001,0.3161,0.4316,0.5237,0.6098,0.6892,0.7998,0.9078,1.0128,1.1416,1.2778,1.4261,1.5902,1.7581,1.9204,2.083,2.2371,2.3767,2.3827,2.3952,2.3986,-3.2371,0.0,0.0,-3.4661,0.0,0.0,-3.815,0.0,0.0,-3.8396,-3.8415,0.0,-3.8396,-3.8252,-3.8171,-3.8171,-3.7898,0.0,-3.7131,0.0,0.0,-3.5506,-3.5062,-3.4372,-3.3385,-3.2946,0.0,-3.2091,0.0,0.0,-3.2283,0.0,0.0,0.0,0.0,-3.2943,0.0,-3.2703,-3.2316,-3.1723,-3.0847,0.0,0.0,-2.9437,-2.9188,-2.9042,-2.9123,-2.9141,-2.9034,-2.8821,-2.8533,-2.8246,-2.8,-2.7742,-2.7474,-2.7258,-2.7036,-2.6808,-2.6607,-2.6437,-2.6297,-2.6262,-2.6139,-2.5999,-2.5999,-2.5908,-2.5835,0.0,0.0,0.0,0.0,0.0,0.0,0.0,0.0,0.0,0.0,0.0,0.0,0.0,-2.4334,0.0,-2.2331,-2.1005,-1.9642,-1.8224,0.0,0.0,0.0,0.0,0.0,-0.523,-0.2581,-0.011,0.2153,0.3842,0.535,0.6685,0.7675,0.8604,0.946,1.0474,1.154,1.2614,1.3878,1.5234,1.6651,1.8201,1.9671,2.1113,2.2515,2.3524,2.4179,2.3828,2.3588,2.3283,0.0,0.0,0.0,0.0,0.0,0.0,0.0,-3.7873,0.0,-3.8034,0.0,-3.8034,-3.8034,-3.7916,-3.7792,-3.7667,0.0,-3.6726,-3.5913,-3.5711,-3.5171,-3.4192,-3.3515,-3.3003,-3.2672,-3.2053,0.0,0.0,0.0,0.0,0.0,0.0,0.0,0.0,0.0,0.0,0.0,-3.099,-3.0467,0.0,-2.9972,-2.952,-2.8837,-2.8892,-2.8803,-2.8603,-2.8533,-2.8601,-2.8676,-2.8422,-2.811,-2.7783,-2.7439,-2.721,-2.7021,-2.6691,-2.6453,-2.6227,-2.6033,-2.5779,-2.5572,-2.5535,-2.5422,-2.5269,-2.5269,-2.5114,-2.4974,-2.5036,-2.4942,-2.4871,0.0,0.0,0.0,0.0,0.0,0.0,0.0,0.0,0.0,0.0,0.0,0.0,0.0,-2.3091,-2.1976,0.0,0.0,0.0,0.0,0.0,0.0,-0.6115,-0.2418,0.0,0.3962,0.0,0.8204,0.9722,1.0647,1.1577,1.2488,1.3369,1.4305,1.5368,1.6505,1.7805,1.9155,2.0469,2.1707,2.2862,2.3921,2.4121,2.3724,2.2857,2.2366,2.2013,0.0,0.0,0.0,0.0,0.0,-3.4129,-3.5154,-3.6666,-3.7685,-3.7685,-3.7685,-3.7685,-3.7685,-3.7521,-3.7143,-3.6469,-3.6136,0.0,0.0,0.0,0.0,-3.2956,-3.2801,-3.2342,-3.1511,-3.1375,-3.1308,0.0,0.0,0.0,0.0,0.0,0.0,0.0,0.0,0.0,-3.0429,-2.9833,0.0,-2.9394,-2.8899,-2.8626,-2.85,-2.844,-2.8362,-2.8264,-2.8027,-2.811,-2.8264,-2.8065,-2.7765,-2.7439,-2.708,-2.6791,-2.647,-2.6068,-2.5832,-2.5663,-2.5214,-2.5098,-2.4981,-2.4815,-2.4655,-2.4492,-2.4492,-2.4343,-2.4177,-2.4219,-2.412,-2.4021,-2.4021,0.0,0.0,0.0,0.0,0.0,0.0,0.0,0.0,0.0,0.0,0.0,0.0,0.0,0.0,0.0,0.0,0.0,0.0,0.0,0.0,0.0,-0.2139,0.0,0.0,0.0,1.1947,1.3398,1.4378,1.5257,1.6028,1.6832,1.7664,1.8449,1.9386,2.0368,2.1396,2.2306,2.3221,2.4057,2.4018,2.3542,2.2773,2.1524,2.0353,1.9375,0.0,0.0,0.0,0.0,0.0,0.0,0.0,-3.4909,0.0,-3.6058,-3.6112,-3.6112,-3.6112,-3.5927,-3.5656,-3.5269,-3.4931,-3.4384,-3.3529,-3.336,-3.2877,-3.1811,-3.1704,0.0,-3.0952,-3.0855,-3.0855,-3.0855,0.0,0.0,0.0,0.0,0.0,0.0,0.0,-2.9382,0.0,0.0,0.0,-2.8329,-2.8103,-2.7943,-2.7933,-2.7933,-2.7818,-2.7672,-2.7491,-2.7426,-2.7422,-2.7391,-2.7161,-2.6824,-2.6437,-2.6175,-2.5921,-2.5443,-2.5214,-2.4997,-2.4679,-2.4477,-2.4313,-2.4105,-2.3937,-2.3809,-2.3797,-2.361,-2.3436,-2.3436,-2.329,-2.3098,-2.3054,-2.2905,0.0,0.0,0.0,0.0,0.0,0.0,0.0,0.0,0.0,0.0,0.0,0.0,0.0,0.0,0.0,0.0,0.0,0.0,0.0,0.0,0.0,0.0,0.0,0.0,0.0,1.7125,1.7888,1.8545,1.9138,1.9736,2.0345,2.0951,2.1597,2.2276,2.2933,2.3443,2.3788,2.3914,2.33,2.2445,2.1395,2.0091,1.871,1.7463,0.0,-3.1504,0.0,0.0,-3.217,0.0,-3.2548,-3.3063,-3.3757,-3.4489,-3.4579,-3.4579,-3.4579,-3.4391,-3.4206,-3.4033,-3.3744,-3.318,-3.2293,-3.2156,-3.1742,-3.0929,-3.074,-3.0617,-3.0568,-3.0426,-3.026,0.0,0.0,0.0,0.0,0.0,0.0,0.0,0.0,0.0,0.0,0.0,-2.7293,-2.7324,-2.7382,-2.74,-2.7355,-2.7352,-2.7227,-2.7021,-2.6906,-2.6708,-2.6505,-2.6522,-2.6402,-2.6191,-2.5779,-2.5535,-2.5323,-2.4879,-2.4583,-2.4338,-2.412,-2.3824,-2.3566,-2.3421,-2.329,-2.3157,-2.3083,-2.2904,-2.2709,-2.2663,-2.2466,-2.2235,-2.2035,-2.1894,0.0,0.0,0.0,0.0,0.0,0.0,0.0,0.0,0.0,0.0,0.0,0.0,0.0,0.0,0.0,0.0,0.0,0.0,0.0,0.0,0.0,0.524,1.4337,0.0,1.9263,0.0,2.0767,2.1229,2.1641,2.2003,2.237,2.2754,2.3149,2.3477,2.3734,2.383,2.3569,2.3051,2.213,2.1059,1.9865,1.857,1.7183,1.596,0.0,0.0,0.0,0.0,0.0,0.0,0.0,-3.1421,-3.2105,-3.3908,-3.4159,-3.4159,-3.4159,-3.398,-3.3568,-3.2809,-3.2576,-3.2013,-3.1036,-3.0945,-3.0807,-3.0459,-3.0316,-3.0189,-3.006,-2.9941,-2.9589,0.0,0.0,0.0,0.0,0.0,0.0,0.0,0.0,0.0,0.0,-2.6725,-2.6758,-2.6791,-2.6858,-2.6873,-2.6841,-2.6674,-2.6556,-2.6436,-2.6245,-2.6033,-2.5758,-2.5443,-2.5594,-2.5779,-2.5368,-2.4981,-2.4623,-2.4271,-2.3937,-2.3638,-2.3436,-2.3216,-2.2934,-2.283,-2.2632,-2.2463,-2.2324,-2.217,-2.203,-2.1935,-2.1698,-2.141,-2.1188,-2.0894,-2.0759,0.0,0.0,0.0,0.0,0.0,0.0,0.0,0.0,0.0,0.0,0.0,0.0,0.0,0.0,0.0,0.0,0.0,0.0,-0.6986,0.0,0.6597,1.4403,1.8518,0.0,2.196,2.2449,2.2788,2.3014,2.3233,2.341,2.3513,2.3679,2.365,2.3499,2.2957,2.2331,2.1584,2.0487,1.9413,1.8328,1.6937,1.5775,1.4812,0.0,0.0,0.0,0.0,0.0,0.0,0.0,-3.0773,-3.1056,-3.1847,-3.2173,-3.2349,-3.2349,-3.223,-3.1975,-3.1556,-3.1395,-3.1074,-3.0485,-3.0426,-3.0145,-2.9482,-2.928,-2.8957,-2.8436,-2.8249,-2.8035,0.0,0.0,0.0,0.0,0.0,0.0,0.0,0.0,-2.62,-2.5994,-2.6137,-2.6225,-2.6225,-2.626,-2.626,-2.6243,-2.6085,-2.5977,-2.5885,-2.561,-2.5346,-2.5114,-2.4664,-2.4784,-2.5005,-2.4567,-2.4214,-2.3921,-2.3493,-2.3231,-2.3024,-2.2723,-2.2495,-2.231,-2.2109,-2.1935,-2.1746,-2.1616,-2.1458,-2.1251,-2.1202,-2.0921,-2.0623,-2.0346,-2.0156,-1.9914,0.0,0.0,0.0,0.0,0.0,0.0,0.0,0.0,0.0,0.0,0.0,0.0,0.0,0.0,0.0,0.0,0.0,0.0,-0.6094,0.0,0.6211,1.5062,1.8436,2.0542,2.1489,2.1827,2.2154,2.2432,2.2505,2.2561,2.2557,2.2479,2.2243,2.1879,2.1204,2.0508,1.9745,1.8593,1.7552,1.6539,1.5469,1.4494,1.3653,-3.0401,0.0,-3.0401,0.0,-3.0401,-3.0401,-3.0401,-3.0401,-3.0359,-3.0359,-3.0427,-3.062,-3.0958,-3.0895,-3.0757,-3.0658,-3.0352,-3.0046,-2.9734,-2.9495,-2.9069,-2.8329,-2.8067,0.0,-2.719,-2.6993,-2.6769,-2.6549,-2.6549,0.0,0.0,0.0,0.0,0.0,-2.5262,-2.54,-2.5438,-2.5605,-2.5642,-2.5659,-2.5605,-2.5605,-2.5605,-2.5438,-2.5323,-2.5169,-2.4895,-2.4639,-2.4395,-2.3937,-2.3879,-2.3948,-2.3752,-2.3508,-2.3187,-2.2799,-2.2526,-2.2296,-2.203,-2.1793,-2.1589,-2.1361,-2.1215,-2.1068,-2.0871,-2.0709,-2.0547,-2.0409,-2.0105,-1.9811,-1.9552,-1.9396,-1.9186,-1.8815,0.0,0.0,0.0,0.0,0.0,0.0,-1.7168,-1.7157,-1.7013,0.0,0.0,0.0,0.0,0.0,0.0,0.0,0.0,0.0,0.0,0.0,0.0,1.6702,1.8583,1.9478,1.9887,2.0246,2.057,2.0696,2.0767,2.0719,2.0446,2.0134,1.975,1.906,1.8397,1.7733,1.6628,1.569,1.4936,1.4125,1.3379,1.2735,-3.0189,-3.0189,-3.0189,-3.0189,-3.0189,-3.0189,-3.0189,-3.0103,-3.0017,-3.0017,-2.9312,-2.9277,-3.0402,-3.0443,-3.0359,-3.0231,-2.9466,-2.8874,-2.8533,-2.7817,-2.7348,0.0,0.0,-2.6745,-2.6729,-2.6497,-2.6039,-2.533,0.0,0.0,-2.4333,0.0,-2.4513,-2.4539,-2.471,-2.4815,-2.4815,-2.5013,-2.5107,-2.5091,-2.4958,-2.4902,-2.4902,-2.4695,-2.4467,-2.4302,-2.4162,-2.3894,-2.3551,-2.3216,-2.2844,-2.2603,-2.2979,-2.2844,-2.2466,-2.2263,-2.1841,-2.141,-2.1423,-2.1104,-2.0795,-2.066,-2.051,-2.0359,-2.0093,-1.9991,-1.9901,-1.9512,-1.9303,-1.9133,-1.8851,-1.8679,-1.8494,-1.8159,0.0,0.0,0.0,0.0,0.0,0.0,-1.6218,-1.5989,-1.5671,0.0,0.0,0.0,0.0,0.0,0.0,0.0,0.0,-0.5851,-0.1328,0.0,0.9806,1.3073,1.5057,1.5867,1.6605,1.7134,1.7455,1.7885,1.8043,1.8012,1.7688,1.7427,1.7182,1.652,1.6021,1.5564,1.4609,1.4021,1.3643,1.289,1.2491,1.2274,-2.9629,-2.9339,-2.906,-2.906,-2.864,-2.8285,-2.8285,-2.8243,-2.8217,-2.8164,-2.7945,-2.7865,-2.8158,-2.8443,-2.8526,0.0,-2.8049,-2.7737,0.0,-2.7028,-2.6612,-2.5886,-2.5669,-2.5323,-2.4863,-2.4633,-2.4396,-2.4126,0.0,0.0,0.0,-2.3867,-2.3925,-2.4009,-2.4078,-2.4177,-2.4261,-2.4302,-2.4343,-2.4343,-2.4287,-2.4245,-2.4147,-2.3979,-2.3767,-2.3537,-2.3363,-2.3054,-2.2649,-2.2342,-2.2016,-2.1732,-2.1465,-2.1575,-2.1684,-2.1251,-2.1006,-2.0809,-2.051,-2.0295,-2.0105,-1.9965,-1.9759,-1.954,-1.9488,-1.9291,-1.9093,-1.8709,-1.8536,-1.8375,-1.8084,-1.792,-1.7689,-1.729,-1.7145,0.0,0.0,0.0,0.0,0.0,-1.5371,-1.5137,0.0,-1.4706,0.0,0.0,0.0,0.0,0.0,0.0,0.0,0.0,-0.2717,0.0,0.5549,0.8223,1.0178,1.1452,1.2233,1.3038,1.386,1.4275,1.4529,1.4653,1.4635,1.4583,1.444,1.41,1.3786,1.3408,1.283,1.2425,1.2199,1.1841,1.161,1.1477,-2.8506,-2.8236,-2.7976,-2.7976,-2.7593,-2.729,-2.729,-2.7232,-2.7206,-2.7094,-2.683,-2.6572,-2.6428,-2.6445,0.0,-2.7084,-2.691,-2.6583,-2.6094,-2.5818,-2.5392,-2.4689,-2.4502,-2.4234,-2.3726,0.0,0.0,-2.3334,-2.3334,-2.3334,-2.3334,-2.3334,-2.3377,-2.3465,-2.3523,-2.3566,-2.3668,-2.3711,-2.3754,-2.3711,-2.3668,-2.3566,-2.3436,-2.3334,-2.3098,-2.2785,-2.2572,-2.2249,-2.1908,-2.1492,-2.1153,-2.0858,-2.0359,-2.0359,-2.0459,-2.0359,-2.0207,-2.0003,-1.9695,-1.9552,-1.9344,-1.9186,-1.8975,-1.8869,-1.875,-1.856,-1.8302,-1.8061,-1.7831,-1.7611,-1.7423,-1.7256,-1.7022,-1.6513,-1.6457,-1.6228,-1.5652,0.0,0.0,0.0,0.0,0.0,0.0,-1.3821,0.0,0.0,0.0,0.0,0.0,0.0,0.0,-0.7191,-0.4045,0.0,0.1878,0.4088,0.5963,0.7526,0.8393,0.942,1.0499,1.0899,1.1275,1.1619,1.1792,1.1935,1.199,1.1871,1.1751,1.1679,1.1258,1.1116,1.1065,1.0947,1.0812,1.0769,-2.7051,-2.7004,0.0,0.0,-2.6941,0.0,-2.6909,-2.6808,-2.6647,-2.6545,-2.587,-2.5339,-2.5195,-2.4614,-2.4837,-2.6349,0.0,0.0,0.0,-2.4288,-2.3839,-2.3551,-2.3494,-2.3363,-2.3275,-2.3127,-2.2994,-2.2844,-2.2844,-2.2844,-2.2844,-2.2844,-2.2844,-2.2844,-2.2994,-2.3038,-2.3038,-2.3187,-2.3216,-2.3231,-2.3083,-2.2934,-2.2799,-2.2649,-2.2388,-2.2091,-2.1793,-2.1554,-2.1215,-2.0709,-2.0346,-2.0029,-1.9643,-1.9251,-1.904,-1.954,-1.9436,-1.9069,-1.8987,-1.8839,-1.8625,-1.8333,-1.8224,-1.817,-1.7909,-1.7755,-1.759,-1.7468,-1.7179,-1.6899,-1.6751,-1.6637,-1.64,-1.5931,-1.5816,-1.5652,-1.5029,0.0,0.0,0.0,0.0,0.0,0.0,-1.3155,-1.2867,0.0,0.0,0.0,0.0,0.0,-0.9127,-0.7197,-0.5315,-0.3299,-0.1107,0.0675,0.2428,0.4187,0.5197,0.6207,0.7331,0.7751,0.8293,0.8892,0.9165,0.9489,0.9828,0.9828,0.999,1.021,1.0012,1.0012,1.0115,1.0138,1.0146,1.0198,0.0,0.0,-2.6036,-2.6036,-2.5529,-2.5103,-2.5103,-2.5004,-2.4863,-2.4706,-2.4514,-2.428,-2.4195,-2.3915,-2.3902,-2.4234,-2.4344,-2.4253,-2.3864,-2.3627,-2.3392,-2.3216,-2.3024,-2.2889,-2.2844,-2.2768,-2.2646,-2.2509,-2.2402,-2.2356,-2.2356,-2.2356,-2.2356,-2.2356,-2.2402,-2.2402,-2.2402,-2.2449,-2.2463,-2.2449,-2.231,-2.217,-2.203,-2.1793,-2.1554,-2.1277,-2.0957,-2.066,-2.0295,-1.9965,-1.9604,-1.9239,-1.8922,-1.8548,-1.8278,-1.8762,-1.8643,-1.8309,-1.8224,-1.7963,-1.7799,-1.7689,-1.759,-1.7423,-1.7145,-1.7043,-1.692,-1.6637,-1.6457,-1.6275,-1.6171,-1.6009,-1.5788,-1.5313,-1.5196,-1.502,-1.4488,-1.4309,0.0,0.0,-1.3571,-1.3277,-1.2858,-1.2744,-1.2436,0.0,0.0,0.0,0.0,-0.9907,-0.9029,-0.7812,-0.6337,-0.4794,-0.3144,-0.1816,-0.0171,0.1886,0.2709,0.3531,0.4354,0.5175,0.5833,0.6382,0.7026,0.7517,0.7966,0.8283,0.8495,0.8652,0.8876,0.9099,0.9309,0.942,0.9569,0.9777,-2.5478,-2.5246,-2.4998,-2.4941,-2.4564,-2.4234,-2.4193,-2.4094,-2.4009,-2.3839,-2.3797,-2.3726,-2.348,-2.3436,-2.3304,-2.3127,-2.3494,-2.3538,-2.3275,-2.3083,-2.2949,-2.2768,-2.2632,-2.2495,-2.2388,-2.2356,-2.2278,-2.2137,-2.2044,-2.2044,-2.2044,-2.2044,-2.1996,-2.1949,-2.1949,-2.1902,-2.1841,-2.1841,-2.1841,-2.1793,-2.1712,-2.1568,-2.1423,-2.1118,-2.0871,-2.0586,-2.0271,-1.9901,-1.9592,-1.9239,-1.8881,-1.8452,-1.8236,-1.7799,-1.7468,-1.7689,-1.7678,-1.7556,-1.7401,-1.7245,-1.7078,-1.6965,-1.692,-1.6751,-1.6457,-1.64,-1.6285,-1.5941,-1.5778,-1.5662,-1.5536,-1.5371,-1.5137,-1.4725,-1.4556,-1.4369,-1.3941,-1.3761,0.0,-1.3216,-1.3033,-1.285,-1.2498,-1.2251,-1.1996,-1.1622,0.0,0.0,-1.0301,-0.9722,-0.9005,-0.8096,-0.7058,-0.59,-0.4563,-0.3115,-0.1556,0.0111,0.0836,0.1615,0.2393,0.3166,0.3944,0.478,0.5429,0.6086,0.6637,0.7074,0.7396,0.7664,0.799,0.8256,0.8521,0.8738,0.9001,0.9263,-2.4166,-2.4166,-2.4124,-2.3982,-2.394,-2.3897,-2.3754,-2.3696,-2.361,-2.3451,-2.3407,-2.3275,-2.3083,-2.3038,-2.2934,-2.2663,-2.2949,-2.3038,-2.2859,-2.2709,-2.2526,-2.237,-2.2324,-2.2184,-2.1949,-2.1902,-2.1793,-2.1712,-2.1712,-2.1664,-2.1664,-2.1664,-2.1616,-2.152,-2.152,-2.141,-2.1326,-2.1326,-2.1326,-2.1277,-2.1131,-2.0983,-2.0835,-2.0523,-2.0271,-2.0029,-1.9617,-1.9291,-1.8963,-1.8614,-1.8127,-1.7689,-1.759,-1.7145,-1.6637,-1.6637,-1.6684,-1.6729,-1.6694,-1.6513,-1.64,-1.6239,-1.6181,-1.6114,-1.5826,-1.5758,-1.5642,-1.5352,-1.5196,-1.5029,-1.4852,-1.4725,-1.4478,-1.413,-1.395,-1.3761,-1.345,0.0,-1.3094,-1.2744,-1.256,-1.2375,-1.2182,-1.1809,-1.1498,-1.1435,-1.0933,-1.0498,0.0,-0.9594,-0.8947,-0.8231,-0.7609,-0.6674,-0.5441,-0.3685,-0.2313,-0.1296,-0.0505,0.028,0.1062,0.1675,0.2565,0.3572,0.4233,0.4948,0.5609,0.605,0.649,0.6977,0.7246,0.7563,0.7871,0.815,0.848,0.8752,-2.4082,-2.4024,-2.3982,-2.3839,-2.3739,-2.3653,-2.3553,-2.3348,-2.3216,-2.3172,-2.2934,-2.2799,-2.2754,-2.2723,-2.2601,-2.2463,-2.2402,-2.2402,-2.2463,-2.2356,-2.2217,-2.2091,-2.1949,-2.1793,-2.1664,-2.1423,-2.1326,-2.1277,-2.118,-2.1131,-2.1131,-2.1131,-2.1082,-2.1082,-2.1082,-2.1019,-2.0894,-2.0894,-2.0809,-2.0709,-2.0472,-2.0334,-2.0283,-1.9772,-1.9577,-1.9473,-1.8934,-1.8548,-1.8213,-1.792,-1.7423,-1.6976,-1.6931,-1.6513,-1.6046,-1.6046,-1.5768,-1.5546,-1.5941,-1.5816,-1.5584,-1.5526,-1.5526,-1.5478,-1.5196,-1.5147,-1.502,-1.4706,-1.4588,-1.4538,-1.4189,-1.413,-1.3941,-1.3511,-1.339,-1.3277,-1.2981,0.0,-1.2621,-1.2428,-1.212,-1.1872,-1.1747,-1.149,-1.1178,-1.0814,-1.0688,-1.0301,-0.9652,-0.9274,-0.8753,-0.8236,-0.7687,-0.6677,-0.5065,-0.3988,-0.3042,-0.2159,-0.1364,-0.0617,-0.0,0.0951,0.1789,0.2406,0.3347,0.4125,0.4736,0.5281,0.5719,0.6218,0.6652,0.7079,0.745,0.7717,0.7996,0.8328,-2.3839,-2.3782,-2.3739,-2.3581,-2.3436,-2.3304,-2.3172,-2.3038,-2.2844,-2.2828,-2.2723,-2.2586,-2.2449,-2.2402,-2.2324,-2.2091,-2.2044,-2.1996,-2.1996,-2.1996,-2.1902,-2.1712,-2.1616,-2.1471,-2.1277,-2.118,-2.1082,-2.0957,-2.0921,-2.0871,-2.0772,-2.0772,-2.0723,-2.0686,-2.0686,-2.0573,-2.0472,-2.0422,-2.0321,-2.0271,-1.9978,-1.9823,-1.972,-1.9303,-1.9093,-1.8881,-1.8398,-1.8007,-1.7733,-1.7368,-1.6864,-1.64,-1.6343,-1.5884,-1.543,-1.543,-1.5254,-1.5088,-1.5235,-1.5118,-1.4942,-1.4942,-1.4942,-1.4824,-1.4606,-1.4488,-1.4369,-1.4181,-1.4052,-1.3872,-1.364,-1.3519,-1.3346,-1.3103,-1.285,0.0,0.0,-1.2305,-1.212,-1.1934,-1.1685,-1.1428,-1.1185,-1.0996,-1.0744,-1.0308,-1.0104,-0.9779,-0.9268,-0.8888,-0.8506,-0.7917,-0.7265,-0.6387,-0.5251,-0.4374,-0.3522,-0.2644,-0.1854,-0.1198,-0.0561,0.0448,0.1231,0.1846,0.2627,0.3408,0.407,0.4622,0.512,0.5563,0.6109,0.6539,0.6864,0.7241,0.7622,0.7949,-2.361,-2.3566,-2.348,-2.3216,-2.3127,-2.2979,-2.2859,-2.2709,-2.2572,-2.2509,-2.2463,-2.237,-2.2137,-2.2137,-2.1996,-2.1746,-2.1746,-2.1664,-2.152,-2.1616,-2.1568,-2.1375,-2.1291,-2.1193,-2.0934,-2.0885,-2.0785,-2.066,-2.066,-2.061,-2.051,-2.051,-2.0422,-2.0321,-2.0321,-2.0233,-2.008,-1.9926,-1.9888,-1.9772,-1.9565,-1.9356,-1.9198,-1.8881,-1.8614,-1.8344,-1.7909,-1.7579,-1.719,-1.6807,-1.6343,-1.5941,-1.5768,-1.5303,-1.4852,-1.4793,-1.4675,-1.4606,-1.4538,-1.435,-1.4291,-1.4291,-1.4291,-1.4231,-1.4001,-1.3881,-1.3769,-1.3588,-1.3459,-1.3268,-1.3086,-1.2911,-1.2736,-1.2613,0.0,0.0,0.0,-1.1809,-1.1553,-1.1435,-1.1178,-1.0926,-1.0618,-1.0491,-1.0244,-0.9856,-0.9524,-0.9204,-0.8823,-0.8506,-0.8057,-0.7405,-0.6745,-0.6021,-0.5368,-0.4577,-0.3773,-0.294,-0.2206,-0.152,-0.0965,0.0057,0.0847,0.1511,0.2128,0.2852,0.3516,0.4128,0.4629,0.5124,0.5622,0.6059,0.6386,0.6869,0.7241,0.7616,-2.3494,-2.3407,-2.3231,-2.2979,-2.2934,-2.2859,-2.2646,-2.2509,-2.237,-2.2231,-2.2137,-2.1996,-2.1841,-2.1841,-2.1746,-2.1616,-2.1616,-2.152,-2.1229,-2.1229,-2.1229,-2.1229,-2.1023,-2.0861,-2.061,-2.0549,-2.0448,-2.0233,-2.0233,-2.0233,-2.0233,-2.0233,-2.0182,-2.0042,-2.0042,-1.9875,-1.9656,-1.9604,-1.9512,-1.9239,-1.9093,-1.8881,-1.8614,-1.8302,-1.7975,-1.7711,-1.7445,-1.7032,-1.6627,-1.6285,-1.5826,-1.541,-1.5147,-1.4843,-1.4478,-1.4189,-1.3761,-1.3511,-1.3769,-1.37,-1.3563,-1.3563,-1.3563,-1.3571,-1.339,-1.339,-1.3268,-1.292,-1.2867,-1.2736,-1.2428,-1.2243,-1.212,-1.1934,0.0,0.0,-1.1428,-1.1247,-1.1059,-1.087,-1.0555,-1.0301,-1.011,-0.9926,-0.9734,-0.9402,-0.9145,-0.8818,-0.8301,-0.7917,-0.7405,-0.6548,-0.628,-0.5877,-0.5137,-0.4496,-0.3852,-0.3068,-0.2365,-0.1754,-0.1234,-0.0235,0.0635,0.1346,0.1961,0.2573,0.3186,0.3799,0.4408,0.4956,0.5238,0.5681,0.6228,0.6598,0.6923,0.7192,-2.329,-2.3142,-2.3008,-2.2857,-2.2692,-2.254,-2.237,-2.2231,-2.2091,-2.1996,-2.1902,-2.1793,-2.1712,-2.1664,-2.1616,-2.1471,-2.1423,-2.1326,-2.1229,-2.1059,-2.0961,-2.0822,-2.0699,-2.0562,-2.0372,-2.0334,-2.0246,-2.0093,-1.9965,-1.9914,-1.9823,-1.972,-1.9681,-1.9629,-1.9629,-1.9577,-1.9473,-1.9303,-1.9198,-1.904,-1.8732,-1.8464,-1.8247,-1.7975,-1.7711,-1.7379,-1.7043,-1.6637,-1.6228,-1.5826,-1.5352,-1.4883,-1.4606,-1.424,-1.3812,-1.3407,-1.3042,-1.2858,-1.2858,-1.2972,-1.3042,-1.2911,-1.2903,-1.285,-1.285,-1.2728,-1.2605,-1.2428,-1.2243,-1.212,-1.1872,-1.1622,-1.1435,-1.1373,0.0,-1.0933,-1.087,-1.0618,-1.0364,-1.0301,-1.004,-0.9722,-0.9402,-0.9344,-0.9081,-0.8624,-0.8501,-0.8177,-0.7782,-0.7199,-0.6613,-0.5951,-0.5683,-0.5355,-0.4894,-0.4383,-0.3733,-0.2961,-0.2356,-0.181,-0.1335,-0.0364,0.0537,0.133,0.1791,0.2283,0.2912,0.3524,0.4024,0.4522,0.5018,0.5458,0.5896,0.6223,0.6657,0.7036,-2.3068,-2.2918,-2.2783,-2.2689,-2.2477,-2.2278,-2.2184,-2.2044,-2.1902,-2.1746,-2.1746,-2.1712,-2.1568,-2.1568,-2.1471,-2.1375,-2.1229,-2.1193,-2.1095,-2.0875,-2.0712,-2.0573,-2.0448,-2.0296,-2.0131,-2.008,-2.0029,-1.9875,-1.9759,-1.9604,-1.9565,-1.942,-1.9368,-1.9328,-1.9316,-1.9263,-1.921,-1.8999,-1.8827,-1.8667,-1.841,-1.8139,-1.7822,-1.7656,-1.7323,-1.6998,-1.6581,-1.6228,-1.5826,-1.5352,-1.4883,-1.4478,-1.4121,-1.364,-1.3155,-1.2736,-1.2498,-1.2313,-1.212,-1.2182,-1.2305,-1.2297,-1.2297,-1.2297,-1.2236,-1.2182,-1.1996,-1.1809,-1.1685,-1.1498,-1.131,-1.0996,-1.0744,-1.0744,-1.0491,-1.0231,-1.0231,-0.9919,-0.9664,-0.9664,-0.9402,-0.9075,-0.8694,-0.8694,-0.8501,-0.8042,-0.7787,-0.7461,-0.7003,-0.6416,-0.5888,-0.5355,-0.5024,-0.4691,-0.4425,-0.4025,-0.3522,-0.2805,-0.2352,-0.1868,-0.1442,-0.0438,0.0493,0.1436,0.1733,0.224,0.2828,0.3426,0.3863,0.4307,0.4812,0.5234,0.5567,0.6009,0.6391,0.6717,-2.2889,-2.2737,-2.2555,-2.2417,-2.2278,-2.2137,-2.2044,-2.1888,-2.1746,-2.1616,-2.1616,-2.1568,-2.1423,-2.1423,-2.1326,-2.1229,-2.118,-2.1095,-2.0888,-2.0625,-2.0511,-2.0511,-2.0296,-2.0131,-1.999,-1.9862,-1.9759,-1.9617,-1.9473,-1.942,-1.942,-1.942,-1.9328,-1.9182,-1.9052,-1.8946,-1.8798,-1.8667,-1.8398,-1.8084,-1.8084,-1.7755,-1.7278,-1.7278,-1.6941,-1.6374,-1.6181,-1.5768,-1.5294,-1.4824,-1.4478,-1.413,-1.3631,-1.3094,-1.256,-1.2367,-1.2058,-1.1747,-1.1622,-1.1435,-1.1365,-1.1677,-1.1802,-1.174,-1.1622,-1.156,-1.1498,-1.1185,-1.1059,-1.0996,-1.0624,-1.0238,-0.9983,-0.9983,-0.9716,-0.9518,-0.9518,-0.9204,-0.9017,-0.9017,-0.8705,-0.8382,-0.8052,-0.7987,-0.7852,-0.7526,-0.7138,-0.6618,-0.5954,-0.5557,-0.5229,-0.4831,-0.45,-0.4028,-0.3487,-0.3487,-0.322,-0.2686,-0.2354,-0.1991,-0.1552,-0.0452,0.0572,0.1608,0.1913,0.2402,0.3009,0.3507,0.3987,0.4439,0.4797,0.5073,0.5356,0.5845,0.6064,0.6287,-2.2737,-2.2555,-2.2417,-2.2278,-2.2137,-2.1996,-2.1746,-2.1712,-2.1616,-2.1471,-2.1471,-2.1423,-2.1423,-2.1326,-2.1229,-2.118,-2.1059,-2.0875,-2.0625,-2.0309,-2.0093,-2.0016,-2.0029,-1.9926,-1.972,-1.9656,-1.9617,-1.9473,-1.9328,-1.9275,-1.9275,-1.9158,-1.9052,-1.8905,-1.8905,-1.8786,-1.8614,-1.8356,-1.8193,-1.8084,-1.7711,-1.7434,-1.7278,-1.6828,-1.6477,-1.6124,-1.5768,-1.5294,-1.4824,-1.4478,-1.4061,-1.3631,-1.3042,-1.249,-1.1996,-1.1872,-1.1622,-1.1373,-1.1122,-1.0996,-1.0996,-1.1247,-1.1185,-1.1122,-1.1059,-1.0996,-1.0807,-1.0428,-1.0301,-1.0238,-0.9907,-0.953,-0.9274,-0.9274,-0.9022,-0.8759,-0.8619,-0.8436,-0.8247,-0.8117,-0.7922,-0.7661,-0.7269,-0.7204,-0.7073,-0.6745,-0.6416,-0.5888,-0.516,-0.503,-0.4761,-0.4228,-0.3892,-0.3625,-0.3291,-0.3291,-0.2956,-0.2354,-0.2221,-0.1675,-0.0731,-0.0066,0.0785,0.1718,0.2037,0.2514,0.3013,0.353,0.3996,0.4414,0.4848,0.5247,0.5604,0.6078,0.6433,0.6667,-2.2555,-2.237,-2.2231,-2.2137,-2.1996,-2.1793,-2.1616,-2.1568,-2.1471,-2.1423,-2.1423,-2.1423,-2.1423,-2.1277,-2.118,-2.1131,-2.0861,-2.0625,-2.0309,-2.0093,-1.9926,-1.9759,-1.9823,-1.972,-1.9512,-1.9473,-1.942,-1.9328,-1.917,-1.9117,-1.9117,-1.8999,-1.8893,-1.8798,-1.8691,-1.8572,-1.841,-1.8139,-1.792,-1.7767,-1.7434,-1.7166,-1.6885,-1.642,-1.6066,-1.5758,-1.5294,-1.4883,-1.4529,-1.4061,-1.358,-1.3033,-1.2428,-1.1996,-1.1685,-1.1435,-1.1247,-1.0996,-1.0807,-1.0555,-1.0428,-1.0561,-1.0555,-1.0491,-1.0428,-1.0301,-1.004,-0.9658,-0.96,-0.9466,-0.9069,-0.8753,-0.8565,-0.8501,-0.8247,-0.8052,-0.7847,-0.7657,-0.7531,-0.7335,-0.7064,-0.6802,-0.6552,-0.6416,-0.6218,-0.5822,-0.5557,-0.516,-0.4495,-0.4428,-0.4161,-0.3694,-0.3355,-0.3088,-0.2824,-0.2824,-0.2624,-0.2221,-0.2018,-0.1345,-0.0202,0.0538,0.1265,0.1902,0.223,0.2662,0.3251,0.3585,0.4001,0.4494,0.4874,0.5214,0.5578,0.6005,0.6371,0.6671,-2.237,-2.2184,-2.1996,-2.1996,-2.1746,-2.1616,-2.1568,-2.1471,-2.1423,-2.1423,-2.1423,-2.1423,-2.1375,-2.1277,-2.1131,-2.0997,-2.0649,-2.036,-2.0042,-1.999,-1.9823,-1.9617,-1.9565,-1.9512,-1.9368,-1.9275,-1.917,-1.917,-1.9052,-1.8999,-1.8999,-1.8839,-1.8798,-1.8744,-1.8476,-1.8259,-1.8084,-1.7909,-1.7634,-1.7278,-1.7222,-1.6885,-1.6316,-1.6124,-1.5758,-1.5294,-1.4824,-1.4597,-1.4291,-1.3631,-1.3033,-1.2375,-1.1809,-1.156,-1.1498,-1.1122,-1.0814,-1.0561,-1.0491,-1.018,-0.9734,-0.974,-0.9798,-0.9792,-0.9734,-0.953,-0.9262,-0.8952,-0.8888,-0.8759,-0.8236,-0.7982,-0.7857,-0.7666,-0.7461,-0.7326,-0.7138,-0.6942,-0.6745,-0.6609,-0.6276,-0.5947,-0.5822,-0.562,-0.5286,-0.4761,-0.4697,-0.4495,-0.3961,-0.3825,-0.3558,-0.3161,-0.2822,-0.2487,-0.2221,-0.2154,-0.2154,-0.2154,-0.1681,-0.0942,0.0067,0.1144,0.1817,0.2221,0.2356,0.2827,0.3491,0.3721,0.4129,0.4632,0.4823,0.5142,0.5448,0.575,0.6115,0.6484,-2.2137,-2.2044,-2.1949,-2.1698,-2.1664,-2.1568,-2.1471,-2.1423,-2.1423,-2.1423,-2.1423,-2.1375,-2.1229,-2.1131,-2.0997,-2.0924,-2.0498,-2.0195,-1.999,-1.9772,-1.9617,-1.9473,-1.9328,-1.921,-1.9093,-1.917,-1.917,-1.9052,-1.8905,-1.8851,-1.8851,-1.8732,-1.8572,-1.8476,-1.8259,-1.8084,-1.7909,-1.759,-1.7312,-1.7022,-1.6705,-1.6363,-1.5999,-1.5642,-1.5235,-1.4824,-1.4588,-1.4172,-1.3631,-1.2981,-1.2367,-1.1809,-1.1622,-1.131,-1.0933,-1.0744,-1.0555,-1.0301,-0.9843,-0.9652,-0.9466,-0.9092,-0.8823,-0.8689,-0.9081,-0.8818,-0.8431,-0.8242,-0.8117,-0.7857,-0.7461,-0.7269,-0.7073,-0.6937,-0.6605,-0.6342,-0.6218,-0.6017,-0.5818,-0.569,-0.5488,-0.5219,-0.5027,-0.4755,-0.442,-0.4025,-0.4025,-0.3758,-0.3224,-0.3157,-0.2958,-0.2557,-0.2423,-0.2288,-0.2221,-0.1817,-0.1547,-0.1547,-0.1008,-0.0336,0.0336,0.1345,0.1951,0.2221,0.2487,0.2958,0.3496,0.3735,0.4188,0.4782,0.4944,0.5325,0.5849,0.6173,0.65,0.6861,-2.2044,-2.1902,-2.1746,-2.1616,-2.1568,-2.1471,-2.1423,-2.1423,-2.1423,-2.1423,-2.1423,-2.1375,-2.1229,-2.1082,-2.0898,-2.0612,-2.0296,-2.0029,-1.9823,-1.9668,-1.9512,-1.9328,-1.9223,-1.9117,-1.8893,-1.8958,-1.8958,-1.8893,-1.8851,-1.8744,-1.8679,-1.8464,-1.8302,-1.8247,-1.7975,-1.7755,-1.759,-1.7211,-1.6931,-1.6694,-1.6296,-1.5941,-1.5642,-1.5235,-1.4883,-1.4529,-1.4172,-1.3631,-1.3033,-1.2613,-1.2058,-1.156,-1.1435,-1.1059,-1.0681,-1.0498,-1.0174,-0.9849,-0.9524,-0.921,-0.8952,-0.8506,-0.8047,-0.7847,-0.8371,-0.8112,-0.7657,-0.7531,-0.7265,-0.6999,-0.6609,-0.6412,-0.6214,-0.6083,-0.5815,-0.555,-0.5425,-0.5223,-0.5087,-0.4891,-0.4625,-0.4359,-0.4095,-0.3892,-0.3689,-0.3424,-0.3357,-0.309,-0.2757,-0.2555,-0.2421,-0.2288,-0.2018,-0.1817,-0.1884,-0.1144,-0.074,-0.074,-0.0404,0.0135,0.0874,0.1547,0.1951,0.2288,0.2554,0.309,0.3627,0.3758,0.4225,0.4831,0.4894,0.5359,0.5892,0.6086,0.6486,0.6933,-2.1996,-2.1746,-2.1616,-2.1568,-2.1471,-2.1423,-2.1423,-2.1423,-2.1423,-2.1423,-2.1423,-2.1326,-2.118,-2.1033,-2.0736,-2.0233,-2.0093,-1.9888,-1.9617,-1.9565,-1.9473,-1.9235,-1.9182,-1.9011,-1.8798,-1.8798,-1.8744,-1.8744,-1.8744,-1.8679,-1.8506,-1.8193,-1.803,-1.7975,-1.7634,-1.7379,-1.7211,-1.6874,-1.6591,-1.6316,-1.5941,-1.5642,-1.5303,-1.4824,-1.4529,-1.4291,-1.3692,-1.3094,-1.2498,-1.2243,-1.1872,-1.1435,-1.1122,-1.0814,-1.0498,-1.0238,-0.9843,-0.9396,-0.921,-0.8765,-0.8317,-0.7987,-0.7466,-0.7199,-0.7531,-0.7265,-0.6942,-0.6749,-0.6408,-0.6075,-0.5756,-0.5554,-0.5352,-0.5226,-0.5024,-0.4821,-0.4628,-0.4495,-0.4292,-0.4154,-0.3823,-0.3491,-0.3092,-0.3025,-0.2958,-0.2822,-0.2688,-0.2554,-0.2288,-0.2018,-0.1951,-0.2087,-0.1547,-0.1278,-0.1345,-0.0404,0.0135,0.0269,0.0269,0.074,0.148,0.1748,0.2085,0.249,0.2688,0.3155,0.3825,0.3825,0.4225,0.4831,0.4831,0.5229,0.5892,0.602,0.642,0.6946,-2.1841,-2.1712,-2.1568,-2.1471,-2.1423,-2.1423,-2.1423,-2.1423,-2.1423,-2.1423,-2.1423,-2.1277,-2.1033,-2.0749,-2.0448,-2.0233,-2.0093,-1.9888,-1.9617,-1.946,-1.9368,-1.9235,-1.897,-1.8851,-1.8798,-1.8679,-1.8625,-1.8625,-1.8518,-1.8367,-1.8139,-1.8018,-1.7799,-1.7579,-1.7379,-1.7155,-1.6874,-1.6602,-1.6249,-1.5941,-1.5584,-1.5303,-1.5029,-1.4656,-1.424,-1.3881,-1.3571,-1.3025,-1.2243,-1.1809,-1.1435,-1.1122,-1.0751,-1.0498,-1.0238,-0.9779,-0.946,-0.921,-0.877,-0.8312,-0.7922,-0.7461,-0.7003,-0.6675,-0.6284,-0.6152,-0.6086,-0.602,-0.562,-0.5219,-0.496,-0.4827,-0.4691,-0.4486,-0.4156,-0.3959,-0.3959,-0.3627,-0.336,-0.336,-0.3023,-0.2686,-0.2356,-0.2356,-0.2288,-0.2085,-0.2153,-0.2153,-0.1884,-0.1748,-0.1681,-0.1681,-0.0941,-0.0404,-0.0202,0.0135,0.0605,0.1211,0.1412,0.1615,0.1749,0.2018,0.2354,0.2686,0.3023,0.3357,0.3825,0.3894,0.4295,0.4831,0.4831,0.5229,0.5958,0.6552,0.6815,0.6946,-2.1793,-2.1616,-2.1471,-2.1423,-2.1423,-2.1423,-2.1423,-2.1423,-2.1423,-2.1423,-2.1326,-2.1229,-2.1033,-2.0599,-2.0296,-2.0233,-1.9926,-1.9668,-1.9512,-1.9368,-1.9223,-1.9011,-1.8851,-1.8744,-1.8583,-1.841,-1.829,-1.8236,-1.8247,-1.8139,-1.7963,-1.77,-1.749,-1.7379,-1.6998,-1.6715,-1.6534,-1.6202,-1.5836,-1.5584,-1.5313,-1.502,-1.4656,-1.4359,-1.4001,-1.358,-1.3155,-1.2544,-1.1872,-1.1685,-1.1247,-1.0807,-1.0624,-1.0238,-0.9779,-0.946,-0.9145,-0.8765,-0.8187,-0.7792,-0.7396,-0.6736,-0.6342,-0.5947,-0.5425,-0.5163,-0.503,-0.5229,-0.4827,-0.4425,-0.4292,-0.4095,-0.3894,-0.3692,-0.3422,-0.3155,-0.3155,-0.2889,-0.2624,-0.2624,-0.2488,-0.2287,-0.1884,-0.1884,-0.1817,-0.1748,-0.1817,-0.1614,-0.1076,-0.0808,-0.0673,-0.0673,-0.0337,0.0135,0.0875,0.0941,0.121,0.1614,0.1884,0.2018,0.2018,0.2154,0.2421,0.2889,0.3092,0.3426,0.3825,0.4095,0.4431,0.4831,0.503,0.5557,0.6218,0.6749,0.6946,0.7138]},{"header":{"parameterUnit":"m.s-1","parameterCategory":1,"la1":30.6,"la2":28.766,"lo1":-90.7593,"lo2":-88.6598,"dy":0.0162,"dx":0.0183,"nx":116,"ny":114,"refTime":"2023-07-22T12:00:00:Z","depth":0,"parameterNumber":3,"parameterNumberName":"V-component_of_WINDS"},"data":[0.0,0.0,0.0,0.0,0.0,0.0,0.0,0.0,0.0,0.0,0.0,0.0,0.0,0.0,0.0,0.0,0.0,0.0,0.0,0.0,0.0,0.0,0.0,0.0,0.0,0.0,0.0,0.0,0.0,0.0,0.0,0.0,0.0,0.0,0.0,0.0,0.0,0.0,0.0,0.0,0.0,0.0,0.0,0.0,0.0,0.0,0.0,0.0,0.0,0.0,0.0,0.0,0.0,0.0,0.0,0.0,0.0,0.0,0.0,0.0,0.0,0.0,0.0,0.0,0.0,0.0,0.0,0.0,0.0,0.0,0.0,0.0,0.0,0.0,0.0,0.0,0.0,0.0,0.0,0.0,0.0,0.0,0.0,0.0,0.0,0.0,0.0,0.0,0.0,0.0,0.0,0.0,0.0,0.0,0.0,0.0,0.0,0.0,0.0,0.0,0.0,0.0,0.0,0.0,0.0,0.0,0.0,0.0,0.0,0.0,0.0,0.0,0.0,0.0,0.0,0.0,0.0,0.0,0.0,0.0,0.0,0.0,0.0,0.0,0.0,0.0,0.0,0.0,0.0,0.0,0.0,0.0,0.0,0.0,0.0,0.0,0.0,0.0,0.0,0.0,0.0,0.0,0.0,0.0,0.0,0.0,0.0,0.0,0.0,0.0,0.0,0.0,0.0,0.0,0.0,0.0,0.0,0.0,0.0,0.0,0.0,0.0,0.0,0.0,0.0,0.0,0.0,0.0,0.0,0.0,0.0,0.0,0.0,0.0,0.0,0.0,0.0,0.0,0.0,0.0,0.0,0.0,0.0,0.0,0.0,0.0,0.0,0.0,0.0,0.0,0.0,0.0,0.0,0.0,0.0,0.0,0.0,0.0,0.0,0.0,0.0,0.0,0.0,0.0,0.0,0.0,0.0,0.0,0.0,0.0,0.0,0.0,0.0,0.0,0.0,0.0,0.0,0.0,0.0,0.0,0.0,0.0,0.0,0.0,0.0,0.0,0.0,0.0,0.0,0.0,0.0,0.0,0.0,0.0,0.0,0.0,0.0,0.0,0.0,0.0,0.0,0.0,0.0,0.0,0.0,0.0,0.0,0.0,0.0,0.0,0.0,0.0,0.0,0.0,0.0,0.0,0.0,0.0,0.0,0.0,0.0,0.0,0.0,0.0,0.0,0.0,0.0,0.0,0.0,0.0,0.0,0.0,0.0,0.0,0.0,0.0,0.0,0.0,0.0,0.0,0.0,0.0,0.0,0.0,0.0,0.0,0.0,0.0,0.0,0.0,0.0,0.0,0.0,0.0,0.0,0.0,0.0,0.0,0.0,0.0,0.0,0.0,0.0,0.0,0.0,0.0,0.0,0.0,0.0,0.0,0.0,0.0,0.0,0.0,0.0,0.0,0.0,0.0,0.0,0.0,0.0,0.0,0.0,0.0,0.0,0.0,0.0,0.0,0.0,0.0,0.0,0.0,0.0,0.0,0.0,0.0,0.0,0.0,0.0,0.0,0.0,0.0,0.0,0.0,0.0,0.0,0.0,0.0,0.0,0.0,0.0,0.0,0.0,0.0,0.0,0.0,0.0,0.0,0.0,0.0,0.0,0.0,0.0,0.0,0.0,0.0,0.0,0.0,0.0,0.0,0.0,0.0,0.0,0.0,0.0,0.0,0.0,0.0,0.0,0.0,0.0,0.0,0.0,0.0,0.0,0.0,0.0,0.0,0.0,0.0,0.0,0.0,0.0,0.0,0.0,0.0,0.0,0.0,0.0,0.0,0.0,0.0,0.0,0.0,0.0,0.0,0.0,0.0,0.0,0.0,0.0,0.0,0.0,0.0,0.0,0.0,0.0,0.0,0.0,0.0,0.0,0.0,0.0,0.0,0.0,0.0,0.0,0.0,0.0,0.0,0.0,0.0,0.0,0.0,0.0,0.0,0.0,0.0,0.0,0.0,0.0,0.0,0.0,0.0,0.0,0.0,0.0,0.0,0.0,0.0,0.0,0.0,0.0,0.0,0.0,0.0,0.0,0.0,0.0,0.0,0.0,0.0,0.0,0.0,0.0,0.0,0.0,0.0,0.0,0.0,0.0,0.0,0.0,0.0,0.0,0.0,0.0,0.0,0.0,0.0,0.0,0.0,0.0,0.0,0.0,0.0,0.0,0.0,0.0,0.0,0.0,0.0,0.0,0.0,0.0,0.0,0.0,0.0,0.0,0.0,0.0,0.0,0.0,0.0,0.0,0.0,0.0,0.0,0.0,0.0,0.0,0.0,0.0,0.0,0.0,0.0,0.0,0.0,0.0,0.0,0.0,0.0,0.0,0.0,0.0,0.0,0.0,0.0,0.0,0.0,0.0,0.0,0.0,0.0,0.0,0.0,0.0,0.0,0.0,0.0,0.0,0.0,0.0,0.0,0.0,0.0,0.0,0.0,0.0,0.0,0.0,0.0,0.0,0.0,0.0,0.0,0.0,0.0,0.0,0.0,0.0,0.0,0.0,0.0,0.0,0.0,0.0,0.0,0.0,0.0,0.0,0.0,0.0,0.0,0.0,0.0,0.0,0.0,0.0,0.0,0.0,0.0,0.0,0.0,0.0,0.0,0.0,0.0,0.0,0.0,0.0,0.0,0.0,0.0,0.0,0.0,0.0,0.0,0.0,0.0,0.0,0.0,0.0,0.0,0.0,0.0,0.0,0.0,0.0,0.0,0.0,0.0,0.0,0.0,0.0,0.0,0.0,0.0,0.0,0.0,0.0,0.0,0.0,0.0,0.0,0.0,0.0,0.0,0.0,0.0,0.0,0.0,0.0,0.0,0.0,0.0,0.0,0.0,0.0,0.0,0.0,0.0,0.0,0.0,0.0,0.0,0.0,0.0,0.0,0.0,0.0,0.0,0.0,0.0,0.0,0.0,0.0,0.0,0.0,0.0,0.0,0.0,0.0,0.0,0.0,0.0,0.0,0.0,0.0,0.0,0.0,0.0,0.0,0.0,0.0,0.0,0.0,0.0,0.0,0.0,0.0,0.0,0.0,0.0,0.0,0.0,0.0,0.0,0.0,0.0,0.0,0.0,0.0,0.0,0.0,0.0,0.0,0.0,0.0,0.0,0.0,0.0,0.0,0.0,0.0,0.0,0.0,0.0,0.0,0.0,0.0,0.0,0.0,0.0,0.0,0.0,0.0,0.0,0.0,0.0,0.0,0.0,0.0,0.0,0.0,0.0,0.0,0.0,0.0,0.0,0.0,0.0,0.0,0.0,0.0,0.0,0.0,0.0,0.0,0.0,0.0,0.0,0.0,0.0,0.0,0.0,0.0,0.0,0.0,0.0,0.0,0.0,0.0,0.0,0.0,0.0,0.0,0.0,0.0,0.0,0.0,0.0,0.0,0.0,0.0,0.0,0.0,0.0,0.0,0.0,0.0,0.0,0.0,0.0,0.0,0.0,0.0,0.0,0.0,0.0,0.0,0.0,0.0,0.0,0.0,0.0,0.0,0.0,0.0,0.0,0.0,0.0,0.0,0.0,0.0,0.0,0.0,0.0,0.0,0.0,0.0,0.0,0.0,0.0,0.0,0.0,0.0,0.0,0.0,0.0,0.0,0.0,0.0,0.0,0.0,0.0,0.0,0.0,0.0,0.0,0.0,0.0,0.0,0.0,0.0,0.0,0.0,0.0,0.0,0.0,0.0,0.0,0.0,0.0,0.0,0.0,0.0,0.0,0.0,0.0,0.0,0.0,0.0,0.0,0.0,0.0,0.0,0.0,0.0,0.0,0.0,0.0,0.0,0.0,0.0,0.0,0.0,0.0,0.0,0.0,0.0,0.0,0.0,0.0,0.0,0.0,0.0,0.0,0.0,0.0,0.0,0.0,0.0,0.0,0.0,0.0,0.0,0.0,0.0,0.0,0.0,0.0,0.0,0.0,0.0,0.0,0.0,0.0,0.0,0.0,0.0,0.0,0.0,0.0,0.0,0.0,0.0,0.0,0.0,0.0,0.0,0.0,0.0,0.0,0.0,0.0,0.0,0.0,0.0,0.0,0.0,0.0,0.0,0.0,0.0,0.0,0.0,0.0,0.0,0.0,0.0,0.0,0.0,0.0,0.0,0.0,0.0,0.0,0.0,0.0,0.0,0.0,0.0,0.0,0.0,0.0,0.0,0.0,0.0,0.0,0.0,0.0,0.0,0.0,0.0,0.0,0.0,0.0,0.0,0.0,0.0,0.0,0.0,0.0,0.0,0.0,0.0,0.0,0.0,0.0,0.0,0.0,0.0,0.0,0.0,0.0,0.0,0.0,0.0,0.0,0.0,0.0,0.0,0.0,0.0,0.0,0.0,0.0,0.0,0.0,0.0,0.0,0.0,0.0,0.0,0.0,0.0,0.0,0.0,0.0,0.0,0.0,0.0,0.0,0.0,0.0,0.0,0.0,0.0,0.0,0.0,0.0,0.0,0.0,0.0,0.0,0.0,0.0,0.0,0.0,0.0,0.0,0.0,0.0,0.0,0.0,0.0,0.0,0.0,0.0,0.0,0.0,0.0,0.0,0.0,0.0,0.0,0.0,0.0,0.0,0.0,0.0,0.0,0.0,0.0,0.0,0.0,0.0,0.0,0.0,0.0,0.0,0.0,0.0,0.0,0.0,0.0,0.0,0.0,0.0,0.0,0.0,0.0,0.0,0.0,0.0,0.0,0.0,0.0,0.0,0.0,0.0,0.0,0.0,0.0,0.0,0.0,0.0,0.0,0.0,0.0,0.0,0.0,0.0,0.0,0.0,0.0,0.0,0.0,0.0,0.0,0.0,0.0,0.0,0.0,0.0,0.0,0.0,0.0,0.0,0.0,0.0,0.0,0.0,0.0,0.0,0.0,0.0,0.0,0.0,0.0,0.0,0.0,0.0,0.0,0.0,0.0,0.0,0.0,0.0,0.0,0.0,0.0,0.0,0.0,0.0,0.0,0.0,0.0,0.0,0.0,0.0,0.0,0.0,0.0,0.0,0.0,0.0,0.0,0.0,0.0,0.0,0.0,0.0,0.0,0.0,0.0,0.0,0.0,0.0,0.0,0.0,0.0,0.0,0.0,0.0,0.0,0.0,0.0,0.0,0.0,0.0,0.0,0.0,0.0,0.0,0.0,0.0,0.0,0.0,0.0,0.0,0.0,0.0,0.0,0.0,0.0,0.0,0.0,0.0,0.0,0.0,0.0,0.0,0.0,0.0,0.0,0.0,0.0,0.0,0.0,0.0,0.0,0.0,0.0,0.0,0.0,0.0,0.0,0.0,0.0,0.0,0.0,0.0,0.0,0.0,0.0,0.0,0.0,0.0,0.0,0.0,0.0,0.0,0.0,0.0,0.0,0.0,0.0,0.0,0.0,0.0,0.0,0.0,0.0,0.0,0.0,0.0,0.0,0.0,0.0,0.0,0.0,0.0,0.0,0.0,0.0,0.0,0.0,0.0,0.0,0.0,0.0,0.0,0.0,0.0,0.0,0.0,0.0,0.0,0.0,0.0,0.0,0.0,0.0,0.0,0.0,0.0,0.0,0.0,0.0,0.0,0.0,0.0,0.0,0.0,0.0,0.0,0.0,0.0,0.0,0.0,0.0,0.0,0.0,0.0,0.0,0.0,0.0,0.0,0.0,0.0,0.0,0.0,0.0,0.0,0.0,0.0,0.0,0.0,0.0,0.0,0.0,0.0,0.0,0.0,0.0,0.0,0.0,0.0,0.0,0.0,0.0,0.0,0.0,0.0,0.0,0.0,0.0,0.0,0.0,0.0,0.0,0.0,0.0,0.0,0.0,0.0,0.0,0.0,0.0,0.0,0.0,0.0,0.0,0.0,0.0,0.0,0.0,0.0,0.0,0.0,0.0,0.0,0.0,0.0,0.0,0.0,0.0,0.0,0.0,0.0,0.0,0.0,0.0,0.0,0.0,0.0,0.0,0.0,0.0,0.0,0.0,0.0,0.0,0.0,0.0,0.0,0.0,0.0,0.0,0.0,0.0,0.0,0.0,0.0,0.0,0.0,0.0,0.0,0.0,0.0,0.0,0.0,0.0,0.0,0.0,0.0,0.0,0.0,0.0,0.0,0.0,0.0,0.0,0.0,0.0,0.0,0.0,0.0,-0.2959,0.0,0.0,0.0,0.0,0.0,0.0,0.0,0.0,0.0,0.0,0.0,0.0,0.0,0.0,0.0,0.0,0.0,0.0,0.0,0.0,0.0,0.0,0.0,0.0,0.0,0.0,0.0,0.0,0.0,0.0,0.0,0.0,0.0,0.0,0.0,0.0,0.0,0.0,0.0,0.0,0.0,0.0,0.0,0.0,0.0,0.0,0.0,0.0,0.0,0.0,0.0,0.0,0.0,0.0,0.0,0.0,0.0,0.0,0.0,0.0,0.0,0.0,0.0,0.0,0.0,0.0,0.0,0.0,0.0,0.0,0.0,0.0,0.0,0.0,0.0,0.0,0.0,0.0,0.0,0.0,0.0,0.0,0.0,0.0,0.0,0.0,0.0,0.0,0.0,0.0,0.0,0.0,0.0,0.0,0.0,0.0,0.0,0.0,0.0,0.0,0.0,0.0,0.0,0.0,0.0,0.0,0.0,0.0,0.0,0.0,0.0,0.0,0.0,0.0,0.0,0.0,-0.403,0.0,0.0,0.0,0.0,0.0,0.0,0.0,0.0,0.0,0.0,0.0,0.0,0.0,0.0,0.0,0.0,0.0,0.0,0.0,0.0,0.0,0.0,0.0,0.0,0.0,0.0,0.0,0.0,0.0,0.0,0.0,0.0,0.0,0.0,0.0,0.0,0.0,0.0,0.0,0.0,0.0,0.0,0.0,0.0,0.0,0.0,0.0,0.0,0.0,0.0,0.0,0.0,0.0,0.0,0.0,0.0,0.0,0.0,0.0,0.0,0.0,0.0,0.0,0.0,0.0,0.0,0.0,0.0,0.0,0.0,0.0,0.0,0.0,0.0,0.0,0.0,0.0,0.0,0.0,0.0,0.0,0.0,0.0,0.0,0.0,0.0,0.0,0.0,0.0,0.0,0.0,0.0,0.0,0.0,0.0,0.0,0.0,0.0,0.0,0.0,0.0,0.0,0.0,0.0,0.0,0.0,0.0,0.0,-0.0718,-0.1076,-0.1525,-0.2063,-0.269,-0.3317,-0.3851,-0.4474,-0.5099,0.0,0.0,0.0,0.0,0.0,0.0,0.0,0.0,0.0,0.0,0.0,0.0,0.0,0.0,0.0,0.0,0.0,0.0,0.0,0.0,0.0,0.0,0.0,0.0,0.0,0.0,0.0,0.0,0.0,0.0,0.0,0.0,0.0,0.0,0.0,0.0,0.0,0.0,0.0,0.777,0.6318,0.4776,0.2995,0.0,0.0,0.0,0.0,0.0,0.0,0.0,0.0,0.0,0.0,0.0,0.0,0.0,0.0,0.0,0.0,0.0,0.0,0.0,0.0,0.0,0.0,0.0,0.0,0.0,0.0,0.0,0.0,0.0,0.0,0.0,0.0,0.0,0.0,0.0,0.0,0.0,0.0,0.0,0.0,0.0,0.0,0.0,0.0,0.7054,0.6792,0.0,0.0,0.0,0.0,0.0,0.0,0.0,0.0,0.0,0.0,0.0,0.0,0.0,0.0718,0.0718,0.0,-0.0448,-0.0628,-0.1076,-0.1436,-0.1794,-0.251,-0.3048,-0.3587,-0.4302,0.0,-0.5371,-0.6077,0.0,0.0,0.0,0.0,0.0,0.0,0.0,0.0,0.0,0.0,0.0,0.0,0.0,0.0,0.0,0.0,0.0,0.0,0.0,0.0,0.0,0.0,0.0,0.0,0.0,0.0,0.0,0.0,0.0,0.0,0.0,0.0,0.0,0.0,0.0,0.0,1.2084,1.076,0.9583,0.8049,0.6517,0.4985,0.2629,0.0241,-0.2174,-0.3907,0.0,0.0,0.0,0.0,0.0,0.0,0.0,0.0,0.0,0.0,0.0,0.0,0.0,0.0,0.0,0.0,0.0,0.0,0.0,0.0,0.0,0.0,0.0,0.0,0.0,0.0,0.0,0.0,0.0,0.0,0.0,0.0,0.0,0.0,0.0,0.0,0.0,0.0,0.0,0.7139,0.7051,0.6966,0.6609,0.6343,0.0,0.0,0.0,0.0,0.0,0.0,0.0,0.0,0.0,0.1256,0.0897,0.0628,0.0538,-0.009,-0.0538,-0.0718,-0.1166,-0.1705,-0.2242,-0.257,-0.3171,-0.3869,-0.4431,-0.5011,-0.5612,-0.6201,-0.6927,-0.779,0.0,0.0,0.0,0.0,-0.9582,-0.9542,0.0,0.0,0.0,0.0,0.0,0.0,0.0,0.0,0.0,0.0,0.0,0.0,0.0,0.0,0.0,0.0,0.0,0.0,0.0,0.0,0.0,0.0,0.0,0.0,0.0,0.0,0.0,0.0,1.3958,1.2809,1.1514,1.0007,0.842,0.6827,0.498,0.2338,-0.0859,-0.2735,-0.4219,0.0,0.0,0.0,0.0,0.0,0.0,0.0,0.0,0.0,0.0,0.0,0.0,0.0,0.0,0.0,0.0,0.0,0.0,0.0,0.0,0.0,0.0,0.0,0.0,0.0,0.0,0.0,0.0,0.0,0.0,0.0,0.0,0.0,0.0,0.0,0.0,0.0,0.0,0.7139,0.7139,0.7139,0.6786,0.6432,0.0,0.0,0.0,0.0,0.0,0.0,0.2957,0.2511,0.1885,0.1166,0.0897,0.0538,0.0269,-0.0178,-0.0623,-0.0889,-0.1327,-0.1853,-0.256,-0.2866,-0.3359,-0.421,-0.465,-0.5199,-0.5868,-0.6389,-0.7116,-0.7873,-0.8325,-0.881,-0.9247,-0.958,-0.9677,-0.9637,0.0,0.0,0.0,0.0,0.0,0.0,0.0,0.0,0.0,0.0,0.0,0.0,0.0,0.0,0.0,0.0,0.0,0.0,0.0,0.0,0.0,0.0,0.0,0.0,0.0,0.0,0.0,1.7133,1.6374,1.5184,1.3563,1.2304,1.0662,0.8798,0.6893,0.4117,0.0703,-0.125,-0.2813,-0.43,0.0,0.0,0.0,0.0,0.0,0.0,0.0,0.0,0.0,0.0,0.0,0.0,0.0,0.0,0.0,0.0,0.0,0.0,0.0,0.0,0.0,0.0,0.0,0.0,0.0,0.0,0.0,0.0,0.0,0.0,0.0,0.0,0.0,0.0,0.0,0.0,0.0,0.0,0.0,0.7139,0.6881,0.0,0.0,0.0,0.0,0.501,0.4121,0.3497,0.3227,0.2601,0.1974,0.1436,0.0897,0.0448,0.0,-0.044,-0.0871,-0.1305,-0.1704,-0.2194,-0.2616,-0.3286,-0.3871,-0.4285,-0.4951,-0.5616,-0.6274,-0.6781,-0.7285,-0.7785,-0.8595,-0.8967,-0.9118,-0.966,-0.9751,-0.9565,0.0,0.0,0.0,0.0,0.0,0.0,0.0,0.0,0.0,0.0,0.0,0.0,0.0,0.0,0.0,0.0,0.0,0.0,0.0,0.0,0.0,0.0,0.0,0.0,0.0,0.0,2.0606,1.9695,1.8645,1.7426,1.5992,1.4569,1.2984,1.1163,0.921,0.6939,0.4491,0.1011,-0.1406,-0.2971,-0.4219,-0.5309,0.0,0.0,0.0,0.0,0.0,0.0,0.0,0.0,0.0,0.0,0.0,0.0,0.0,0.0,0.0,0.0,0.0,0.0,0.0,0.0,0.0,0.0,0.0,0.0,0.0,0.0,0.0,0.0,0.0,0.0,0.0,0.0,0.0,0.0,0.0,0.0,0.0,0.7139,0.6881,0.0,0.6432,0.5899,0.5427,0.5007,0.4216,0.358,0.3097,0.241,0.1809,0.112,0.0862,0.0431,-0.0172,-0.0513,-0.0937,-0.1276,-0.1941,-0.2438,-0.2856,-0.3559,-0.411,-0.4678,-0.509,-0.5695,-0.6334,-0.6885,-0.7426,-0.7914,-0.8431,-0.8888,-0.9212,-0.9586,-0.984,-0.9992,0.0,0.0,0.0,0.0,0.0,0.0,0.0,0.0,0.0,0.0,0.0,0.0,0.0,0.0,0.0,0.0,0.0,0.0,0.0,0.0,0.0,0.0,0.0,0.0,0.0,2.3586,2.2877,2.2079,2.0991,1.977,1.8461,1.7098,1.5504,1.3746,1.1846,0.9931,0.7988,0.4394,0.1319,-0.1249,-0.2578,-0.3767,-0.4912,0.0,0.0,0.0,0.0,0.0,0.0,0.0,0.0,0.0,0.0,0.0,0.0,0.0,0.0,0.0,0.0,0.0,0.0,0.0,0.0,0.0,0.0,0.0,0.0,0.0,0.0,0.0,0.0,0.0,0.0,0.0,0.0,0.0,0.0,0.0,0.7415,0.7234,0.7014,0.6721,0.6367,0.5973,0.5483,0.4898,0.421,0.367,0.3193,0.2436,0.1766,0.1094,0.0842,0.0337,-0.0421,-0.0585,-0.0915,-0.1495,-0.2061,-0.2546,-0.3117,-0.3718,-0.4332,-0.4885,-0.5358,-0.5867,-0.6412,-0.7026,-0.7557,-0.8038,-0.8449,-0.8861,-0.9322,-0.962,-0.9922,-1.0218,0.0,0.0,0.0,0.0,0.0,0.0,0.0,0.0,0.0,0.0,0.0,0.0,0.0,0.0,0.0,0.0,0.0,0.0,0.0,0.0,0.0,0.0,0.0,0.0,2.6232,2.5656,2.4983,2.4209,2.3372,2.2335,2.0968,1.9813,1.8288,1.6455,1.4787,1.2913,1.0942,0.9025,0.546,0.1089,-0.0468,-0.19,-0.316,0.0,0.0,0.0,0.0,0.0,0.0,0.0,0.0,0.0,0.0,0.0,0.0,0.0,0.0,0.0,0.0,0.0,0.0,0.0,0.0,0.0,0.0,0.0,0.0,0.0,0.0,0.0,0.0,0.0,0.0,0.0,0.0,0.0,0.8032,0.768,0.7503,0.7499,0.7191,0.6754,0.6322,0.5942,0.5444,0.478,0.4112,0.3608,0.3437,0.2516,0.1761,0.1341,0.0924,0.0252,-0.0673,-0.0658,-0.1056,-0.1866,-0.2141,-0.2665,-0.3446,-0.3921,-0.4465,-0.5082,-0.5628,-0.6173,-0.6641,-0.7253,-0.7714,-0.8178,-0.8775,-0.916,-0.9322,-0.9771,-1.0067,-1.0218,0.0,0.0,0.0,0.0,0.0,0.0,0.0,0.0,0.0,0.0,0.0,0.0,0.0,0.0,0.0,0.0,0.0,0.0,0.0,0.0,0.0,0.0,0.0,0.0,2.8451,2.7799,2.719,2.6564,2.5624,2.4679,2.3746,2.2561,2.1198,1.9726,1.8121,1.6415,1.4673,1.2821,1.0621,0.7957,0.3463,0.0937,-0.0316,0.0,0.0,0.0,0.0,0.0,0.0,0.0,0.0,0.0,0.0,0.0,0.0,0.0,0.0,0.0,0.0,0.0,0.0,0.0,0.0,0.0,0.0,0.0,0.0,0.0,0.0,0.0,0.0,0.0,0.0,0.0,0.0,0.8995,0.8464,0.8201,0.7807,0.7433,0.7293,0.6881,0.6186,0.5972,0.5579,0.4673,0.4181,0.3664,0.3204,0.2402,0.1763,0.1522,0.0961,0.032,-0.0401,-0.0557,-0.1031,-0.1904,-0.2283,-0.2823,-0.3526,-0.4073,-0.4618,-0.524,-0.5705,-0.6328,-0.7103,-0.7557,-0.8016,-0.8551,-0.8851,-0.916,-0.9397,-0.9916,-1.0368,-1.0663,0.0,0.0,0.0,0.0,0.0,0.0,0.0,0.0,0.0,0.0,0.0,0.0,0.0,0.0,0.0,0.0,0.0,0.0,0.0,0.0,0.0,0.0,0.0,3.0425,3.0095,2.9578,2.9077,2.8575,2.7804,2.7021,2.6358,2.5256,2.4096,2.2896,2.1474,2.0068,1.8633,1.6864,1.5292,1.3552,0.9623,0.617,0.3221,0.2103,0.1408,0.0846,0.0347,0.0088,0.0178,0.0267,0.0,0.0,0.0,0.0,0.0,0.0,0.0,0.0,0.0,0.0,0.0,0.0,0.0,0.0,0.0,0.0,0.0,0.0,0.0,0.0,0.0,0.0,0.0,0.0,0.9707,0.9393,0.9044,0.8525,0.8115,0.7605,0.7275,0.6867,0.6286,0.5981,0.5514,0.4723,0.4241,0.374,0.3142,0.2434,0.1885,0.1572,0.0943,0.0314,-0.0157,-0.0471,-0.1021,-0.1807,-0.2276,-0.2901,-0.3604,-0.4151,-0.4774,0.0,-0.586,-0.6483,-0.7257,-0.7714,-0.8197,0.0,0.0,0.0,0.0,0.0,-1.045,-1.0654,0.0,0.0,0.0,0.0,0.0,0.0,0.0,0.0,0.0,0.0,0.0,0.0,0.0,0.0,0.0,0.0,0.0,0.0,0.0,0.0,0.0,3.2364,3.2056,3.1741,3.1416,3.1172,3.0825,3.0368,2.9861,2.9295,2.8726,2.7823,2.6917,2.6029,2.4819,2.3712,2.2569,2.1114,1.9714,1.8369,1.6817,1.2678,0.7386,0.6254,0.5468,0.4831,0.4168,0.38,0.3784,0.3436,0.0,0.0,0.0,0.0,0.0,0.0,0.0,0.0,0.0,0.0,0.0,0.0,0.0,0.0,0.0,0.0,0.0,0.0,0.0,0.0,0.0,0.0,0.0,0.0,1.0369,0.9971,0.9695,0.8999,0.8334,0.8004,0.7365,0.6791,0.6531,0.594,0.5401,0.4776,0.4311,0.3845,0.3141,0.0,0.0,0.0,0.0,0.0471,0.0,-0.0393,-0.0943,-0.1572,-0.2198,-0.2979,-0.3841,-0.4229,-0.4846,-0.5616,-0.5989,-0.6521,-0.7202,-0.7808,-0.816,-0.846,-0.9095,-0.9396,-0.9691,-1.0209,-1.0437,-1.0461,0.0,0.0,0.0,0.0,0.0,0.0,0.0,0.0,0.0,0.0,0.0,0.0,0.0,0.0,0.0,0.0,0.0,0.0,0.0,0.0,3.3364,3.3317,3.3117,3.2931,3.2809,3.2538,3.2292,3.2055,3.1564,3.1162,3.0811,3.0094,2.943,2.8786,2.7953,2.707,2.6176,2.5152,2.4137,2.3171,2.201,1.7792,1.2161,1.095,1.0056,0.9247,0.8399,0.7772,0.733,0.6929,0.6778,0.6646,0.678,0.0,0.0,0.0,0.0,0.0,0.0,0.0,0.0,0.0,0.0,0.0,0.0,0.0,0.0,0.0,0.0,0.0,0.0,0.0,0.0,1.1154,1.0958,1.058,1.0239,0.9727,0.896,0.7973,0.7701,0.7307,0.639,0.6038,0.5631,0.5004,0.4387,0.3843,0.337,0.2744,0.0,0.1887,0.1415,0.0864,0.0236,-0.0157,-0.0786,-0.1572,0.0,0.0,-0.3841,-0.4229,-0.4801,-0.5472,-0.5845,-0.637,-0.6981,-0.7419,-0.8045,-0.8654,-0.9045,-0.9422,-0.9783,-0.999,-1.0307,-1.0545,0.0,0.0,0.0,0.0,0.0,0.0,0.0,0.0,0.0,0.0,0.0,0.0,0.0,0.0,0.0,0.0,0.0,0.0,0.0,3.4087,3.4068,3.4104,3.3969,3.3857,3.3795,3.3595,3.3415,3.3239,3.2961,3.2665,3.2438,3.1943,3.1498,3.113,3.0605,3.0012,2.9345,2.8692,2.7933,2.7164,2.6243,2.3774,2.0287,1.6948,1.5183,1.4274,1.323,1.2527,1.193,1.1251,1.0813,1.0476,1.0207,1.0182,1.0223,0.0,0.0,0.0,0.0,0.0,0.0,0.0,0.0,0.0,0.0,0.0,0.0,0.0,0.0,1.2015,0.0,0.0,1.1975,1.1849,1.1621,1.1207,1.0641,1.0245,0.9627,0.8398,0.8008,0.7581,0.6957,0.6409,0.5864,0.5315,0.4849,0.4307,0.3604,0.3056,0.2588,0.2199,0.1649,0.11,0.0628,0.0,-0.0628,-0.1257,-0.1938,-0.2695,-0.3388,-0.3875,-0.45,-0.5261,-0.5695,-0.6306,-0.6944,-0.7626,-0.8216,-0.8684,-0.8967,-0.9417,-0.9852,-1.0055,-1.0248,-1.0405,0.0,0.0,0.0,0.0,0.0,0.0,0.0,0.0,0.0,0.0,0.0,0.0,0.0,0.0,0.0,0.0,0.0,0.0,0.0,3.4586,3.463,3.4675,3.4655,3.4617,3.4561,3.4438,3.4314,3.4211,3.4097,3.3942,3.3765,3.3486,3.3256,3.3094,3.2774,3.2419,3.2086,3.1671,3.1175,3.056,2.9847,2.9181,2.81,2.3628,2.0866,1.9339,1.8282,1.7417,1.6704,1.5715,1.5036,1.4516,1.3834,1.3586,1.3326,1.3084,1.2896,0.0,0.0,0.0,0.0,0.0,0.0,0.0,0.0,0.0,1.2365,1.2583,1.28,1.2884,1.2884,1.2884,1.281,1.2593,1.2252,1.1842,1.1224,1.0901,1.0288,0.9155,0.8466,0.7936,0.7557,0.6872,0.6254,0.578,0.5315,0.4771,0.3997,0.3524,0.3056,0.2589,0.1884,0.1333,0.0936,0.0234,-0.0389,-0.0852,-0.1668,-0.2402,-0.3003,-0.3526,-0.4207,-0.4979,-0.5657,-0.628,-0.6974,-0.7855,-0.8327,-0.8575,-0.8902,-0.9334,-0.9771,-1.0107,-1.0178,-1.0258,0.0,0.0,0.0,0.0,0.0,0.0,0.0,0.0,0.0,0.0,0.0,0.0,0.0,0.0,0.0,0.0,0.0,0.0,3.485,3.4908,3.4962,3.5034,3.5083,3.5133,3.5114,3.504,3.4983,3.4983,3.4914,3.4861,3.4824,3.4674,3.4543,3.4471,3.4245,3.4055,3.3884,3.3644,3.3418,3.3152,3.2705,3.2274,3.1721,3.0541,2.7537,2.3809,2.2827,2.1775,2.0703,1.9755,1.9038,1.8451,1.7719,1.7248,1.6929,1.6493,0.0,1.5834,1.5478,1.4881,1.4285,1.3995,1.3924,1.3867,0.0,0.0,1.3708,1.3584,1.3591,1.3591,1.3591,1.3591,1.3498,1.3306,1.3057,1.2696,1.2043,1.1727,1.126,1.0363,0.9453,0.8546,0.7859,0.733,0.6876,0.6257,0.5631,0.5087,0.4623,0.4075,0.345,0.2826,0.2511,0.1942,0.1141,0.0761,0.015,-0.0661,-0.1466,-0.2269,-0.2999,-0.3572,-0.4166,-0.4766,-0.5869,-0.6543,-0.6941,-0.771,-0.8088,-0.8273,-0.8835,-0.9239,-0.955,-0.9762,-1.0065,-1.0289,0.0,0.0,0.0,0.0,0.0,0.0,0.0,0.0,0.0,0.0,0.0,0.0,0.0,0.0,0.0,0.0,0.0,0.0,3.5072,3.5171,3.5281,3.5383,3.5418,3.5451,3.5492,3.5461,3.5454,3.545,3.538,3.5342,3.5345,3.53,3.5252,3.5223,3.5108,3.5001,3.4952,3.4836,3.4687,3.4562,3.4326,3.4047,3.3752,3.3315,3.1791,2.9598,2.7389,2.5848,0.0,0.0,2.2943,2.2075,2.1307,2.0681,2.0063,1.9396,1.8879,0.0,1.7441,1.6688,1.6122,0.0,1.5511,1.5283,1.5276,1.5039,1.4805,1.4919,1.4802,1.4724,1.4584,1.4584,1.4447,0.0,1.3881,1.3504,1.3014,1.26,1.215,1.1484,1.0807,0.9981,0.878,0.8097,0.7488,0.7026,0.6405,0.5783,0.5237,0.4618,0.4075,0.3608,0.3096,0.2446,0.174,0.1194,0.0516,-0.0146,-0.0933,-0.1639,-0.2278,-0.2872,-0.3728,-0.4842,-0.5719,-0.635,-0.6811,-0.7531,-0.8052,-0.8441,-0.8823,-0.9338,-0.9786,-0.9856,-1.018,-1.0498,0.0,0.0,0.0,0.0,0.0,0.0,0.0,0.0,0.0,0.0,0.0,0.0,0.0,0.0,0.0,0.0,0.0,0.0,0.0,3.5345,3.5502,3.5623,3.5658,0.0,3.5741,3.576,3.5764,3.5768,3.5704,3.5663,3.5666,3.5654,3.5653,3.5625,3.5577,3.5525,3.5508,3.5449,3.5409,3.5345,3.5263,3.5143,3.4994,3.4801,3.4461,3.3708,3.1005,2.9353,0.0,0.0,2.6505,2.5559,2.4696,2.3917,2.3096,2.2357,2.1481,2.0516,1.9403,0.0,0.0,1.7736,1.7279,1.689,1.6768,1.6338,1.6063,1.612,1.6022,1.5873,1.5597,1.5597,1.5442,1.4964,1.477,1.4464,1.3848,1.3535,1.3105,1.2519,1.2077,1.1335,1.0143,0.9089,0.8327,0.7791,0.7249,0.6633,0.6009,0.5395,0.4841,0.4344,0.3663,0.3003,0.2295,0.1672,0.1077,0.0428,-0.028,-0.097,-0.1593,-0.2441,-0.3558,-0.4761,-0.5491,-0.6148,-0.6741,-0.74,-0.7992,-0.8511,-0.8958,-0.9466,-0.9983,-1.011,-1.0364,-1.0688,0.0,0.0,0.0,0.0,0.0,0.0,0.0,0.0,0.0,0.0,0.0,0.0,0.0,0.0,0.0,0.0,0.0,0.0,0.0,3.5411,3.555,3.5678,3.5763,3.5826,3.5885,3.5885,3.5892,3.589,3.5891,3.5859,3.578,3.5784,3.5763,3.57,3.5694,3.5619,3.5512,3.5507,3.5495,3.5502,3.5552,3.5571,3.5565,3.5574,3.5435,3.5027,3.3292,0.0,0.0,0.0,2.965,2.889,2.7874,2.6981,0.0,2.5392,2.416,2.2827,0.0,0.0,2.0669,1.9846,1.9422,1.8992,1.8277,1.7949,1.7687,1.7139,1.707,1.6941,1.663,1.6569,1.6351,1.585,1.578,1.5488,1.4673,1.453,1.425,1.3535,1.3105,1.2599,0.0,1.0513,0.9241,0.8403,0.8016,0.7476,0.6861,0.6247,0.5567,0.483,0.4373,0.3687,0.2807,0.2381,0.1797,0.1078,0.0337,-0.0404,-0.1144,-0.2554,-0.3694,-0.4625,-0.5286,-0.6013,-0.6741,-0.74,-0.7992,-0.8576,-0.9081,-0.9594,-1.0047,-1.0428,-1.0681,-1.08,0.0,0.0,0.0,0.0,0.0,0.0,0.0,0.0,0.0,0.0,0.0,0.0,0.0,0.0,0.0,0.0,0.0,0.0,0.0,3.5732,3.5615,3.5698,3.5811,3.5903,3.597,3.5971,3.5971,3.5976,3.5927,3.5871,3.5806,3.5749,3.5706,3.5629,3.5542,3.5454,3.5361,3.5264,3.5264,3.531,3.5377,3.5456,3.5539,3.5641,3.5622,3.5493,0.0,0.0,0.0,0.0,3.1802,3.1033,3.0172,0.0,2.8556,2.7285,2.6141,2.519,2.4356,0.0,2.3043,2.2201,2.1623,2.1083,2.0395,1.9944,1.9553,1.917,1.8849,1.8593,1.8267,1.8017,1.7755,1.7345,1.707,1.6715,1.6228,1.5816,1.533,1.4689,1.425,0.0,0.0,0.0,0.0,0.9614,0.9003,0.8394,0.794,0.7064,0.63,0.5796,0.5101,0.4406,0.3702,0.316,0.2509,0.1817,0.0605,-0.0403,-0.1143,-0.2216,-0.3086,-0.3887,-0.4691,-0.5491,-0.6218,-0.7007,-0.7722,-0.8371,-0.9017,-0.9658,-1.0218,-1.0272,-1.0567,-1.0955,0.0,0.0,0.0,0.0,0.0,0.0,0.0,0.0,0.0,0.0,0.0,0.0,0.0,0.0,0.0,0.0,0.0,0.0,0.0,0.0,3.5913,3.5708,3.5826,3.5919,3.5991,3.5991,3.6132,3.6426,3.6352,3.6456,3.6686,3.6581,3.6455,3.6344,3.6204,3.5927,3.5543,3.5454,3.5283,3.5051,3.5133,3.5283,3.5449,3.5573,3.5677,0.0,0.0,0.0,0.0,0.0,0.0,3.2798,3.2044,3.1225,3.0285,2.9,2.8122,2.7459,2.6601,2.5881,2.5259,2.445,2.3774,2.3153,2.2433,2.1882,2.1385,2.098,2.0621,2.03,1.9836,1.953,1.9145,1.8757,1.8422,1.8017,1.755,1.7079,1.6594,1.5965,1.5455,1.4887,0.0,0.0,0.0,1.0812,1.0056,0.9458,0.8932,0.8058,0.7331,0.6749,0.5913,0.5205,0.4537,0.3924,0.309,0.2154,0.0941,0.0,-0.0739,-0.1612,-0.2417,-0.3286,-0.4159,-0.5027,-0.5888,-0.6675,-0.7456,-0.8291,-0.885,-0.9517,-1.0118,-1.0181,-1.0481,-1.0865,0.0,0.0,0.0,0.0,0.0,0.0,0.0,0.0,0.0,0.0,0.0,0.0,0.0,0.0,0.0,0.0,0.0,0.0,0.0,0.0,0.0,3.5786,3.583,3.5938,3.5991,3.6034,3.6438,3.7207,3.7183,3.7544,3.8287,3.8087,3.7901,3.7687,3.7566,3.6975,3.6069,3.605,3.5579,3.4845,3.4945,3.5091,3.5296,3.5432,0.0,0.0,0.0,0.0,0.0,0.0,0.0,0.0,0.0,3.2513,3.1433,3.0627,3.007,2.9468,2.8498,2.7847,2.7255,2.6428,2.5711,2.5066,2.4376,2.3826,2.3251,2.2591,2.2323,2.2039,0.0,0.0,2.0696,2.0052,1.9814,1.9431,1.87,1.8442,1.8037,0.0,0.0,0.0,0.0,0.0,0.0,1.1996,0.0,1.0663,0.9992,0.9242,0.8433,0.7726,0.69,0.6041,0.5223,0.4619,0.362,0.2288,0.1546,0.0806,0.0,-0.0874,-0.1747,-0.2686,-0.3558,-0.4556,-0.5617,-0.6342,-0.7251,-0.8195,-0.8606,-0.9181,-0.9812,-1.0154,-1.0386,-1.0565,0.0,0.0,0.0,0.0,0.0,0.0,0.0,0.0,0.0,0.0,0.0,0.0,0.0,0.0,0.0,0.0,0.0,0.0,0.0,0.0,0.0,0.0,0.0,0.0,0.0,0.0,0.0,0.0,0.0,3.8121,3.8216,3.8067,3.7894,0.0,3.7509,3.7255,3.6977,3.687,3.6359,3.5631,0.0,3.5552,3.5171,0.0,0.0,0.0,0.0,0.0,0.0,0.0,0.0,0.0,0.0,3.3302,3.2634,3.2038,3.1433,3.0819,3.0195,2.9556,2.89,2.815,2.7515,2.6909,2.6126,2.5616,2.5149,2.453,2.4142,2.3761,0.0,0.0,0.0,2.1592,2.1175,0.0,2.0031,1.9639,0.0,1.8432,0.0,1.7413,1.6664,1.6097,0.0,0.0,1.3018,1.1855,1.126,1.0168,0.926,0.878,0.7793,0.6981,0.6465,0.5279,0.4151,0.3155,0.2417,0.1612,0.0806,-0.0269,-0.1143,-0.195,-0.2956,-0.3959,-0.4954,-0.5881,-0.6716,-0.7472,-0.8415,-0.9126,-0.9623,-0.9897,-1.0228,-1.0536,0.0,0.0,0.0,0.0,0.0,0.0,0.0,0.0,0.0,0.0,0.0,0.0,0.0,0.0,0.0,0.0,0.0,0.0,0.0,0.0,0.0,0.0,0.0,0.0,0.0,0.0,0.0,0.0,0.0,0.0,0.0,3.9206,3.9019,3.8819,3.867,3.8319,3.787,0.0,0.0,0.0,0.0,0.0,0.0,0.0,0.0,0.0,0.0,0.0,0.0,0.0,0.0,3.4699,3.436,3.3969,3.3561,3.3057,0.0,3.1987,3.1502,3.0931,3.0328,2.9691,2.9053,2.8451,2.7777,2.7223,2.6686,2.6105,2.5672,0.0,2.4711,0.0,0.0,0.0,0.0,0.0,2.1365,2.0858,2.0333,0.0,1.9166,0.0,1.7881,1.7404,1.6862,0.0,1.4458,1.3041,1.2387,1.123,1.0392,0.9736,0.8689,0.7777,0.6924,0.5804,0.4878,0.4084,0.3353,0.2551,0.1612,0.0672,-0.0269,-0.1143,0.0,-0.3197,-0.4211,-0.512,-0.6054,-0.688,-0.7805,-0.8568,-0.9092,-0.9473,-0.9846,-1.0204,0.0,0.0,0.0,0.0,0.0,0.0,0.0,0.0,0.0,0.0,0.0,0.0,0.0,0.0,0.0,0.0,0.0,0.0,0.0,0.0,0.0,0.0,0.0,0.0,0.0,0.0,0.0,0.0,0.0,0.0,0.0,0.0,0.0,0.0,0.0,0.0,0.0,0.0,0.0,0.0,0.0,0.0,0.0,0.0,0.0,0.0,0.0,0.0,0.0,0.0,3.5399,3.5081,3.4832,3.4529,3.4195,3.3821,3.3421,3.3009,3.2497,3.2022,3.1517,3.0999,3.0419,2.9827,2.9313,2.8639,2.7981,2.747,0.0,2.6558,2.5932,2.5481,2.4966,2.4355,0.0,2.3301,2.2725,2.2175,2.1604,2.091,2.0344,1.9759,1.909,1.8633,1.8104,1.7423,1.5694,1.434,1.3469,1.2452,1.1451,1.0475,0.958,0.849,0.7186,0.6531,0.5804,0.5011,0.4353,0.3487,0.2551,0.1679,0.0672,-0.0336,0.0,0.0,-0.3466,-0.4342,-0.5315,-0.6296,-0.7047,-0.7745,-0.8417,-0.8931,-0.9368,-0.9747,0.0,0.0,0.0,0.0,0.0,0.0,0.0,0.0,0.0,0.0,0.0,0.0,0.0,0.0,0.0,0.0,0.0,0.0,0.0,0.0,0.0,0.0,0.0,0.0,0.0,0.0,0.0,0.0,0.0,0.0,0.0,0.0,0.0,0.0,0.0,0.0,0.0,0.0,0.0,0.0,0.0,0.0,0.0,0.0,0.0,0.0,0.0,0.0,0.0,0.0,3.5483,3.53,3.5108,3.4831,3.4583,3.4321,3.3979,3.3606,3.3284,3.2903,3.2451,3.1897,3.1456,3.0937,3.0311,2.9789,0.0,0.0,2.8306,2.7834,2.7297,2.6715,2.6187,2.5577,0.0,0.0,0.0,0.0,2.2774,0.0,0.0,0.0,0.0,0.0,0.0,0.0,0.0,1.6111,1.4712,1.3632,1.2358,1.0805,1.011,0.9448,0.8624,0.7977,0.7125,0.6133,0.5408,0.455,0.3489,0.2415,0.1544,0.0738,-0.0459,0.0,-0.2629,-0.3566,-0.4493,-0.5416,-0.6416,-0.7189,-0.777,-0.858,-0.9047,-0.9368,0.0,0.0,0.0,0.0,0.0,0.0,0.0,0.0,0.0,0.0,0.0,0.0,0.0,0.0,0.0,0.0,0.0,0.0,0.0,0.0,0.0,0.0,0.0,0.0,0.0,0.0,0.0,0.0,0.0,0.0,0.0,0.0,0.0,0.0,0.0,0.0,0.0,0.0,0.0,0.0,0.0,0.0,0.0,0.0,0.0,0.0,0.0,0.0,0.0,0.0,3.5422,3.5324,3.516,3.5001,3.483,3.4623,3.4316,3.3979,3.3743,3.3361,3.297,3.257,3.2144,3.1677,3.115,0.0,0.0,0.0,2.921,2.8701,2.8192,0.0,0.0,0.0,0.0,0.0,0.0,0.0,0.0,0.0,0.0,0.0,0.0,0.0,0.0,0.0,0.0,1.7412,1.5692,1.4084,1.268,1.1593,1.0968,1.0345,0.9709,0.9011,0.8172,0.719,0.6461,0.5675,0.4688,0.3685,0.2727,0.1772,0.0647,0.0,-0.1532,-0.2534,-0.347,-0.4395,-0.5406,-0.6179,-0.6789,-0.7486,-0.7972,-0.8349,0.0,0.0,0.0,0.0,0.0,0.0,0.0,0.0,0.0,0.0,0.0,0.0,0.0,0.0,0.0,0.0,0.0,0.0,0.0,0.0,0.0,0.0,0.0,0.0,0.0,0.0,0.0,0.0,0.0,0.0,0.0,0.0,0.0,0.0,0.0,0.0,0.0,0.0,0.0,0.0,0.0,0.0,0.0,0.0,0.0,0.0,0.0,0.0,0.0,0.0,3.5273,3.5193,3.5072,3.5001,3.4908,3.4749,3.4517,3.4269,3.4049,3.3716,3.335,3.3086,3.2687,3.2266,3.1841,3.1219,0.0,0.0,2.9735,2.9246,2.895,0.0,2.7963,0.0,0.0,0.0,0.0,0.0,0.0,0.0,0.0,0.0,0.0,0.0,0.0,0.0,0.0,0.0,1.6311,1.4469,1.3183,1.2696,1.2027,1.1351,1.0654,1.0028,0.9204,0.8366,0.7642,0.6793,0.5939,0.4982,0.3931,0.2825,0.1777,0.0,0.0,-0.128,-0.2283,-0.3234,-0.4061,-0.4772,-0.5479,-0.5964,-0.6392,-0.6656,0.0,0.0,0.0,0.0,0.0,0.0,0.0,0.0,0.0,0.0,0.0,0.0,0.0,0.0,0.0,0.0,0.0,0.0,0.0,0.0,0.0,0.0,0.0,0.0,0.0,0.0,0.0,0.0,0.0,0.0,0.0,0.0,0.0,0.0,0.0,0.0,0.0,0.0,0.0,0.0,0.0,0.0,0.0,0.0,0.0,0.0,0.0,0.0,0.0,0.0,0.0,3.4927,3.4849,3.4811,3.4812,3.4728,0.0,0.0,3.4293,3.4074,3.3788,3.352,3.3178,3.2784,3.2266,0.0,0.0,3.0694,2.9898,2.9225,2.9569,2.9152,0.0,0.0,0.0,0.0,0.0,0.0,0.0,0.0,0.0,0.0,0.0,0.0,0.0,0.0,0.0,0.0,1.6113,1.5219,1.4433,1.3846,1.3183,1.252,1.1856,1.117,1.0415,0.9646,0.8865,0.8021,0.7042,0.5965,0.5001,0.403,0.2726,0.0,0.0,0.0,-0.0951,-0.1838,-0.2391,-0.2998,-0.3605,-0.3865,-0.4017,-0.4008,0.0,0.0,0.0,0.0,0.0,0.0,0.0,0.0,0.0,0.0,0.0,0.0,0.0,0.0,0.0,0.0,0.0,0.0,0.0,0.0,0.0,0.0,0.0,0.0,0.0,0.0,0.0,0.0,0.0,0.0,0.0,0.0,0.0,0.0,0.0,0.0,0.0,0.0,0.0,0.0,0.0,0.0,0.0,0.0,0.0,0.0,0.0,0.0,0.0,0.0,0.0,0.0,3.4539,3.4498,0.0,0.0,3.4495,3.4381,3.4221,3.4023,3.3807,3.3549,3.2877,3.2197,3.1833,0.0,3.0041,2.9884,2.9616,2.9452,2.9349,2.9287,2.9136,0.0,0.0,0.0,0.0,0.0,0.0,0.0,0.0,0.0,0.0,0.0,0.0,0.0,0.0,0.0,1.7234,1.6117,1.5274,1.4874,1.4213,1.3614,1.3061,1.2389,1.1648,1.0829,1.0135,0.9225,0.8195,0.7226,0.6195,0.5142,0.4016,0.0,0.0,0.1457,0.0668,0.0,-0.0388,-0.0663,-0.0881,-0.0821,-0.0598,-0.0215,0.0,0.0,0.0,0.0,0.0,0.0,0.0,0.0,0.0,0.0,0.0,0.0,0.0,0.0,0.0,0.0,0.0,0.0,0.0,0.0,0.0,0.0,0.0,0.0,0.0,0.0,0.0,0.0,0.0,0.0,0.0,0.0,0.0,0.0,0.0,0.0,0.0,0.0,0.0,0.0,0.0,0.0,0.0,0.0,0.0,0.0,0.0,0.0,0.0,0.0,0.0,0.0,0.0,0.0,0.0,0.0,3.4363,3.4269,3.4124,3.3947,3.368,3.3257,3.2491,3.1727,0.0,0.0,2.9415,2.9212,2.9087,2.906,2.9165,2.9237,2.923,0.0,0.0,0.0,0.0,0.0,0.0,0.0,0.0,0.0,0.0,0.0,0.0,0.0,0.0,0.0,0.0,1.7213,1.6379,1.5758,1.5235,1.4628,1.4067,1.3485,1.2761,1.1867,1.1254,1.0356,0.9228,0.8308,0.7323,0.6278,0.0,0.0,0.0,0.3113,0.2556,0.2052,0.1988,0.2085,0.2286,0.275,0.3406,0.414,0.0,0.0,0.0,0.0,0.0,0.0,0.0,0.0,0.0,0.0,0.0,0.0,0.0,0.0,0.0,0.0,0.0,0.0,0.0,0.0,0.0,0.0,0.0,0.0,0.0,0.0,0.0,0.0,0.0,0.0,0.0,0.0,0.0,0.0,0.0,0.0,0.0,0.0,0.0,0.0,0.0,0.0,0.0,0.0,0.0,0.0,0.0,0.0,0.0,0.0,0.0,0.0,0.0,0.0,0.0,0.0,3.4148,3.4099,3.4023,3.3895,3.3551,3.2547,3.2169,3.1661,0.0,2.9443,2.8791,2.9056,2.8258,2.7898,2.9191,2.9066,2.8973,2.9403,0.0,0.0,0.0,0.0,0.0,0.0,0.0,0.0,0.0,0.0,0.0,0.0,0.0,0.0,0.0,1.8602,1.7788,1.6627,1.6104,1.5565,1.4904,1.4442,1.367,1.2672,1.2196,1.1297,1.0036,0.9128,0.8267,0.0,0.0,0.0,0.0,0.4988,0.4652,0.4423,0.4779,0.5276,0.5852,0.6881,0.796,0.9089,0.0,0.0,0.0,0.0,0.0,0.0,0.0,0.0,0.0,0.0,0.0,0.0,0.0,0.0,0.0,0.0,0.0,0.0,0.0,0.0,0.0,0.0,0.0,0.0,0.0,0.0,0.0,0.0,0.0,0.0,0.0,0.0,0.0,0.0,0.0,0.0,0.0,0.0,0.0,0.0,0.0,0.0,0.0,0.0,0.0,0.0,0.0,0.0,0.0,0.0,0.0,0.0,0.0,0.0,0.0,0.0,0.0,0.0,3.3726,3.3214,3.2619,3.2195,3.1139,3.0058,2.9513,2.8588,2.7869,2.7739,2.7673,2.7878,2.8622,2.8804,2.9043,2.9609,2.9335,0.0,0.0,0.0,0.0,0.0,0.0,0.0,0.0,0.0,0.0,0.0,0.0,0.0,0.0,1.9384,1.8655,1.7512,1.7011,1.656,1.6093,1.5575,1.483,1.3798,1.3341,1.2369,1.0997,1.0344,0.0,0.0,0.0,0.0,0.0,0.6967,0.7004,0.7142,0.7774,0.8619,0.9665,1.0918,1.2313,1.3712,0.0,0.0,0.0,0.0,0.0,0.0,0.0,0.0,0.0,0.0,0.0,0.0,0.0,0.0,0.0,0.0,0.0,0.0,0.0,0.0,0.0,0.0,0.0,0.0,0.0,0.0,0.0,0.0,0.0,0.0,0.0,0.0,0.0,0.0,0.0,0.0,0.0,0.0,0.0,0.0,0.0,0.0,3.6046,0.0,0.0,0.0,0.0,0.0,0.0,0.0,0.0,0.0,0.0,0.0,0.0,0.0,3.2496,0.0,0.0,3.2296,3.1513,3.1034,3.0083,0.0,0.0,2.7871,2.7324,2.707,2.7165,2.7528,2.8402,2.8547,2.8844,2.9735,2.9576,0.0,0.0,0.0,0.0,0.0,0.0,0.0,0.0,0.0,0.0,0.0,0.0,0.0,0.0,2.0105,1.9592,1.8738,1.7995,1.7457,1.7078,1.6437,1.5614,1.4611,1.4074,1.3101,1.1843,1.1368,0.0,0.0,0.0,0.0,0.0,0.9016,0.9291,0.9708,1.0681,1.1874,1.3181,1.4732,1.6228,1.769,0.0,0.0,0.0,0.0,0.0,0.0,0.0,0.0,0.0,0.0,0.0,0.0,0.0,0.0,0.0,0.0,0.0,0.0,0.0,0.0,0.0,0.0,0.0,0.0,0.0,0.0,0.0,3.0364,3.1083,3.1708,3.2191,0.0,0.0,0.0,0.0,0.0,0.0,0.0,0.0,0.0,0.0,0.0,0.0,0.0,0.0,0.0,0.0,0.0,0.0,0.0,0.0,0.0,0.0,0.0,0.0,0.0,0.0,0.0,0.0,3.1082,0.0,0.0,0.0,0.0,2.7622,2.7293,0.0,2.6942,2.6725,2.6991,2.8356,2.8301,2.8445,2.9789,2.9858,0.0,0.0,0.0,0.0,0.0,0.0,0.0,0.0,0.0,0.0,0.0,0.0,0.0,0.0,2.0822,2.051,2.0093,1.9004,1.8333,1.7952,1.7078,1.6157,1.5268,1.4511,1.364,1.2657,1.2159,0.0,0.0,0.0,0.0,0.0,1.1023,1.1518,1.2167,1.351,1.494,1.648,1.8208,1.9719,2.107,0.0,0.0,0.0,0.0,0.0,0.0,0.0,0.0,0.0,0.0,0.0,0.0,0.0,0.0,0.0,0.0,0.0,0.0,0.0,0.0,0.0,0.0,0.0,0.0,0.0,0.0,0.0,2.8126,2.8864,2.9425,2.9943,3.0558,0.0,0.0,0.0,0.0,0.0,0.0,0.0,0.0,0.0,0.0,0.0,0.0,0.0,0.0,3.0336,3.0074,0.0,0.0,0.0,0.0,0.0,0.0,0.0,0.0,2.9851,2.8987,2.9149,0.0,2.9241,2.8961,2.8347,2.7735,0.0,2.7135,2.699,2.6775,0.0,2.6937,2.8281,2.8318,2.8599,2.9917,2.9957,0.0,0.0,0.0,0.0,0.0,0.0,0.0,0.0,0.0,0.0,0.0,0.0,0.0,0.0,2.1458,2.1166,2.0785,2.0308,1.9631,1.8774,1.7955,1.706,1.6104,1.5329,1.451,1.3684,1.3351,0.0,0.0,0.0,0.0,1.2415,1.2984,1.3678,1.4541,1.5927,1.7413,1.8961,2.0548,2.1901,2.3033,0.0,0.0,0.0,0.0,0.0,0.0,0.0,0.0,0.0,0.0,0.0,0.0,0.0,0.0,0.0,0.0,0.0,0.0,0.0,0.0,0.0,0.0,0.0,0.0,0.0,0.0,0.0,0.0,0.0,2.734,0.0,0.0,0.0,0.0,0.0,0.0,0.0,0.0,0.0,0.0,3.0822,0.0,0.0,0.0,0.0,0.0,2.9028,2.8965,0.0,2.954,2.9865,3.0166,0.0,0.0,0.0,0.0,2.8793,2.7913,2.7657,2.7833,2.8119,2.8042,2.7667,2.7261,2.7103,0.0,0.0,0.0,0.0,2.725,2.831,2.8599,2.9033,3.011,3.006,0.0,0.0,0.0,0.0,0.0,0.0,0.0,0.0,0.0,0.0,0.0,0.0,0.0,0.0,2.2091,2.1841,2.1471,2.1264,2.0529,1.9231,1.8424,1.7618,1.6693,1.5893,1.5188,1.4606,1.4398,1.4118,0.0,0.0,0.0,1.4125,1.471,1.5545,1.6622,1.7991,1.9398,2.0885,2.2264,2.3382,2.4276,0.0,0.0,0.0,0.0,0.0,0.0,0.0,0.0,0.0,0.0,0.0,0.0,0.0,0.0,0.0,0.0,0.0,0.0,0.0,0.0,0.0,0.0,0.0,0.0,0.0,0.0,0.0,0.0,0.0,0.0,0.0,0.0,2.6655,0.0,0.0,0.0,0.0,0.0,0.0,0.0,2.9115,0.0,0.0,0.0,0.0,0.0,0.0,0.0,0.0,2.8606,2.9028,2.9422,2.9548,0.0,0.0,0.0,0.0,0.0,2.6705,2.6808,2.7053,2.7021,2.7038,2.6973,2.6876,0.0,0.0,0.0,0.0,0.0,0.0,0.0,0.0,0.0,0.0,0.0,0.0,0.0,0.0,0.0,0.0,0.0,0.0,0.0,0.0,0.0,0.0,0.0,0.0,2.2706,2.2509,2.2123,2.1899,2.1117,1.969,1.8819,1.8004,1.7222,1.6397,1.5876,1.5611,1.5412,1.5232,0.0,0.0,0.0,1.5684,1.6268,1.718,1.8394,1.9645,2.0991,2.2322,2.347,2.435,2.5008,0.0,0.0,0.0,0.0,0.0,0.0,0.0,0.0,0.0,0.0,0.0,0.0,0.0,0.0,0.0,0.0,0.0,0.0,0.0,0.0,0.0,0.0,0.0,0.0,0.0,0.0,0.0,0.0,0.0,0.0,2.394,2.4302,2.4803,0.0,0.0,0.0,2.6283,2.6433,2.6773,2.7311,2.7311,0.0,0.0,0.0,0.0,0.0,0.0,0.0,0.0,2.7864,2.8352,2.8639,2.8439,0.0,0.0,0.0,0.0,0.0,2.6293,2.64,2.6487,2.6691,2.6725,2.6674,2.664,0.0,0.0,0.0,0.0,0.0,0.0,0.0,0.0,0.0,0.0,0.0,0.0,0.0,0.0,0.0,0.0,0.0,0.0,0.0,0.0,0.0,0.0,0.0,0.0,2.3187,2.2994,2.2618,2.1998,2.1309,2.0527,1.9731,1.8803,1.786,1.7149,1.6697,1.6497,1.6337,1.6207,0.0,0.0,1.6587,1.6886,1.7599,1.8536,1.9642,2.0782,2.1973,2.3119,2.4046,2.4749,2.524,0.0,0.0,0.0,0.0,0.0,0.0,0.0,0.0,0.0,0.0,0.0,0.0,0.0,0.0,0.0,0.0,0.0,0.0,0.0,0.0,0.0,0.0,0.0,0.0,0.0,0.0,0.0,0.0,0.0,2.1638,2.2253,2.2861,2.339,2.3756,0.0,0.0,2.4589,2.4672,2.5098,2.573,0.0,0.0,0.0,0.0,0.0,0.0,0.0,0.0,0.0,0.0,2.7363,2.7694,2.7472,0.0,0.0,0.0,0.0,0.0,2.5881,2.6026,2.6154,2.6279,2.6417,2.6554,2.6554,0.0,0.0,0.0,0.0,0.0,0.0,0.0,0.0,0.0,0.0,0.0,0.0,0.0,0.0,0.0,0.0,0.0,0.0,0.0,0.0,0.0,0.0,0.0,0.0,0.0,2.3402,2.2773,2.2292,2.1593,2.0615,2.0141,1.9363,1.8276,1.7787,1.7489,1.7421,1.7256,1.7214,1.7229,0.0,1.776,1.8118,1.8745,1.9611,2.0588,2.1591,2.2621,2.3648,2.4619,2.5176,2.54,0.0,0.0,0.0,0.0,0.0,0.0,0.0,0.0,0.0,0.0,0.0,0.0,0.0,0.0,0.0,0.0,0.0,0.0,0.0,0.0,0.0,0.0,0.0,0.0,0.0,0.0,1.8141,1.8957,1.9502,2.0041,2.0682,2.1527,2.1983,0.0,0.0,0.0,2.301,2.3073,2.3526,2.4158,0.0,0.0,0.0,0.0,0.0,0.0,0.0,0.0,0.0,0.0,0.0,0.0,0.0,0.0,0.0,2.5617,2.5361,2.5301,2.5486,2.5749,2.5917,2.5974,0.0,2.6415,2.6415,0.0,0.0,0.0,0.0,0.0,0.0,0.0,0.0,0.0,0.0,0.0,0.0,0.0,0.0,0.0,0.0,0.0,0.0,0.0,0.0,0.0,0.0,0.0,0.0,0.0,2.362,2.3021,2.2486,2.1744,2.0738,2.0445,1.9765,1.8655,1.8408,1.8266,1.8266,1.8147,1.8187,1.8291,1.8486,1.8817,1.92,1.9763,2.0503,2.1381,2.2238,2.3168,2.4149,2.5033,2.5446,2.5527,0.0,0.0,0.0,0.0,0.0,0.0,0.0,0.0,0.0,0.0,0.0,0.0,0.0,0.0,0.0,0.0,0.0,0.0,0.0,0.0,0.0,0.0,0.0,0.0,0.0,1.5959,1.6527,1.7196,1.7836,1.8559,1.945,2.0079,2.0469,2.0692,0.0,0.0,2.169,2.1832,2.2134,2.2542,2.2455,0.0,0.0,0.0,0.0,0.0,0.0,0.0,0.0,0.0,0.0,0.0,0.0,0.0,2.5606,2.4664,2.462,2.4934,2.5301,2.5524,2.5675,2.5954,2.6115,0.0,2.6203,2.6203,0.0,0.0,0.0,0.0,0.0,0.0,0.0,0.0,0.0,0.0,0.0,0.0,0.0,0.0,0.0,0.0,0.0,0.0,0.0,0.0,0.0,0.0,0.0,0.0,0.0,2.3538,2.2257,2.1528,2.1435,2.0729,1.9975,1.9132,1.9132,1.9072,1.9026,1.9026,1.9049,1.9132,1.9339,1.96,1.9958,2.0634,2.1274,2.1915,2.2737,2.3741,2.4771,2.5158,2.5429,2.5592,0.0,0.0,0.0,0.0,0.0,0.0,0.0,0.0,0.0,0.0,0.0,0.0,0.0,0.0,0.0,0.0,0.0,0.0,0.0,0.0,0.0,0.0,0.0,1.1666,1.2851,1.4119,1.522,1.5974,1.678,1.7674,1.8487,1.8718,0.0,0.0,0.0,0.0,2.0148,2.0382,2.0602,2.0852,2.0793,2.0765,0.0,0.0,0.0,0.0,0.0,0.0,0.0,0.0,2.4568,2.472,0.0,0.0,2.4548,2.4139,2.4343,2.4735,2.5107,2.5394,2.5637,2.5881,2.599,0.0,0.0,0.0,0.0,0.0,0.0,0.0,0.0,0.0,0.0,0.0,0.0,0.0,0.0,0.0,0.0,0.0,0.0,0.0,0.0,0.0,0.0,0.0,0.0,0.0,0.0,0.0,0.0,2.277,2.2176,2.1634,2.1175,2.0906,2.0681,2.0431,2.0019,1.9823,1.9788,1.9788,1.9859,2.0019,2.0177,2.0483,2.0846,2.1337,2.1861,2.2441,2.3401,2.4209,2.4834,2.5129,2.5369,2.5543,0.0,0.0,0.0,0.0,0.0,0.0,0.0,0.0,0.0,0.0,0.0,0.0,0.0,0.0,0.0,0.0,0.0,0.0,0.0,0.0,0.0,0.0,0.0,1.0028,1.0722,1.2174,1.3451,1.4636,1.5711,1.6535,1.7188,0.0,0.0,0.0,0.0,0.0,0.0,1.9045,1.921,1.9345,1.9286,1.93,0.0,0.0,0.0,0.0,0.0,0.0,0.0,0.0,0.0,0.0,0.0,0.0,0.0,0.0,2.3952,2.4467,2.4871,2.5201,2.5524,0.0,0.0,0.0,0.0,0.0,0.0,0.0,0.0,0.0,0.0,0.0,0.0,0.0,0.0,0.0,0.0,0.0,0.0,0.0,0.0,0.0,0.0,0.0,0.0,0.0,0.0,0.0,0.0,0.0,0.0,0.0,2.2167,2.181,2.1291,2.1323,2.1354,2.1432,2.1007,2.0715,2.0548,2.0548,2.0648,2.0829,2.0943,2.1228,2.1628,2.201,2.2502,2.3052,2.3905,2.4456,2.4836,2.5102,2.5305,2.5471,0.0,0.0,0.0,0.0,0.0,0.0,0.0,0.0,0.0,0.0,0.0,0.0,0.0,0.0,0.0,0.0,0.0,0.0,0.0,0.0,0.0,0.0,0.0,0.8807,0.9602,1.0033,1.1154,1.296,1.4384,1.522,1.5394,1.6057,0.0,0.0,0.0,0.0,0.0,0.0,1.8021,1.8044,1.8004,1.8117,1.8363,0.0,0.0,0.0,0.0,0.0,0.0,0.0,2.2783,0.0,0.0,0.0,0.0,0.0,2.3523,2.4109,2.4467,2.4815,2.5208,0.0,0.0,0.0,0.0,0.0,0.0,0.0,0.0,0.0,0.0,0.0,0.0,0.0,0.0,0.0,0.0,0.0,0.0,0.0,0.0,0.0,0.0,0.0,0.0,0.0,0.0,0.0,0.0,0.0,0.0,0.0,2.2252,2.1928,2.1928,2.1969,2.2027,2.2027,2.2068,2.1836,2.1308,2.1308,2.1401,2.1524,2.1642,2.189,2.2248,2.2643,2.3218,2.3837,2.4174,2.4505,2.4832,2.5103,2.5283,2.542,0.0,0.0,0.0,0.0,0.0,0.0,0.0,0.0,0.0,0.0,0.0,0.0,0.0,0.0,0.0,0.0,0.0,0.0,0.0,0.0,0.0,0.0,0.0,0.0,0.0,0.0,1.0722,1.2619,1.3294,1.3886,0.0,0.0,0.0,1.5575,0.0,0.0,0.0,1.6533,1.6545,1.6656,1.6636,1.6613,1.6765,0.0,0.0,0.0,0.0,0.0,0.0,0.0,0.0,0.0,0.0,0.0,0.0,2.2583,2.3246,2.3967,2.44,2.4791,0.0,0.0,0.0,0.0,0.0,0.0,0.0,0.0,0.0,0.0,0.0,0.0,0.0,0.0,0.0,0.0,0.0,0.0,0.0,0.0,0.0,0.0,0.0,0.0,0.0,0.0,0.0,0.0,0.0,0.0,0.0,0.0,2.2423,2.2343,2.2392,2.2392,2.2463,2.2571,2.2634,2.2385,2.1849,2.1907,2.2022,2.2147,2.2269,2.2512,2.2797,2.3364,2.3798,2.4173,2.4424,2.47,2.4961,2.5145,2.5303,2.5478,0.0,0.0,0.0,0.0,0.0,0.0,0.0,0.0,0.0,0.0,0.0,0.0,0.0,0.0,0.0,0.0,0.0,0.0,0.0,0.0,0.0,0.0,0.0,0.0,0.0,0.8372,0.9593,0.0,0.0,0.0,0.0,0.0,0.0,1.4412,0.0,1.5087,0.0,0.0,1.5293,1.5307,1.5378,1.5437,1.5542,0.0,0.0,0.0,0.0,0.0,0.0,0.0,0.0,0.0,0.0,0.0,0.0,2.1969,2.274,2.3566,2.4094,2.4589,0.0,0.0,0.0,0.0,0.0,0.0,0.0,0.0,0.0,0.0,0.0,0.0,0.0,0.0,0.0,0.0,0.0,0.0,0.0,0.0,0.0,0.0,0.0,0.0,0.0,0.0,0.0,0.0,0.0,0.0,0.0,0.0,2.2712,2.2764,2.2782,2.2884,2.296,2.3052,2.3116,2.2965,2.2695,2.2599,2.2625,2.2781,2.2947,2.3171,2.3441,2.3881,2.4173,2.4389,2.4623,2.4851,2.5057,2.5222,2.5367,2.5511,0.0,0.0,0.0,0.0,0.0,0.0,0.0,0.0,0.0,0.0,0.0,0.0,0.0,0.0,0.0,0.0,0.0,0.0,0.0,0.0,0.0,0.0,0.0,0.0,0.0,0.0,0.0,0.0,0.0,0.0,0.0,0.0,1.279,1.3307,0.0,1.3824,0.0,1.417,1.413,1.4178,1.4373,1.4471,1.4537,1.5133,0.0,0.0,0.0,0.0,0.0,0.0,0.0,0.0,2.0076,0.0,2.061,2.1313,2.2156,2.2979,2.361,0.0,0.0,0.0,0.0,0.0,0.0,0.0,0.0,0.0,0.0,0.0,0.0,0.0,0.0,0.0,0.0,0.0,0.0,0.0,0.0,0.0,0.0,0.0,0.0,0.0,0.0,0.0,0.0,0.0,0.0,0.0,0.0,2.2952,2.3077,2.3151,2.3151,2.3348,2.344,0.0,2.3522,2.3588,2.3653,2.3312,2.3236,2.3376,2.3649,2.3862,2.406,2.4266,2.4425,2.457,2.4837,2.5006,2.5141,2.5341,2.5461,2.5525,0.0,0.0,0.0,0.0,0.0,0.0,0.0,0.0,0.0,0.0,0.0,0.0,0.0,0.0,0.0,0.0,0.0,0.0,0.0,0.0,0.0,0.0,0.0,0.0,0.0,0.0,0.0,0.0,0.0,0.0,0.0,0.0,0.0,1.2272,0.0,1.2813,1.3048,1.2904,1.2916,1.2871,1.3014,1.325,1.355,1.3825,1.4394,0.0,0.0,0.0,0.0,0.0,0.0,0.0,1.9171,1.9559,1.9837,2.0696,2.1657,2.2589,0.0,2.3994,0.0,0.0,0.0,0.0,0.0,0.0,0.0,0.0,0.0,0.0,0.0,0.0,0.0,0.0,0.0,0.0,0.0,0.0,0.0,0.0,0.0,0.0,0.0,0.0,0.0,0.0,0.0,0.0,0.0,0.0,0.0,2.3458,2.3491,2.354,2.3646,2.3689,2.3774,0.0,2.3941,2.402,2.4135,2.3756,2.3714,2.3941,2.4099,2.4283,2.4491,2.462,2.4771,2.491,2.508,2.5222,2.5351,2.5434,2.5525,2.5595,0.0,0.0,0.0,0.0,0.0,0.0,0.0,0.0,0.0,0.0,0.0,0.0,0.0,0.0,0.0,0.0,0.0,0.0,0.0,0.0,0.0,0.0,0.0,0.0,0.0,0.0,0.0,0.0,0.0,0.0,0.0,0.0,0.0,1.1316,0.0,1.1539,1.1863,1.1756,1.1725,1.169,1.1913,1.215,1.2378,1.2813,1.3317,1.3825,1.433,0.0,0.0,0.0,0.0,0.0,0.0,0.0,1.8874,1.9825,2.0868,2.1846,0.0,0.0,0.0,0.0,0.0,0.0,0.0,0.0,0.0,0.0,0.0,0.0,0.0,0.0,0.0,0.0,0.0,0.0,0.0,0.0,0.0,0.0,0.0,0.0,0.0,0.0,0.0,0.0,0.0,0.0,0.0,2.3664,2.3707,2.3789,2.3837,2.3881,2.3941,2.404,2.4118,2.4192,2.4302,2.4391,2.4476,2.4211,2.4192,2.4355,2.4472,2.4636,2.479,2.4896,2.5,2.5107,2.5244,2.5367,2.5468,2.5517,2.5561,2.5609,0.0,0.0,0.0,0.0,0.0,0.0,0.0,0.0,0.0,0.0,0.0,0.0,0.0,0.0,0.0,0.0,0.0,0.0,0.0,0.0,0.0,0.0,0.0,0.0,0.0,0.0,0.0,0.0,0.0,0.0,0.0,0.0,0.0,1.0366,0.0,0.0,1.0611,1.0605,1.0588,1.0594,1.0962,1.1111,1.126,1.1781,1.2224,1.2673,1.3237,1.389,1.4561,1.5043,0.0,0.0,0.0,0.0,1.7841,1.8886,1.9914,2.0966,0.0,0.0,0.0,0.0,0.0,0.0,0.0,0.0,0.0,0.0,0.0,0.0,0.0,0.0,0.0,0.0,0.0,0.0,0.0,0.0,0.0,0.0,0.0,0.0,0.0,0.0,0.0,0.0,0.0,0.0,2.3958,2.3978,2.4018,2.4057,2.4135,2.4174,2.4174,2.4355,2.4476,2.4458,2.461,2.4685,2.4771,2.4678,2.4666,2.47,2.4799,2.4929,2.5057,2.5126,2.5194,2.5255,2.539,2.5459,2.5523,2.5598,2.5618,2.5619,0.0,0.0,0.0,0.0,0.0,0.0,0.0,0.0,0.0,0.0,0.0,0.0,0.0,0.0,0.0,0.0,0.0,0.0,0.0897,0.0,0.0,0.1885,0.2243,0.0,0.0,0.0,0.0,0.0,0.0,0.0,0.0,0.0,0.0,0.9423,0.0,0.0,0.0,0.9587,0.9601,0.9549,0.9771,1.0067,1.0368,1.0663,1.0962,1.1409,1.1996,1.2519,1.2983,1.366,1.405,0.0,0.0,0.0,1.6768,1.7907,1.9008,2.0117,0.0,0.0,0.0,0.0,0.0,0.0,0.0,0.0,0.0,0.0,0.0,0.0,0.0,0.0,0.0,0.0,0.0,0.0,0.0,0.0,0.0,0.0,0.0,0.0,0.0,0.0,0.0,0.0,0.0,0.0,2.4247,2.4303,2.4339,2.4355,2.4408,2.4476,2.4524,2.4626,2.4689,2.4749,2.4874,2.4994,2.5049,2.5145,2.5122,2.5044,2.5061,2.5141,2.5273,2.534,2.539,2.5478,2.5549,2.558,2.5584,2.565,2.5683,2.5681,0.0,0.0,0.0,0.0,0.0,0.0,0.0,0.0,0.0,0.0,0.0,0.0,0.0,0.0,0.0,0.0538,0.0538,0.0448,0.0359,0.0448,0.0628,0.0987,0.1256,0.1436,0.0,0.0,0.0,0.0,0.0,0.0,0.0,0.5897,0.7004,0.0,0.0,0.0,0.0,0.0,0.8562,0.8637,0.8861,0.9084,0.9382,0.0,0.9911,1.0293,1.0663,1.126,1.1784,1.2038,1.247,1.306,1.3655,0.0,0.0,0.0,1.7698,0.0,2.0913,0.0,0.0,0.0,0.0,0.0,0.0,0.0,0.0,0.0,0.0,0.0,0.0,0.0,0.0,0.0,0.0,0.0,0.0,0.0,0.0,0.0,0.0,0.0,0.0,0.0,0.0,0.0,0.0,2.4462,2.4478,2.4495,2.4564,2.461,2.4657,2.4704,2.4764,2.4818,2.4934,2.5025,2.508,2.516,2.5215,2.5313,2.5313,2.5201,2.5255,2.532,2.5418,2.5473,2.5523,2.5561,2.5629,2.5657,2.5654,2.5683,2.5677,2.5637,0.0,0.0,0.0,0.0,0.0,0.0,0.0,0.0,0.0,0.0,0.0,0.0,0.0,0.0,0.0,0.0,0.009,0.0,-0.0269,-0.0179,-0.009,0.009,0.0269,0.0538,0.0807,0.0,0.0,0.0,0.0,0.0,0.3941,0.4362,0.5436,0.0,0.6913,0.0,0.0,0.0,0.0,0.0,0.0,0.0,0.0,0.0,0.0,0.0,0.9463,0.9911,1.0507,1.049,1.0992,1.1634,1.2092,1.2915,0.0,0.0,0.0,0.0,0.0,0.0,0.0,0.0,0.0,0.0,0.0,0.0,0.0,0.0,0.0,0.0,0.0,0.0,0.0,0.0,0.0,0.0,0.0,0.0,0.0,0.0,0.0,0.0,0.0,0.0,0.0,0.0,0.0,2.4673,2.4685,2.47,2.4749,2.4861,2.487,2.4912,2.498,2.5038,2.5134,2.5252,2.5243,2.5284,2.5346,2.5426,2.5418,2.5385,2.5422,2.5473,2.5531,2.5591,2.5625,2.5623,2.5689,2.57,2.5703,2.5673,2.5648,2.5609,0.0,0.0,0.0,0.0,0.0,0.0,0.0,0.0,0.0,0.0,0.0,0.0,0.0,-0.0628,-0.0628,-0.0628,-0.0628,-0.0718,-0.0987,-0.0807,-0.0628,-0.0628,-0.0448,0.0,0.009,0.0,0.0,0.0,0.0,0.0,0.2956,0.3424,0.4038,0.4875,0.5702,0.6286,0.6541,0.0,0.0,0.0,0.0,0.0,0.0,0.0,0.0,0.0,0.0,0.8618,0.8864,0.9143,0.9539,1.0131,1.0701,1.1578,1.2549,0.0,0.0,0.0,0.0,0.0,0.0,0.0,0.0,0.0,0.0,0.0,0.0,0.0,0.0,0.0,0.0,0.0,0.0,0.0,0.0,0.0,0.0,0.0,0.0,0.0,0.0,0.0,0.0,0.0,0.0,0.0,0.0,2.4888,2.4888,2.4934,2.4974,2.4981,2.5057,2.5125,2.5176,2.525,2.5322,2.5378,2.5378,2.541,2.5492,2.5564,2.5593,2.5576,2.5585,2.5595,2.5604,2.5665,2.5683,2.5694,2.5703,2.5699,2.5687,2.5639,2.5595,2.5576,0.0,0.0,0.0,0.0,0.0,0.0,0.0,0.0,0.0,0.0,0.0,0.0,0.0,-0.1166,-0.1256,-0.1436,-0.1525,-0.1705,-0.1794,-0.1705,-0.1615,-0.1436,-0.1345,-0.1166,-0.0897,0.0,0.0,0.0,0.0,0.1435,0.1972,0.2369,0.3004,0.3861,0.4709,0.5264,0.5535,0.5727,0.0,0.0,0.0,0.0,0.0,0.0,0.0,0.0,0.0,0.0,0.0,0.7852,0.8136,0.8607,0.9148,0.9875,1.0857,1.2866,0.0,0.0,0.0,0.0,0.0,0.0,0.0,0.0,0.0,0.0,0.0,0.0,0.0,0.0,0.0,0.0,0.0,0.0,0.0,0.0,0.0,0.0,0.0,0.0,0.0,0.0,0.0,0.0,0.0,0.0,0.0,0.0,2.5024,2.5087,2.5141,2.5126,2.5198,2.5271,2.5322,2.5341,2.5395,2.5456,2.5456,2.5492,2.556,2.5586,2.5609,2.5652,2.5651,2.5654,2.5673,2.5696,2.5702,2.5703,2.5694,2.5679,2.5636,2.5615,2.555,2.5441,0.0,0.0,0.0,0.0,0.0,0.0,0.0,0.0,0.0,0.0,0.0,0.0,0.0,0.0,-0.1794,-0.1974,-0.2243,-0.2423,-0.2512,-0.2512,-0.2422,-0.2242,-0.2242,-0.2062,-0.1883,0.0,0.0,0.0,0.0,0.0,0.0,0.1394,0.2045,0.2853,0.3415,0.4053,0.0,0.0,0.0,0.5315,0.0,0.0,0.5777,0.0,0.0,0.0,0.0,0.0,0.0,0.0,0.6647,0.6999,0.0,0.0,0.0,0.0,0.0,0.0,0.0,0.0,0.0,0.0,0.0,0.0,0.0,0.0,0.0,0.0,0.0,0.0,0.0,0.0,0.0,0.0,0.0,0.0,0.0,0.0,0.0,0.0,0.0,0.0,0.0,0.0,0.0,0.0,0.0,0.0,2.5171,2.5231,2.5262,2.5284,2.5332,2.5397,2.5437,2.5426,2.5464,2.5531,2.5531,2.5565,2.5632,2.5629,2.5668,2.5705,2.5699,2.5701,2.5697,2.5703,2.57,2.5691,2.569,2.5621,2.5566,2.5544,2.5434,2.5274,0.0,0.0,0.0,0.0,0.0,0.0,0.0,0.0,0.0,0.0,0.0,0.0,0.0,0.0,0.0,-0.2513,-0.278,-0.3047,-0.3227,-0.3047,-0.3047,-0.3227,-0.3047,-0.2957,-0.2957,0.0,0.0,0.0,0.0,0.0,0.0,0.0,0.1092,0.193,0.1923,0.2666,0.4079,0.0,0.4462,0.4698,0.0,0.4927,0.4927,0.0,0.0,0.0,0.4698,0.4774,0.0,0.4871,0.0,0.0,0.0,0.0,0.0,0.0,0.0,0.0,0.0,0.0,0.0,0.0,0.0,0.0,0.0,0.0,0.0,0.0,0.0,0.0,0.0,0.0,0.0,0.0,0.0,0.0,0.0,0.0,0.0,0.0,0.0,0.0,0.0,0.0,0.0,0.0,0.0,2.5313,2.5313,2.5361,2.5397,2.5401,2.5461,2.549,2.5499,2.5493,2.5549,2.5591,2.5591,2.5636,2.569,2.5698,2.5709,2.5701,2.5703,2.5703,2.5703,2.5697,2.5705,2.5687,2.5617,2.5551,2.5486,2.5426,2.5265,2.5069,0.0,0.0,0.0,0.0,0.0,0.0,0.0,0.0,0.0,0.0,0.0,0.0,0.0,0.0,-0.3229,-0.3318,-0.3494,-0.3671,-0.3671,-0.3851,-0.3941,-0.4032,-0.3941,-0.3941,-0.3941,0.0,0.0,0.0,0.0,0.0,0.0,0.0,0.0,0.0,0.0882,0.1569,0.2586,0.321,0.0,0.0,0.3995,0.4151,0.0,0.0,0.0,0.0,0.0,0.368,0.3651,0.0,0.3702,0.3953,0.0,0.0,0.0,0.0,0.0,0.0,1.2218,0.0,0.0,0.0,0.0,0.0,0.0,0.0,0.0,0.0,0.0,0.0,0.0,0.0,0.0,0.0,0.0,0.0,0.0,0.0,0.0,0.0,0.0,0.0,0.0,0.0,0.0,0.0,2.5378,2.5367,2.5367,2.5448,2.5468,2.5466,2.5499,2.5518,2.5562,2.5565,2.5605,2.5671,2.5668,2.5687,2.5703,2.5696,2.5702,2.5703,2.5698,2.5707,2.5696,2.571,2.5675,2.5624,2.5554,2.5492,2.5406,2.5236,2.5057,2.4858,0.0,0.0,0.0,0.0,0.0,0.0,0.0,0.0,0.0,0.0,0.0,0.0,0.0,0.0,0.0,-0.4034,-0.4208,-0.4385,-0.4476,-0.4656,-0.4835,-0.4921,-0.4921,-0.4921,0.0,0.0,0.0,0.0,0.0,0.0,0.0,0.0,0.0,0.0,0.0,0.0,0.0,0.0,0.0,0.0,0.3214,0.0,0.0,0.3294,0.3136,0.0,0.0,0.0,0.2456,0.236,0.2436,0.0,0.0,0.0,0.0,0.0,0.0,0.0,0.0,0.0,0.0,0.0,0.0,0.0,1.8698,2.0187,0.0,0.0,0.0,0.0,0.0,0.0,0.0,0.0,0.0,0.0,0.0,0.0,0.0,0.0,0.0,0.0,0.0,0.0,0.0,2.5432,2.5437,2.5434,2.5441,2.5517,2.5544,2.555,2.5543,2.5565,2.5649,2.5639,2.5656,2.5704,2.5693,2.5707,2.5698,2.5703,2.5703,2.5698,2.5703,2.5681,2.5656,2.5634,2.5595,2.5549,2.5485,2.5382,2.5245,2.5046,2.4799,2.4516,0.0,0.0,0.0,0.0,0.0,0.0,0.0,0.0,0.0,0.0,0.0,0.0,0.0,0.0,0.0,0.0,-0.5013,-0.5188,-0.546,-0.5549,0.0,-0.5808,-0.5808,-0.5897,0.0,0.0,0.0,0.0,0.0,0.0,0.0,0.0,0.0,0.0,0.0,0.0,0.0,0.0,0.0,0.2275,0.2354,0.2433,0.0,0.0,0.2275,0.0,0.1803,0.1623,0.1357,0.1099,0.1192,0.0,0.0,0.0,0.0,0.0,0.512,0.0,0.0,0.0,0.0,0.0,0.0,0.0,1.6252,1.7871,1.9395,0.0,0.0,0.0,0.0,0.0,0.0,0.0,0.0,0.0,0.0,0.0,0.0,0.0,0.0,0.0,0.0,2.5351,2.5423,2.5484,2.5515,2.5517,2.5506,2.557,2.5607,2.5607,2.562,2.5643,2.5699,2.5703,2.5704,2.5707,2.5709,2.5698,2.5703,2.5703,2.5698,2.5705,2.5681,2.5652,2.5576,2.5518,2.5485,2.5478,2.541,2.5235,2.5049,2.4818,2.4465,2.4062,-0.9428,0.0,0.0,0.0,0.0,0.0,0.0,0.0,0.0,0.0,0.0,0.0,0.0,0.0,0.0,0.0,0.0,-0.5905,-0.5994,-0.6349,-0.6526,-0.6615,-0.67,-0.6786,-0.6786,0.0,0.0,0.0,0.0,0.0,0.0,0.0,0.0,0.0,0.0,0.0,0.0,0.0,0.0,0.0785,0.1492,0.0,0.1806,0.1806,0.1414,0.0942,0.0864,0.0541,0.015,0.0,-0.0069,0.0134,0.0,0.0,0.0,0.0,0.0,0.0,0.0,0.0,0.0,0.0,0.0,0.0,1.3525,1.5184,1.6698,0.0,0.0,0.0,0.0,0.0,0.0,0.0,0.0,0.0,0.0,0.0,0.0,0.0,0.0,0.0,0.0,2.5351,2.5425,2.5484,2.5556,2.5583,2.5587,2.5593,2.5609,2.5595,2.5648,2.5699,2.571,2.569,2.5703,2.5707,2.57,2.5703,2.5703,2.5698,2.5705,2.5693,2.5644,2.5586,2.5511,2.5456,2.541,2.5404,2.5234,2.5049,2.4818,2.4449,2.4025,2.3541,-1.0033,0.0,0.0,0.0,0.0,0.0,0.0,0.0,0.0,0.0,0.0,0.0,0.0,0.0,0.0,0.0,0.0,0.0,0.0,0.0,-0.7323,-0.7496,-0.7757,-0.7845,-0.7845,-0.7577,0.0,0.0,0.0,0.0,0.0,0.0,0.0,0.0,0.0,0.0,0.0,0.0,-0.0785,-0.0079,0.0629,0.0,0.0943,0.0943,0.055,0.0,0.0,-0.046,-0.1104,-0.1257,-0.129,0.0,0.0,-0.0872,-0.0402,0.0,0.0869,0.1602,0.0,0.0,0.0,0.599,0.0,0.0,0.0,1.1904,1.3506,1.4773,0.0,0.0,0.0,0.0,0.0,0.0,0.0,0.0,0.0,0.0,0.0,0.0,0.0,0.0,0.0,2.5282,2.5398,2.5499,2.555,2.5609,2.5607,2.5604,2.56,2.5595,2.5675,2.5691,2.5701,2.5701,2.5709,2.5694,2.5702,2.5703,2.57,2.5707,2.569,2.5648,2.5586,2.5511,2.5437,2.5339,2.5215,2.5088,2.4993,2.4776,2.4449,2.4025,2.344,2.2775,-1.0641,0.0,0.0,0.0,0.0,0.0,0.0,0.0,0.0,0.0,0.0,0.0,0.0,0.0,0.0,0.0,0.0,0.0,0.0,0.0,0.0,0.0,-0.8723,-0.8899,-0.8899,-0.8636,-0.8548,0.0,0.0,0.0,0.0,0.0,0.0,0.0,0.0,0.0,0.0,0.0,0.0,-0.0942,0.0,-0.0079,0.0157,0.0157,-0.0314,-0.0863,-0.101,-0.1504,-0.2223,-0.232,0.0,-0.2683,-0.2683,-0.2547,0.0,0.0,0.0,0.0,0.0,0.0,0.0,0.0,0.0,0.5517,0.0,0.0,0.0,1.1336,0.0,0.0,0.0,0.0,0.0,0.0,0.0,0.0,0.0,0.0,0.0,0.0,0.0,0.0,0.0,2.5187,2.5351,2.548,2.555,2.5583,2.5601,2.559,2.5591,2.5591,2.5664,2.5701,2.571,2.5705,2.5694,2.5701,2.5703,2.5701,2.5693,2.5696,2.5652,2.5595,2.5537,2.5444,2.5348,2.5194,2.4981,2.4718,2.4718,2.4433,2.3987,2.3458,2.2708,2.1804,-1.1413,-1.0809,0.0,0.0,0.0,0.0,0.0,0.0,0.0,0.0,0.0,0.0,0.0,0.0,0.0,0.0,0.0,0.0,-0.8456,0.0,0.0,0.0,0.0,0.0,-0.9864,-0.9777,-0.9689,0.0,0.0,0.0,0.0,0.0,0.0,0.0,-0.4929,0.0,0.0,0.0,-0.2665,0.0,-0.2038,-0.1334,0.0,-0.0471,-0.102,-0.1794,-0.2388,-0.274,-0.294,0.0,-0.3551,-0.3816,0.0,-0.3816,-0.3747,0.0,0.0,0.0,0.0,0.0,0.0,0.0,0.126,0.0,0.0,0.0,0.6145,0.7404,0.0,0.0,0.0,0.0,0.0,0.0,0.0,0.0,0.0,0.0,0.0,0.0,0.0,0.0,0.0,0.0,2.5341,2.5401,2.5464,2.5531,2.5601,2.559,2.5595,2.5604,2.5675,2.5707,2.571,2.5693,2.57,2.5702,2.5703,2.5697,2.5707,2.5707,2.5652,2.5604,2.5538,2.5401,2.5215,2.4998,2.4743,2.4435,2.4386,2.4044,2.3498,2.2718,2.173,2.0575,-1.2157,-1.1671,0.0,0.0,0.0,0.0,0.0,0.0,0.0,0.0,0.0,0.0,0.0,0.0,0.0,0.0,0.0,-0.9423,0.0,0.0,0.0,0.0,0.0,0.0,-1.0722,-1.0722,-1.0661,-1.0359,-0.9883,0.0,0.0,0.0,0.0,0.0,-0.6247,0.0,-0.4924,0.0,0.0,0.0,0.0,0.0,0.0,-0.1726,-0.1944,-0.2594,-0.319,-0.36,-0.3896,0.0,-0.4749,0.0,0.0,0.0,0.0,0.0,0.0,0.0,0.0,0.0,0.0,0.0,0.0,0.0,0.0199,0.0,0.25,0.0,0.0,0.0,0.0,0.0,0.0,0.0,0.0,0.0,0.0,0.0,0.0,0.0,0.0,0.0,0.0,0.0,0.0,0.0,0.0,2.5476,2.5531,2.5582,2.5609,2.56,2.5675,2.5697,2.571,2.5709,2.5699,2.5703,2.5701,2.5691,2.5696,2.5668,2.5615,2.5538,2.5429,2.5254,2.4998,2.4776,2.4383,2.3891,2.339,2.3053,2.275,2.1685,2.0416,1.8855,-1.2939,0.0,0.0,0.0,0.0,0.0,0.0,0.0,0.0,0.0,0.0,0.0,-0.8986,-0.9428,0.0,0.0,-1.0125,-1.0467,0.0,0.0,-1.1068,0.0,0.0,0.0,0.0,0.0,-1.1567,-1.1394,0.0,0.0,0.0,0.0,0.0,0.0,0.0,-0.678,-0.6086,0.0,0.0,-0.4384,-0.4073,-0.39,-0.3722,-0.3026,-0.2981,-0.3422,-0.3909,-0.4378,-0.4813,-0.5252,-0.5745,0.0,-0.6465,0.0,0.0,0.0,0.0,0.0,-0.6515,0.0,0.0,0.0,0.0,0.0,0.0,0.0,0.0,0.0,0.0,0.0,0.0,0.0,0.0,0.0,0.0,0.0,0.0,0.0,0.0,0.0,0.0,0.0,0.0,0.0,0.0,2.5099,2.5245,2.5357,2.5472,2.5538,2.5582,2.5599,2.5663,2.5694,2.5693,2.5691,2.57,2.5703,2.5697,2.5681,2.5678,2.5595,2.5525,2.5437,2.5274,2.5053,2.4776,2.4433,2.3912,2.3262,2.2341,2.1703,2.122,2.027,1.8753,1.6957,-1.3752,-1.3168,0.0,0.0,0.0,0.0,0.0,0.0,0.0,0.0,0.0,0.0,0.0,0.0,0.0,0.0,0.0,-1.1413,-1.1671,0.0,-1.21,0.0,0.0,-1.279,0.0,0.0,0.0,0.0,0.0,0.0,0.0,0.0,0.0,0.0,0.0,-0.7855,-0.7403,-0.6549,-0.6012,-0.5786,-0.5398,-0.5018,-0.4688,0.0,-0.4163,-0.4347,-0.4789,0.0,0.0,-0.5947,-0.6539,0.0,0.0,0.0,0.0,0.0,0.0,0.0,0.0,0.0,0.0,-0.7747,0.0,0.0,0.0,0.0,-0.4891,0.0,0.0,0.0,0.0,0.0,0.0,0.0,0.0,0.0,0.0,0.0,0.0,0.0,0.0,0.0,0.0,0.0,0.0,2.4883,2.503,2.5205,2.5387,2.5476,2.5538,2.5599,2.5671,2.5701,2.5698,2.5698,2.5703,2.57,2.5709,2.5665,2.5604,2.5529,2.5425,2.5293,2.5091,2.4812,2.447,2.4007,2.3386,2.259,2.1328,1.996,1.8585,1.8266,1.6797,1.4827,0.0,0.0,0.0,0.0,0.0,0.0,0.0,-1.0982,0.0,0.0,0.0,0.0,0.0,-1.1241,-1.1499,0.0,0.0,-1.2363,-1.279,-1.2875,0.0,0.0,0.0,-1.371,0.0,0.0,0.0,0.0,0.0,0.0,0.0,0.0,0.0,0.0,0.0,-0.9226,0.0,0.0,0.0,0.0,0.0,-0.6074,-0.5942,0.0,0.0,-0.5002,-0.5545,-0.6055,0.0,-0.7129,-0.7847,-0.8436,-0.8807,-0.9192,-0.9633,-0.9697,-0.9888,0.0,0.0,0.0,-1.0123,-0.9799,0.0,0.0,0.0,0.0,0.0,0.0,0.0,0.0,0.0,0.0,0.0,0.0,0.0,0.0,0.0,0.0,0.0,0.0,0.0,0.0,0.0,0.0,0.0,2.4205,2.458,2.4886,0.0,2.5293,2.5422,2.5538,2.56,2.5668,2.5705,2.5699,2.5703,2.5693,2.5665,2.5604,2.5529,2.5418,2.5274,2.5091,2.4793,2.4428,2.3988,2.3343,2.247,2.1433,1.9862,1.8012,1.6163,1.5982,1.5286,1.348,-1.4393,0.0,0.0,0.0,0.0,0.0,0.0,0.0,0.0,0.0,-1.1843,0.0,-1.1843,0.0,-1.2534,0.0,-1.2954,-1.347,-1.3815,-1.3984,0.0,-1.4664,-1.4712,0.0,0.0,0.0,0.0,0.0,0.0,-1.323,0.0,0.0,0.0,0.0,0.0,0.0,-0.99,0.0,-0.8542,0.0,0.0,-0.6992,0.0,0.0,-0.594,-0.5834,0.0,-0.6863,-0.7447,-0.8112,-0.8818,-0.9454,-0.9901,-1.0345,-1.078,-1.1031,-1.1274,-1.1524,-1.1648,-1.1764,0.0,-1.1703,-1.1618,0.0,-1.1224,0.0,0.0,0.0,0.0,0.0,0.0,0.0,0.0,0.0,0.0,0.0,0.0,0.3844,0.0,0.0,0.0,0.0,0.0,0.0,2.2277,2.3159,2.3767,2.4284,0.0,0.0,2.5245,2.5471,2.5546,2.5632,2.5694,2.5683,2.5655,2.5623,2.5566,2.548,2.5395,2.5207,2.4984,2.4728,2.4342,2.3839,2.324,2.2375,2.1249,1.9911,1.7974,1.5745,1.3737,1.4361,1.2282,0.8125,0.0,0.0,0.0,0.0,-1.3765,0.0,0.0,0.0,-1.279,0.0,-1.279,-1.279,-1.279,-1.3222,-1.3483,-1.3483,-1.4062,0.0,-1.4734,-1.4999,0.0,0.0,-1.5404,-1.5458,-1.581,0.0,0.0,0.0,0.0,0.0,0.0,0.0,0.0,0.0,-1.2077,0.0,-1.1111,-1.0368,-0.983,-0.9557,-0.8508,-0.7762,-0.7359,-0.7627,-0.7487,-0.7056,-0.7206,-0.7717,-0.8366,-0.8882,-0.9518,-1.0212,-1.0856,-1.1296,-1.1732,-1.2359,-1.272,-1.2948,-1.326,-1.3511,-1.3563,-1.3373,0.0,0.0,0.0,0.0,-1.327,0.0,0.0,0.0,0.0,0.0,0.0,0.0,0.0,0.0,0.0,0.0,0.0,0.0,0.0,0.0,0.0,1.8985,2.0413,2.1718,2.2604,0.0,0.0,0.0,2.5023,2.5379,2.5526,2.5634,2.5683,2.5615,2.5551,2.5471,2.5398,2.5292,2.5135,2.4873,2.455,2.4205,2.3702,2.3046,2.2209,2.1117,1.9728,1.8083,1.579,1.3167,1.0933,1.2832,0.7702,-0.0744,-1.5292,-1.5065,-1.4924,0.0,-1.4342,-1.3973,0.0,0.0,0.0,0.0,-1.373,-1.373,-1.3717,-1.4146,-1.4398,-1.4398,-1.4985,0.0,0.0,0.0,0.0,-1.6188,-1.6325,-1.6264,-1.5971,-1.5914,0.0,-1.5551,0.0,0.0,-1.484,0.0,0.0,0.0,0.0,0.0,-1.215,-1.1706,-1.0997,-1.012,-0.9329,-0.8879,0.0,0.0,-0.8717,-0.8766,-0.8528,-0.8753,-0.9262,-0.9907,-1.0541,-1.1226,-1.1802,-1.2351,-1.2895,-1.326,-1.3683,-1.4103,-1.4382,-1.4628,-1.4756,-1.4815,-1.4972,-1.507,0.0,0.0,0.0,0.0,0.0,0.0,0.0,0.0,0.0,0.0,0.0,0.0,0.0,0.0,0.0,0.0,0.0,0.0,1.3303,1.5583,1.7432,1.9257,2.0638,0.0,0.0,0.0,0.0,2.5082,2.5374,2.5531,2.5556,2.5429,2.5291,2.512,2.4905,2.4688,2.4437,2.4077,2.3649,2.3155,2.2526,2.1692,2.0653,1.9291,1.7581,1.5761,1.4858,1.0019,0.3499,0.388,0.0784,-0.4337,-1.5788,0.0,0.0,-1.5161,0.0,0.0,-1.474,0.0,0.0,-1.4643,-1.465,0.0,-1.4643,-1.5068,-1.5325,-1.5325,-1.5989,0.0,-1.6435,0.0,0.0,-1.684,-1.6818,-1.6764,-1.6645,-1.6606,0.0,-1.6263,0.0,0.0,-1.5833,0.0,0.0,0.0,0.0,-1.3814,0.0,-1.2472,-1.1603,-1.0691,-1.0172,0.0,0.0,-0.9707,-0.9837,-1.0142,-1.0028,-1.0034,-1.0281,-1.0919,-1.16,-1.2282,-1.2834,-1.3381,-1.3923,-1.4341,-1.4756,-1.5167,-1.5439,-1.5728,-1.6036,-1.6093,-1.6255,-1.6404,-1.6404,-1.6585,-1.6698,0.0,0.0,0.0,0.0,0.0,0.0,0.0,0.0,0.0,0.0,0.0,0.0,0.0,-0.3258,0.0,0.562,1.0131,1.3626,1.5772,0.0,0.0,0.0,0.0,0.0,2.4606,2.5082,2.5293,2.524,2.496,2.4641,2.4312,2.3977,2.3639,2.3268,2.2851,2.2287,2.163,2.077,1.9675,1.8412,1.6679,1.4689,1.2375,0.9441,0.4148,-0.1956,-0.3349,-0.5826,-0.8996,0.0,0.0,0.0,0.0,0.0,0.0,0.0,-1.5591,0.0,-1.556,0.0,-1.556,-1.556,-1.5997,-1.6237,-1.6183,0.0,-1.7321,-1.6938,-1.7225,-1.744,-1.7516,-1.7169,-1.718,-1.7555,-1.7223,0.0,0.0,0.0,0.0,0.0,0.0,0.0,0.0,0.0,0.0,0.0,-1.2916,-1.2078,0.0,-1.1132,-1.089,-1.071,-1.073,-1.0912,-1.1267,-1.16,-1.1483,-1.1296,-1.1919,-1.2589,-1.3252,-1.3906,-1.4392,-1.4824,-1.541,-1.5816,-1.6151,-1.6425,-1.6821,-1.7168,-1.7224,-1.739,-1.7611,-1.7611,-1.7831,-1.8061,-1.7941,-1.8038,-1.807,0.0,0.0,0.0,0.0,0.0,0.0,0.0,0.0,0.0,0.0,0.0,0.0,0.0,0.3657,0.9159,0.0,0.0,0.0,0.0,0.0,0.0,2.3858,2.4549,0.0,2.4664,0.0,2.3492,2.2905,2.2447,2.2004,2.1522,2.0986,2.0336,1.9495,1.8411,1.7045,1.5512,1.3484,1.1001,0.7872,0.1988,-0.2748,-0.6468,-0.9119,-1.1643,-1.3755,0.0,0.0,0.0,0.0,0.0,-1.6279,-1.6486,-1.6517,-1.6484,-1.6484,-1.6484,-1.6484,-1.6484,-1.6902,-1.7025,-1.6716,-1.7333,0.0,0.0,0.0,0.0,-1.7893,-1.781,-1.7835,-1.7919,-1.7842,-1.7803,0.0,0.0,0.0,0.0,0.0,0.0,0.0,0.0,0.0,-1.4189,-1.3282,0.0,-1.2629,-1.2044,-1.1784,-1.1732,-1.1926,-1.2112,-1.229,-1.2773,-1.2589,-1.2143,-1.2642,-1.3243,-1.3906,-1.4551,-1.5157,-1.5748,-1.6368,-1.6775,-1.7067,-1.7655,-1.782,-1.7984,-1.8278,-1.8494,-1.8709,-1.8709,-1.8934,-1.9146,-1.9093,-1.9186,-1.9279,-1.9279,0.0,0.0,0.0,0.0,0.0,0.0,0.0,0.0,0.0,0.0,0.0,0.0,0.0,0.0,0.0,0.0,0.0,0.0,0.0,0.0,0.0,2.3281,0.0,0.0,0.0,2.1224,2.0339,1.961,1.901,1.8519,1.7738,1.691,1.6109,1.4808,1.3354,1.1677,0.9583,0.5844,0.1103,-0.279,-0.7366,-1.1918,-1.2869,-1.4518,-1.6258,0.0,0.0,0.0,0.0,0.0,0.0,0.0,-1.731,0.0,-1.6814,-1.6743,-1.6743,-1.6743,-1.7136,-1.7294,-1.7107,-1.7702,-1.7995,-1.7734,-1.7925,-1.8037,-1.8182,-1.8212,0.0,-1.8414,-1.8539,-1.8539,-1.8539,0.0,0.0,0.0,0.0,0.0,0.0,0.0,-1.5295,0.0,0.0,0.0,-1.3512,-1.303,-1.2956,-1.3025,-1.3025,-1.3268,-1.3571,-1.3932,-1.3974,-1.3897,-1.3957,-1.4442,-1.5099,-1.5728,-1.6197,-1.6673,-1.7324,-1.7655,-1.7995,-1.8429,-1.8697,-1.891,-1.9174,-1.9384,-1.954,-1.9617,-1.9811,-2.0016,-2.0016,-2.0156,-2.0346,-2.0396,-2.0534,0.0,0.0,0.0,0.0,0.0,0.0,0.0,0.0,0.0,0.0,0.0,0.0,0.0,0.0,0.0,0.0,0.0,0.0,0.0,0.0,0.0,0.0,0.0,0.0,0.0,1.583,1.5143,1.4554,1.4097,1.4471,1.353,1.1554,1.0476,0.8943,0.6957,0.3556,-0.0156,-0.3948,-0.6957,-1.0466,-1.3961,-1.5139,-1.6699,-1.8242,0.0,-1.7373,0.0,0.0,-1.7376,0.0,-1.758,-1.7859,-1.7761,-1.7102,-1.7052,-1.7052,-1.7052,-1.7428,-1.7617,-1.7528,-1.8036,-1.8297,-1.8085,-1.8286,-1.8419,-1.8492,-1.8654,-1.8854,-1.9008,-1.9198,-1.9278,0.0,0.0,0.0,0.0,0.0,0.0,0.0,0.0,0.0,0.0,0.0,-1.4359,-1.43,-1.4103,-1.4112,-1.424,-1.4163,-1.4401,-1.4824,-1.4991,-1.5342,-1.569,-1.5545,-1.5786,-1.6208,-1.6821,-1.7224,-1.7567,-1.8159,-1.8525,-1.8845,-1.9186,-1.9552,-1.9862,-2.0003,-2.0156,-2.0308,-2.0422,-2.0623,-2.0809,-2.0858,-2.1042,-2.1286,-2.1465,-2.1609,0.0,0.0,0.0,0.0,0.0,0.0,0.0,0.0,0.0,0.0,0.0,0.0,0.0,0.0,0.0,0.0,0.0,0.0,0.0,0.0,0.0,1.3302,1.4028,0.0,1.101,0.0,0.9629,0.9121,0.8689,0.9739,0.8812,0.631,0.5397,0.3718,0.1296,-0.2715,-0.5822,-0.8219,-1.0674,-1.3032,-1.5243,-1.6942,-1.8507,-1.9797,0.0,0.0,0.0,0.0,0.0,0.0,0.0,-1.7959,-1.798,-1.7935,-1.7877,-1.7877,-1.7877,-1.8258,-1.8321,-1.7999,-1.8337,-1.8576,-1.8464,-1.8502,-1.8694,-1.9218,-1.9407,-1.9605,-1.9802,-1.9911,-1.977,0.0,0.0,0.0,0.0,0.0,0.0,0.0,0.0,0.0,0.0,-1.543,-1.5294,-1.5235,-1.5118,-1.505,-1.5108,-1.5323,-1.5565,-1.5806,-1.6083,-1.6425,-1.6888,-1.7324,-1.7101,-1.6821,-1.7435,-1.7984,-1.8471,-1.8963,-1.9384,-1.9747,-2.0016,-2.0271,-2.056,-2.0646,-2.0921,-2.1131,-2.1277,-2.141,-2.1554,-2.165,-2.1888,-2.217,-2.2328,-2.2603,-2.2754,0.0,0.0,0.0,0.0,0.0,0.0,0.0,0.0,0.0,0.0,0.0,0.0,0.0,0.0,0.0,0.0,0.0,0.0,0.1517,0.0,0.3526,0.3425,0.381,0.0,0.3429,0.2906,0.2546,0.2267,0.1777,0.1124,0.0359,-0.0775,-0.2904,-0.5696,-0.8017,-1.0059,-1.1903,-1.3949,-1.5721,-1.7317,-1.8811,-1.9921,-2.0766,0.0,0.0,0.0,0.0,0.0,0.0,0.0,-1.8674,-1.866,-1.8666,-1.8296,-1.8024,-1.8024,-1.8235,-1.8368,-1.8311,-1.8586,-1.8856,-1.9142,-1.9198,-1.9204,-1.9329,-1.9564,-1.9624,-1.9452,-1.9689,-1.9722,0.0,0.0,0.0,0.0,0.0,0.0,0.0,0.0,-1.6853,-1.656,-1.6332,-1.6228,-1.6228,-1.6171,-1.6171,-1.6161,-1.6379,-1.6549,-1.6729,-1.7112,-1.7501,-1.7831,-1.8417,-1.8255,-1.7918,-1.8513,-1.9004,-1.9371,-1.9888,-2.0194,-2.0459,-2.0822,-2.1068,-2.1264,-2.1444,-2.165,-2.1841,-2.1996,-2.2123,-2.2296,-2.2342,-2.2632,-2.2904,-2.3098,-2.329,-2.3523,0.0,0.0,0.0,0.0,0.0,0.0,0.0,0.0,0.0,0.0,0.0,0.0,0.0,0.0,0.0,0.0,0.0,0.0,-0.5344,0.0,-0.3769,-0.3064,-0.3625,-0.3947,-0.3983,-0.4193,-0.4356,-0.436,-0.4784,-0.6204,-0.8322,-0.7905,-0.8762,-1.0612,-1.218,-1.3638,-1.5014,-1.6595,-1.7939,-1.911,-2.0159,-2.099,-2.1639,-1.9274,0.0,-1.9274,0.0,-1.9274,-1.9274,-1.9274,-1.9274,-1.9341,-1.9341,-1.8829,-1.8398,-1.8327,-1.8472,-1.8664,-1.8787,-1.8874,-1.9141,-1.9587,-1.9523,-1.9423,-1.947,-1.9744,0.0,-1.9395,-1.9701,-1.9808,-1.9645,-1.9645,0.0,0.0,0.0,0.0,0.0,-1.7689,-1.7457,-1.7401,-1.719,-1.7134,-1.7145,-1.719,-1.719,-1.719,-1.7401,-1.7567,-1.7788,-1.817,-1.8483,-1.8804,-1.9384,-1.9423,-1.9307,-1.9579,-1.9901,-2.0245,-2.0709,-2.1006,-2.1251,-2.1554,-2.1793,-2.1969,-2.2217,-2.2356,-2.2495,-2.2678,-2.2799,-2.292,-2.3068,-2.3334,-2.361,-2.3824,-2.3952,-2.412,-2.441,0.0,0.0,0.0,0.0,0.0,0.0,-2.5572,-2.5556,-2.5582,0.0,0.0,0.0,0.0,0.0,0.0,0.0,0.0,0.0,0.0,0.0,0.0,-1.1108,-1.1166,-1.0908,-1.0854,-1.0765,-1.0651,-1.0831,-1.2232,-1.4507,-1.3661,-1.3773,-1.4681,-1.5782,-1.6784,-1.7733,-1.8877,-1.9813,-2.0557,-2.124,-2.1832,-2.2281,-1.9605,-1.9605,-1.9605,-1.9605,-1.9605,-1.9605,-1.9605,-1.9736,-1.9868,-1.9868,-1.9586,-1.9286,-1.909,-1.9208,-1.9341,-1.9539,-1.9319,-1.9293,-1.9794,-1.9387,-1.9239,0.0,0.0,-1.9971,-1.996,-2.0332,-2.0253,-1.9701,0.0,0.0,-1.9011,0.0,-1.881,-1.8744,-1.8452,-1.8278,-1.8278,-1.8007,-1.7909,-1.7897,-1.805,-1.8093,-1.8093,-1.8441,-1.8774,-1.8987,-1.9133,-1.9436,-1.985,-2.0271,-2.066,-2.0894,-2.051,-2.066,-2.1042,-2.1313,-2.1746,-2.217,-2.2184,-2.2434,-2.2694,-2.2844,-2.2979,-2.3113,-2.3319,-2.3406,-2.3508,-2.3882,-2.4051,-2.4162,-2.4457,-2.4564,-2.4655,-2.4879,0.0,0.0,0.0,0.0,0.0,0.0,-2.6208,-2.6349,-2.6471,0.0,0.0,0.0,0.0,0.0,0.0,0.0,0.0,-2.3038,-2.2519,0.0,-2.1029,-1.8933,-1.7629,-1.709,-1.6678,-1.6474,-1.642,-1.6388,-1.6533,-1.6797,-1.7306,-1.7734,-1.8106,-1.892,-1.9521,-2.0011,-2.0767,-2.1285,-2.1622,-2.2102,-2.2419,-2.2605,-2.0268,-2.007,-1.9786,-1.9786,-1.95,-1.9258,-1.9258,-1.932,-1.9393,-1.9538,-1.9476,-1.9421,-1.9443,-1.9095,-1.897,0.0,-1.9188,-1.9331,0.0,-1.9818,-1.9692,-1.9684,-1.9965,-1.9963,-1.9601,-1.9858,-1.9933,-1.98,0.0,0.0,0.0,-1.95,-1.946,-1.9356,-1.9239,-1.9146,-1.904,-1.8987,-1.8934,-1.8934,-1.8975,-1.9028,-1.9121,-1.9331,-1.9592,-1.9837,-2.0042,-2.0396,-2.0845,-2.1202,-2.1541,-2.1827,-2.2035,-2.1955,-2.1874,-2.2296,-2.2526,-2.2709,-2.2979,-2.3143,-2.3334,-2.348,-2.3653,-2.3809,-2.3852,-2.4036,-2.4219,-2.4492,-2.4599,-2.4719,-2.5005,-2.5123,-2.5262,-2.5513,-2.5659,0.0,0.0,0.0,0.0,0.0,-2.6759,-2.6892,0.0,-2.7085,0.0,0.0,0.0,0.0,0.0,0.0,0.0,0.0,-2.5323,0.0,-2.4276,-2.2593,-2.1459,-2.0874,-2.0562,-2.027,-1.9979,-1.983,-1.9815,-1.9893,-2.0051,-2.0258,-2.0527,-2.0904,-2.1229,-2.1562,-2.2001,-2.23,-2.2468,-2.2747,-2.291,-2.302,-2.024,-2.0048,-1.9772,-1.9772,-1.9501,-1.9287,-1.9287,-1.9335,-1.9406,-1.9595,-1.9493,-1.9483,-1.9645,-1.9126,0.0,-1.9408,-1.9283,-1.9402,-2.0022,-1.9901,-1.9749,-1.9726,-2.0019,-1.9977,-1.9733,0.0,0.0,-2.0105,-2.0105,-2.0105,-2.0105,-2.0105,-2.0055,-1.9952,-1.9914,-1.9862,-1.9772,-1.972,-1.9668,-1.972,-1.9772,-1.9862,-2.0016,-2.0105,-2.0346,-2.0696,-2.0957,-2.1299,-2.1623,-2.2063,-2.2388,-2.2663,-2.3113,-2.3113,-2.3024,-2.3113,-2.3246,-2.3421,-2.3681,-2.3824,-2.3994,-2.412,-2.4287,-2.4369,-2.4436,-2.463,-2.4846,-2.4974,-2.5114,-2.5269,-2.547,-2.5584,-2.5717,-2.6046,-2.6082,-2.6225,-2.6572,0.0,0.0,0.0,0.0,0.0,0.0,-2.7569,0.0,0.0,0.0,0.0,0.0,0.0,0.0,-2.8058,-2.7063,0.0,-2.6046,-2.4762,-2.3916,-2.3512,-2.3217,-2.2883,-2.2516,-2.2347,-2.2248,-2.2202,-2.2177,-2.2211,-2.2315,-2.2444,-2.2574,-2.2677,-2.2954,-2.3045,-2.3069,-2.3212,-2.3319,-2.336,-1.9654,-1.962,0.0,0.0,-1.9574,0.0,-1.9551,-1.9656,-1.9808,-1.9912,-1.9672,-1.9531,-1.9684,-1.9317,-1.9318,-1.9946,0.0,0.0,0.0,-1.9756,-1.9565,-1.985,-1.9978,-2.0131,-2.0233,-2.0372,-2.0523,-2.066,-2.066,-2.066,-2.066,-2.066,-2.066,-2.066,-2.0523,-2.0472,-2.0472,-2.0334,-2.0271,-2.0283,-2.0422,-2.056,-2.0709,-2.0845,-2.1153,-2.152,-2.1793,-2.203,-2.2356,-2.2799,-2.3098,-2.3348,-2.3724,-2.4094,-2.4261,-2.3809,-2.3894,-2.4188,-2.4302,-2.4441,-2.4605,-2.4775,-2.4855,-2.4895,-2.5107,-2.524,-2.5355,-2.5416,-2.5589,-2.5775,-2.5917,-2.599,-2.6118,-2.6383,-2.6453,-2.6572,-2.6975,0.0,0.0,0.0,0.0,0.0,0.0,-2.7893,-2.8071,0.0,0.0,0.0,0.0,0.0,-2.8947,-2.86,-2.7996,-2.736,-2.6696,-2.5772,-2.5215,-2.5023,-2.4713,-2.4439,-2.4166,-2.4035,-2.3915,-2.3783,-2.3721,-2.3635,-2.3581,-2.3581,-2.3534,-2.3482,-2.3588,-2.3588,-2.3544,-2.3598,-2.3616,-2.3594,0.0,0.0,-1.9354,-1.9354,-1.9151,-1.9003,-1.9003,-1.91,-1.9251,-1.939,-1.9412,-1.9487,-1.9592,-1.9626,-1.9703,-1.9977,-1.9625,-1.9552,-2.0024,-2.0002,-2.0067,-2.0271,-2.0459,-2.061,-2.066,-2.0772,-2.0934,-2.1082,-2.1166,-2.1215,-2.1215,-2.1215,-2.1215,-2.1215,-2.1166,-2.1166,-2.1166,-2.1118,-2.1131,-2.1118,-2.1264,-2.141,-2.1554,-2.1793,-2.203,-2.2324,-2.2572,-2.2844,-2.3143,-2.348,-2.3782,-2.4078,-2.4328,-2.4614,-2.4815,-2.4451,-2.4517,-2.4744,-2.4855,-2.5068,-2.5185,-2.5262,-2.5355,-2.547,-2.5659,-2.5749,-2.5807,-2.599,-2.6082,-2.6173,-2.626,-2.6382,-2.6537,-2.6792,-2.6859,-2.6957,-2.7247,-2.7341,0.0,0.0,-2.7672,-2.7836,-2.8053,-2.8126,-2.8264,0.0,0.0,0.0,0.0,-2.9185,-2.9304,-2.941,-2.8883,-2.8268,-2.7595,-2.6813,-2.6074,-2.5379,-2.5246,-2.5124,-2.5014,-2.4878,-2.4772,-2.4676,-2.4501,-2.4396,-2.4335,-2.4229,-2.4155,-2.4099,-2.4059,-2.4018,-2.3937,-2.3915,-2.3834,-2.375,-1.9638,-1.9459,-1.9269,-1.9311,-1.9191,-1.9105,-1.9158,-1.9251,-1.9356,-1.9565,-1.9617,-1.9733,-1.9965,-2.0016,-2.0169,-2.0372,-1.9978,-1.9926,-2.0233,-2.0422,-2.0573,-2.0772,-2.0921,-2.1068,-2.1153,-2.1215,-2.1326,-2.1471,-2.1568,-2.1568,-2.1568,-2.1568,-2.1616,-2.1664,-2.1664,-2.1712,-2.1746,-2.1746,-2.1746,-2.1793,-2.1902,-2.2044,-2.2184,-2.2449,-2.2678,-2.2963,-2.3216,-2.3508,-2.3767,-2.4078,-2.4385,-2.471,-2.4871,-2.5185,-2.5416,-2.5262,-2.5246,-2.5307,-2.5438,-2.5567,-2.568,-2.5754,-2.5807,-2.5917,-2.6082,-2.6118,-2.6189,-2.64,-2.6521,-2.6589,-2.664,-2.6759,-2.6892,-2.712,-2.7233,-2.731,-2.7509,-2.76,0.0,-2.7864,-2.795,-2.8035,-2.8237,-2.8345,-2.8432,-2.8587,0.0,0.0,-2.9089,-2.9267,-2.9455,-2.9697,-2.9118,-2.8677,-2.8405,-2.7343,-2.638,-2.5547,-2.5533,-2.5496,-2.5434,-2.533,-2.526,-2.5175,-2.5003,-2.4872,-2.4771,-2.467,-2.4575,-2.4493,-2.4409,-2.4321,-2.4229,-2.4172,-2.4075,-2.3976,-1.9223,-1.9223,-1.9275,-1.942,-1.9473,-1.9525,-1.9668,-1.9708,-1.9811,-2.0029,-2.008,-2.0233,-2.0422,-2.0472,-2.056,-2.0858,-2.0573,-2.0472,-2.0673,-2.0809,-2.1006,-2.1229,-2.1277,-2.1423,-2.1664,-2.1712,-2.1793,-2.1902,-2.1902,-2.1949,-2.1949,-2.1949,-2.1996,-2.2091,-2.2091,-2.217,-2.2278,-2.2278,-2.2278,-2.2324,-2.2463,-2.2601,-2.2737,-2.2994,-2.3216,-2.3451,-2.3797,-2.4036,-2.4271,-2.4589,-2.495,-2.5262,-2.5355,-2.5659,-2.599,-2.599,-2.5937,-2.5885,-2.5954,-2.6046,-2.6118,-2.6241,-2.6277,-2.6295,-2.6469,-2.6487,-2.6556,-2.6725,-2.6859,-2.6975,-2.7072,-2.712,-2.723,-2.7434,-2.7526,-2.76,-2.773,0.0,-2.7922,-2.8126,-2.8209,-2.8291,-2.8353,-2.851,-2.8637,-2.8662,-2.8858,-2.904,0.0,-2.931,-2.9493,-2.9681,-2.916,-2.8908,-2.9006,-2.7528,-2.6442,-2.5807,-2.5737,-2.5662,-2.5603,-2.5551,-2.5477,-2.5414,-2.5293,-2.5163,-2.5043,-2.4961,-2.487,-2.4738,-2.466,-2.4545,-2.4407,-2.4356,-2.4284,-2.4209,-1.9328,-1.9368,-1.942,-1.9565,-1.9656,-1.9759,-1.9939,-2.0118,-2.0271,-2.0321,-2.056,-2.0709,-2.0759,-2.0822,-2.0983,-2.1131,-2.1166,-2.1166,-2.1131,-2.1215,-2.1361,-2.152,-2.1664,-2.1793,-2.1949,-2.2184,-2.2278,-2.2324,-2.2417,-2.2463,-2.2463,-2.2463,-2.2509,-2.2509,-2.2509,-2.254,-2.2603,-2.2603,-2.2709,-2.2799,-2.3038,-2.3187,-2.3231,-2.3668,-2.3855,-2.394,-2.4343,-2.4614,-2.4839,-2.5123,-2.547,-2.577,-2.5824,-2.6046,-2.6314,-2.6314,-2.6504,-2.6657,-2.64,-2.6453,-2.659,-2.6624,-2.6624,-2.6674,-2.6859,-2.6909,-2.6957,-2.7085,-2.7149,-2.7198,-2.7404,-2.7434,-2.7509,-2.7701,-2.776,-2.7836,-2.7996,0.0,-2.8182,-2.8246,-2.838,-2.8484,-2.8536,-2.8619,-2.8743,-2.8923,-2.897,-2.9089,-2.927,-2.9412,-2.9551,-2.9699,-2.9725,-2.9508,-2.9094,-2.7505,-2.6702,-2.669,-2.6019,-2.5696,-2.5684,-2.5627,-2.5582,-2.5571,-2.5425,-2.533,-2.5243,-2.5115,-2.5019,-2.494,-2.4827,-2.4689,-2.4559,-2.4476,-2.4428,-2.4358,-1.9565,-1.9604,-1.9656,-1.9875,-2.0016,-2.0169,-2.0321,-2.0472,-2.066,-2.0736,-2.0822,-2.097,-2.1118,-2.1166,-2.1277,-2.152,-2.1568,-2.1616,-2.1616,-2.1616,-2.1712,-2.1902,-2.1996,-2.2137,-2.2324,-2.2417,-2.2509,-2.2572,-2.2632,-2.2678,-2.2768,-2.2768,-2.2814,-2.2873,-2.2873,-2.2949,-2.3038,-2.3083,-2.3172,-2.3216,-2.3494,-2.3625,-2.3711,-2.4051,-2.4219,-2.4385,-2.4751,-2.5013,-2.5208,-2.5508,-2.5844,-2.6118,-2.6154,-2.6435,-2.6725,-2.6725,-2.6825,-2.6942,-2.6791,-2.6858,-2.6956,-2.6956,-2.6956,-2.7021,-2.7184,-2.7247,-2.731,-2.7386,-2.743,-2.7522,-2.7659,-2.7719,-2.7824,-2.794,-2.8035,0.0,0.0,-2.83,-2.838,-2.8458,-2.8562,-2.8644,-2.8761,-2.8834,-2.8929,-2.9108,-2.9138,-2.9228,-2.9394,-2.9531,-2.9664,-2.9806,-2.9972,-2.9732,-2.9041,-2.8415,-2.7687,-2.6843,-2.6517,-2.6125,-2.5697,-2.568,-2.5634,-2.5598,-2.5529,-2.5456,-2.5339,-2.5244,-2.5168,-2.5094,-2.4966,-2.4837,-2.4749,-2.4642,-2.4547,-2.4464,-1.9811,-1.9862,-1.9965,-2.0271,-2.0372,-2.051,-2.0673,-2.0809,-2.0957,-2.1082,-2.1131,-2.1229,-2.1471,-2.1471,-2.1616,-2.1841,-2.1841,-2.1949,-2.2091,-2.1996,-2.2044,-2.2231,-2.2338,-2.2431,-2.2646,-2.2692,-2.2783,-2.2844,-2.2844,-2.2889,-2.2979,-2.2979,-2.3083,-2.3172,-2.3172,-2.3275,-2.3407,-2.3538,-2.3596,-2.3668,-2.3839,-2.4009,-2.4135,-2.4385,-2.4589,-2.4791,-2.5107,-2.5339,-2.5605,-2.5881,-2.6154,-2.64,-2.6504,-2.6775,-2.7072,-2.7105,-2.7169,-2.7184,-2.7198,-2.7276,-2.7307,-2.7307,-2.7307,-2.7338,-2.7478,-2.7539,-2.7617,-2.7707,-2.7748,-2.7818,-2.7904,-2.8007,-2.8109,-2.8164,0.0,0.0,0.0,-2.851,-2.8594,-2.8662,-2.8743,-2.8839,-2.8975,-2.9021,-2.913,-2.9243,-2.9312,-2.9414,-2.9551,-2.9664,-2.9809,-2.9978,-3.0113,-2.9928,-2.9317,-2.9313,-2.8659,-2.7401,-2.7274,-2.6773,-2.5998,-2.5996,-2.5865,-2.5619,-2.5615,-2.5525,-2.5422,-2.535,-2.5283,-2.5187,-2.5101,-2.4999,-2.4917,-2.4768,-2.4642,-2.4528,-1.9978,-2.008,-2.0283,-2.051,-2.056,-2.0673,-2.0934,-2.1082,-2.1229,-2.1375,-2.1471,-2.1616,-2.1746,-2.1746,-2.1841,-2.1996,-2.1996,-2.2091,-2.237,-2.237,-2.237,-2.237,-2.2644,-2.2766,-2.2889,-2.3023,-2.3112,-2.3275,-2.3275,-2.3275,-2.3275,-2.3275,-2.3319,-2.3466,-2.3466,-2.3581,-2.3739,-2.3782,-2.3882,-2.4078,-2.4219,-2.4385,-2.4589,-2.4846,-2.5084,-2.5294,-2.5502,-2.5733,-2.5974,-2.6189,-2.6469,-2.6691,-2.6909,-2.7055,-2.723,-2.7404,-2.76,-2.7701,-2.7617,-2.763,-2.7654,-2.7654,-2.7654,-2.7672,-2.776,-2.776,-2.7818,-2.8025,-2.8071,-2.8109,-2.8246,-2.8327,-2.838,-2.8458,0.0,0.0,-2.8644,-2.8737,-2.881,-2.8881,-2.8998,-2.9089,-2.9156,-2.924,-2.9304,-2.9372,-2.9453,-2.9532,-2.9681,-2.9806,-2.9978,-3.0157,-3.0194,-3.0235,-3.029,-2.9641,-2.9259,-2.9195,-2.8457,-2.7679,-2.6905,-2.6893,-2.6457,-2.5687,-2.5628,-2.5554,-2.5485,-2.5421,-2.5322,-2.5201,-2.5184,-2.5107,-2.4977,-2.4842,-2.4753,-2.4676,-2.0246,-2.0385,-2.0536,-2.0762,-2.0885,-2.1019,-2.1229,-2.1375,-2.152,-2.1616,-2.1712,-2.1793,-2.1902,-2.1949,-2.1996,-2.2137,-2.2184,-2.2278,-2.237,-2.2583,-2.2675,-2.2723,-2.2888,-2.3037,-2.3127,-2.3187,-2.329,-2.3422,-2.348,-2.3523,-2.3625,-2.3711,-2.3769,-2.3812,-2.3812,-2.3855,-2.394,-2.4051,-2.4135,-2.4261,-2.4523,-2.4726,-2.4886,-2.5084,-2.5294,-2.5524,-2.5749,-2.599,-2.6225,-2.6469,-2.6725,-2.6989,-2.7184,-2.7355,-2.7552,-2.7795,-2.7968,-2.8053,-2.8053,-2.7979,-2.7968,-2.8007,-2.7989,-2.8035,-2.8035,-2.8091,-2.8146,-2.8246,-2.8327,-2.838,-2.8484,-2.8587,-2.8662,-2.8687,0.0,-2.8858,-2.8881,-2.8975,-2.9067,-2.9089,-2.916,-2.9267,-2.9372,-2.9411,-2.9472,-2.9589,-2.9645,-2.9736,-2.9822,-2.9988,-3.0142,-3.026,-3.0292,-3.0371,-3.0469,-3.0231,-2.9865,-2.9402,-2.9124,-2.8575,-2.78,-2.781,-2.7338,-2.649,-2.6443,-2.6092,-2.5557,-2.548,-2.5406,-2.5322,-2.5228,-2.5137,-2.5038,-2.4959,-2.4846,-2.4742,-2.0498,-2.0636,-2.0785,-2.0974,-2.1144,-2.1326,-2.1423,-2.1568,-2.1712,-2.1841,-2.1841,-2.1902,-2.2044,-2.2044,-2.2137,-2.2231,-2.237,-2.2431,-2.2523,-2.2781,-2.2902,-2.2949,-2.3112,-2.3246,-2.3363,-2.3407,-2.3451,-2.3581,-2.3653,-2.3782,-2.3839,-2.3982,-2.4024,-2.4082,-2.4067,-2.4109,-2.4151,-2.4317,-2.4426,-2.4549,-2.4766,-2.4966,-2.5217,-2.5333,-2.5562,-2.5803,-2.6026,-2.6225,-2.6469,-2.6725,-2.6989,-2.723,-2.7417,-2.7659,-2.7893,-2.8109,-2.8237,-2.8318,-2.838,-2.8353,-2.83,-2.8282,-2.8282,-2.8282,-2.8309,-2.8353,-2.8432,-2.851,-2.8562,-2.8637,-2.8712,-2.8834,-2.8929,-2.8929,-2.9021,-2.9093,-2.9093,-2.9222,-2.9307,-2.9307,-2.9372,-2.9454,-2.9589,-2.9589,-2.9645,-2.9753,-2.9841,-2.9924,-3.0034,-3.0185,-3.0292,-3.0371,-3.0428,-3.0481,-3.0521,-3.0576,-3.0323,-2.981,-2.9888,-2.9492,-2.8714,-2.8708,-2.8238,-2.7404,-2.7347,-2.6958,-2.6353,-2.6025,-2.5846,-2.5736,-2.5348,-2.5164,-2.5113,-2.5031,-2.4936,-2.485,-2.061,-2.0835,-2.1033,-2.118,-2.1326,-2.1471,-2.1568,-2.1698,-2.1841,-2.1996,-2.1996,-2.2044,-2.2184,-2.2184,-2.2278,-2.237,-2.2417,-2.2523,-2.2795,-2.3007,-2.3082,-2.3082,-2.3246,-2.3363,-2.3509,-2.3566,-2.3653,-2.3797,-2.394,-2.3982,-2.3982,-2.3982,-2.4082,-2.4223,-2.4276,-2.4359,-2.4498,-2.4549,-2.4751,-2.5005,-2.5005,-2.524,-2.5616,-2.5616,-2.584,-2.6203,-2.6277,-2.6504,-2.6758,-2.7021,-2.723,-2.7434,-2.7642,-2.7922,-2.8209,-2.8273,-2.8406,-2.8536,-2.8587,-2.8662,-2.8669,-2.8543,-2.8492,-2.8518,-2.8587,-2.8612,-2.8637,-2.8761,-2.881,-2.8834,-2.8994,-2.9112,-2.92,-2.92,-2.9249,-2.9293,-2.9293,-2.9414,-2.9492,-2.9492,-2.9626,-2.9719,-2.979,-2.9808,-2.9823,-2.9907,-3.0022,-3.0161,-3.0279,-3.0355,-3.0433,-3.0499,-3.0569,-3.0595,-3.0603,-3.0603,-3.0632,-3.0703,-3.0769,-3.0384,-2.9608,-2.9606,-2.9135,-2.8314,-2.8236,-2.8159,-2.8042,-2.7098,-2.6676,-2.6526,-2.557,-2.5217,-2.5199,-2.507,-2.5018,-2.4983,-2.0835,-2.1033,-2.118,-2.1326,-2.1471,-2.1616,-2.1841,-2.1902,-2.1996,-2.2137,-2.2137,-2.2184,-2.2184,-2.2278,-2.237,-2.2417,-2.2583,-2.2781,-2.3007,-2.326,-2.3422,-2.3436,-2.3451,-2.3538,-2.3711,-2.3739,-2.3797,-2.394,-2.4082,-2.4124,-2.4124,-2.4193,-2.4276,-2.4416,-2.4416,-2.4482,-2.4589,-2.4806,-2.4926,-2.5005,-2.5294,-2.5486,-2.5616,-2.5914,-2.6115,-2.6312,-2.6504,-2.6758,-2.7021,-2.723,-2.7448,-2.7642,-2.7968,-2.8219,-2.8432,-2.8484,-2.8587,-2.8687,-2.8785,-2.8834,-2.8834,-2.8737,-2.8761,-2.8785,-2.881,-2.8834,-2.8905,-2.9044,-2.9089,-2.9112,-2.9185,-2.933,-2.9412,-2.9412,-2.9511,-2.957,-2.957,-2.9664,-2.9737,-2.9773,-2.9825,-2.9893,-2.9991,-3.0007,-3.0038,-3.0113,-3.0185,-3.0292,-3.0425,-3.0466,-3.049,-3.0568,-3.0593,-3.0626,-3.0664,-3.0664,-3.0698,-3.0769,-3.0799,-3.0677,-3.044,-3.0449,-2.997,-2.9129,-2.9128,-2.8738,-2.8081,-2.7745,-2.7563,-2.748,-2.7149,-2.6995,-2.6943,-2.686,-2.6797,-2.674,-2.1033,-2.1229,-2.1375,-2.1471,-2.1616,-2.1793,-2.1996,-2.2044,-2.2137,-2.2184,-2.2184,-2.2184,-2.2184,-2.2324,-2.2417,-2.2463,-2.2766,-2.3007,-2.326,-2.3422,-2.3538,-2.3653,-2.3625,-2.3711,-2.3882,-2.394,-2.3982,-2.4082,-2.4208,-2.425,-2.425,-2.4317,-2.44,-2.4498,-2.458,-2.4645,-2.4766,-2.4966,-2.5123,-2.5256,-2.5486,-2.5691,-2.5877,-2.6151,-2.6347,-2.6487,-2.6758,-2.6989,-2.7181,-2.7448,-2.7689,-2.795,-2.8246,-2.8432,-2.8562,-2.8662,-2.8737,-2.8834,-2.8905,-2.8998,-2.9044,-2.9017,-2.8998,-2.9021,-2.9044,-2.9089,-2.916,-2.9289,-2.9328,-2.9351,-2.9435,-2.9551,-2.9626,-2.9645,-2.9737,-2.979,-2.9805,-2.9874,-2.9926,-2.9975,-3.0,-3.006,-3.0176,-3.0185,-3.0226,-3.0305,-3.0355,-3.0425,-3.053,-3.054,-3.0577,-3.0637,-3.0637,-3.0665,-3.073,-3.073,-3.0767,-3.0799,-3.0793,-3.081,-3.0839,-3.0816,-3.0501,-3.0018,-3.0015,-2.9685,-2.9096,-2.8683,-2.847,-2.8377,-2.7997,-2.7796,-2.7726,-2.7656,-2.7594,-2.7523,-2.1229,-2.1423,-2.1616,-2.1616,-2.1841,-2.1996,-2.2044,-2.2137,-2.2184,-2.2184,-2.2184,-2.2184,-2.2231,-2.2324,-2.2463,-2.2615,-2.2933,-2.3216,-2.3466,-2.3509,-2.3625,-2.3797,-2.3839,-2.3882,-2.4024,-2.4124,-2.4208,-2.4208,-2.4276,-2.4317,-2.4317,-2.4441,-2.4498,-2.4539,-2.4742,-2.4902,-2.5005,-2.5107,-2.5301,-2.5616,-2.5654,-2.5877,-2.6239,-2.6312,-2.6487,-2.6758,-2.7021,-2.7166,-2.7307,-2.7642,-2.795,-2.8291,-2.851,-2.8612,-2.8637,-2.8785,-2.8923,-2.9017,-2.9021,-2.9152,-2.9304,-2.9323,-2.9283,-2.9265,-2.9304,-2.933,-2.9375,-2.9512,-2.9531,-2.957,-2.9699,-2.9789,-2.9842,-2.9912,-2.9924,-2.9937,-3.0022,-3.0068,-3.0113,-3.0123,-3.0174,-3.0241,-3.0305,-3.0323,-3.0364,-3.049,-3.0519,-3.053,-3.0604,-3.0602,-3.0634,-3.0717,-3.071,-3.0739,-3.0799,-3.0804,-3.0804,-3.0804,-3.0794,-3.0825,-3.0898,-3.0838,-3.0806,-3.0799,-3.0789,-3.0769,-3.0642,-2.9768,-2.9379,-2.9245,-2.8442,-2.8088,-2.803,-2.795,-2.7872,-2.7809,-2.1471,-2.1568,-2.1664,-2.1888,-2.1949,-2.2044,-2.2137,-2.2184,-2.2184,-2.2184,-2.2184,-2.2231,-2.237,-2.2463,-2.2615,-2.2735,-2.3068,-2.3334,-2.3509,-2.3668,-2.3797,-2.394,-2.4082,-2.4151,-2.4219,-2.4208,-2.4208,-2.4276,-2.4416,-2.4457,-2.4457,-2.4523,-2.4645,-2.4742,-2.4902,-2.5005,-2.5107,-2.5355,-2.5546,-2.5717,-2.597,-2.6187,-2.6365,-2.6556,-2.6791,-2.7021,-2.7149,-2.7369,-2.7642,-2.7996,-2.8273,-2.851,-2.8587,-2.8712,-2.8858,-2.8929,-2.8998,-2.9089,-2.9206,-2.927,-2.9351,-2.951,-2.9551,-2.957,-2.9472,-2.9532,-2.9645,-2.9718,-2.9773,-2.9842,-2.9924,-2.9991,-3.0038,-3.0049,-3.0104,-3.0161,-3.0226,-3.0247,-3.0286,-3.033,-3.0348,-3.0375,-3.0447,-3.0451,-3.0482,-3.0576,-3.0576,-3.061,-3.0671,-3.0678,-3.0717,-3.0773,-3.0784,-3.0794,-3.0799,-3.0806,-3.0801,-3.0801,-3.0804,-3.0818,-3.0818,-3.081,-3.0798,-3.0799,-3.0739,-3.0717,-3.068,-3.0416,-3.0278,-3.019,-2.9946,-2.9821,-2.9743,-2.9677,-2.9627,-2.9425,-2.1568,-2.1712,-2.1841,-2.1996,-2.2044,-2.2137,-2.2184,-2.2184,-2.2184,-2.2184,-2.2184,-2.2231,-2.237,-2.2509,-2.2706,-2.2992,-2.3246,-2.3451,-2.3625,-2.3754,-2.3882,-2.4082,-2.4166,-2.425,-2.44,-2.4374,-2.4374,-2.44,-2.4457,-2.4539,-2.4564,-2.4726,-2.4846,-2.4886,-2.5084,-2.524,-2.5355,-2.5637,-2.5824,-2.5954,-2.6206,-2.64,-2.6556,-2.6791,-2.6989,-2.7181,-2.7369,-2.7642,-2.795,-2.8164,-2.8406,-2.8612,-2.8662,-2.881,-2.8952,-2.904,-2.9134,-2.9225,-2.9312,-2.9433,-2.9512,-2.9664,-2.9771,-2.9805,-2.9682,-2.9754,-2.9874,-2.9926,-2.9972,-3.0015,-3.0123,-3.0166,-3.0207,-3.0234,-3.0267,-3.0316,-3.0379,-3.0394,-3.0398,-3.0449,-3.0491,-3.053,-3.0586,-3.0593,-3.0599,-3.0649,-3.0656,-3.0685,-3.0736,-3.0753,-3.0764,-3.0794,-3.0793,-3.0806,-3.0802,-3.0838,-3.085,-3.085,-3.0857,-3.0839,-3.0808,-3.0801,-3.0798,-3.0794,-3.0734,-3.0685,-3.0645,-3.061,-3.0549,-3.0499,-3.0469,-3.039,-3.0312,-3.0253,-3.019,-3.003,-2.1616,-2.1841,-2.1996,-2.2044,-2.2137,-2.2184,-2.2184,-2.2184,-2.2184,-2.2184,-2.2184,-2.2278,-2.2417,-2.2555,-2.2828,-2.3275,-2.3422,-2.3596,-2.3797,-2.3839,-2.394,-2.4181,-2.4223,-2.4333,-2.4498,-2.4498,-2.4539,-2.4539,-2.4539,-2.4564,-2.467,-2.4926,-2.5045,-2.5084,-2.5301,-2.5524,-2.5637,-2.586,-2.6043,-2.6239,-2.64,-2.6556,-2.6775,-2.7021,-2.7181,-2.7307,-2.7612,-2.7922,-2.8237,-2.8327,-2.8484,-2.8662,-2.8785,-2.8923,-2.904,-2.9112,-2.9206,-2.9353,-2.9433,-2.9589,-2.9738,-2.9808,-2.9943,-2.9988,-2.9926,-2.9972,-3.0068,-3.0132,-3.0147,-3.0196,-3.0318,-3.0336,-3.0352,-3.0414,-3.0428,-3.0441,-3.051,-3.053,-3.054,-3.0519,-3.0582,-3.0642,-3.0704,-3.0711,-3.0717,-3.071,-3.0722,-3.0734,-3.0794,-3.0793,-3.0798,-3.0808,-3.0801,-3.0813,-3.081,-3.0857,-3.0879,-3.0878,-3.0878,-3.085,-3.0804,-3.079,-3.0789,-3.0778,-3.0722,-3.0658,-3.0602,-3.0602,-3.0549,-3.0499,-3.0499,-3.0433,-3.0312,-3.0266,-3.0204,-3.0087,-2.1746,-2.1902,-2.2044,-2.2137,-2.2184,-2.2184,-2.2184,-2.2184,-2.2184,-2.2184,-2.2184,-2.2324,-2.2555,-2.2843,-2.3112,-2.3275,-2.3422,-2.3596,-2.3797,-2.3925,-2.4024,-2.4181,-2.439,-2.4457,-2.4498,-2.4564,-2.4605,-2.4605,-2.4686,-2.4822,-2.4966,-2.5029,-2.5185,-2.5339,-2.5524,-2.5675,-2.586,-2.6059,-2.6258,-2.64,-2.659,-2.6775,-2.6975,-2.7135,-2.7355,-2.7539,-2.7672,-2.7933,-2.8327,-2.851,-2.8662,-2.8785,-2.8947,-2.904,-2.9112,-2.9228,-2.9332,-2.9433,-2.9607,-2.9719,-2.9825,-2.9924,-3.0034,-3.0109,-3.0213,-3.024,-3.0253,-3.0266,-3.0323,-3.0375,-3.0458,-3.0479,-3.0481,-3.0472,-3.0539,-3.0585,-3.0585,-3.0645,-3.0676,-3.0676,-3.0691,-3.0703,-3.0789,-3.0789,-3.0794,-3.0789,-3.0784,-3.0784,-3.0802,-3.079,-3.0794,-3.0794,-3.0806,-3.0837,-3.0898,-3.0839,-3.0814,-3.0816,-3.0807,-3.0817,-3.081,-3.0793,-3.0769,-3.0703,-3.0691,-3.0656,-3.0602,-3.0613,-3.0559,-3.0499,-3.0499,-3.0433,-3.0299,-3.0176,-3.0117,-3.0087,-2.1793,-2.1996,-2.2137,-2.2184,-2.2184,-2.2184,-2.2184,-2.2184,-2.2184,-2.2184,-2.2278,-2.237,-2.2555,-2.2978,-2.3246,-2.3275,-2.3538,-2.3754,-2.3882,-2.4024,-2.4166,-2.4333,-2.4457,-2.4539,-2.4661,-2.4766,-2.4831,-2.4871,-2.4886,-2.4966,-2.5068,-2.5278,-2.5448,-2.5524,-2.5803,-2.5987,-2.6079,-2.631,-2.6486,-2.659,-2.6792,-2.6957,-2.7135,-2.7293,-2.7478,-2.7689,-2.7893,-2.8174,-2.8484,-2.8562,-2.8737,-2.8905,-2.8994,-2.9112,-2.9228,-2.9332,-2.9453,-2.9589,-2.9774,-2.9859,-2.994,-3.0075,-3.0161,-3.0241,-3.0379,-3.0444,-3.0466,-3.0433,-3.0479,-3.0521,-3.054,-3.0586,-3.0613,-3.0618,-3.063,-3.0658,-3.0658,-3.0704,-3.0767,-3.0767,-3.0759,-3.0774,-3.0802,-3.0802,-3.0806,-3.079,-3.0806,-3.0798,-3.0801,-3.0849,-3.0852,-3.0852,-3.0857,-3.0859,-3.0847,-3.0806,-3.0796,-3.0798,-3.0802,-3.0793,-3.0793,-3.0804,-3.0764,-3.0704,-3.0704,-3.0668,-3.0602,-3.0586,-3.0559,-3.0499,-3.0466,-3.0355,-3.0226,-3.0132,-3.0087,-3.0022]}]]